[[{"header":{"parameterUnit":"m.s-1","parameterCategory":1,"la1":31.0,"la2":29.5877,"lo1":-88.7671,"lo2":-86.6584,"dx":0.0162,"dy":0.0185,"nx":115,"ny":88,"refTime":"2022-11-12T06:00:00:Z","depth":0,"parameterNumber":2,"parameterNumberName":"U-component_of_WINDS"},"data":[0.0,0.0,0.0,0.0,0.0,0.0,0.0,0.0,0.0,0.0,0.0,0.0,0.0,0.0,0.0,0.0,0.0,0.0,0.0,0.0,0.0,0.0,0.0,0.0,0.0,0.0,0.0,0.0,0.0,0.0,0.0,0.0,0.0,0.0,0.0,0.0,0.0,0.0,0.0,0.0,0.0,0.0,0.0,0.0,0.0,0.0,0.0,0.0,0.0,0.0,0.0,0.0,0.0,0.0,0.0,0.0,0.0,0.0,0.0,0.0,0.0,0.0,0.0,0.0,0.0,0.0,0.0,0.0,0.0,0.0,0.0,0.0,0.0,0.0,0.0,0.0,0.0,0.0,0.0,0.0,0.0,0.0,0.0,0.0,0.0,0.0,0.0,0.0,0.0,0.0,0.0,0.0,0.0,0.0,0.0,0.0,0.0,0.0,0.0,0.0,0.0,0.0,0.0,0.0,0.0,0.0,0.0,0.0,0.0,0.0,0.0,0.0,0.0,0.0,0.0,0.0,0.0,0.0,0.0,0.0,0.0,0.0,0.0,0.0,0.0,0.0,0.0,0.0,0.0,0.0,0.0,0.0,0.0,0.0,0.0,0.0,0.0,0.0,0.0,0.0,0.0,0.0,0.0,0.0,0.0,0.0,0.0,0.0,0.0,0.0,0.0,0.0,0.0,0.0,0.0,0.0,0.0,0.0,0.0,0.0,0.0,0.0,0.0,0.0,0.0,0.0,0.0,0.0,0.0,0.0,0.0,0.0,0.0,0.0,0.0,0.0,0.0,0.0,0.0,0.0,0.0,0.0,0.0,0.0,0.0,0.0,0.0,0.0,0.0,0.0,0.0,0.0,0.0,0.0,0.0,0.0,0.0,0.0,0.0,0.0,0.0,0.0,0.0,0.0,0.0,0.0,0.0,0.0,0.0,0.0,0.0,0.0,0.0,0.0,0.0,0.0,0.0,0.0,0.0,0.0,0.0,0.0,0.0,0.0,0.0,0.0,0.0,0.0,0.0,0.0,0.0,0.0,0.0,0.0,0.0,0.0,0.0,0.0,0.0,0.0,0.0,0.0,0.0,0.0,0.0,0.0,0.0,0.0,0.0,0.0,0.0,0.0,0.0,0.0,0.0,0.0,0.0,0.0,0.0,0.0,0.0,0.0,0.0,0.0,0.0,0.0,0.0,0.0,0.0,0.0,0.0,0.0,0.0,0.0,0.0,0.0,0.0,0.0,0.0,0.0,0.0,0.0,0.0,0.0,0.0,0.0,0.0,0.0,0.0,0.0,0.0,0.0,0.0,0.0,0.0,0.0,0.0,0.0,0.0,0.0,0.0,0.0,0.0,0.0,0.0,0.0,0.0,0.0,0.0,0.0,0.0,0.0,0.0,0.0,0.0,0.0,0.0,0.0,0.0,0.0,0.0,0.0,0.0,0.0,0.0,0.0,0.0,0.0,0.0,0.0,0.0,0.0,0.0,0.0,0.0,0.0,0.0,0.0,0.0,0.0,0.0,0.0,0.0,0.0,0.0,0.0,0.0,0.0,0.0,0.0,0.0,0.0,0.0,0.0,0.0,0.0,0.0,0.0,0.0,0.0,0.0,0.0,0.0,0.0,0.0,0.0,0.0,0.0,0.0,0.0,0.0,0.0,0.0,0.0,0.0,0.0,0.0,0.0,0.0,0.0,0.0,0.0,0.0,0.0,0.0,0.0,0.0,0.0,0.0,0.0,0.0,0.0,0.0,0.0,0.0,0.0,0.0,0.0,0.0,0.0,0.0,0.0,0.0,0.0,0.0,0.0,0.0,0.0,0.0,0.0,0.0,0.0,0.0,0.0,0.0,0.0,0.0,0.0,0.0,0.0,0.0,0.0,0.0,0.0,0.0,0.0,0.0,0.0,0.0,0.0,0.0,0.0,0.0,0.0,0.0,0.0,0.0,0.0,0.0,0.0,0.0,0.0,0.0,0.0,0.0,0.0,0.0,0.0,0.0,0.0,0.0,0.0,0.0,0.0,0.0,0.0,0.0,0.0,0.0,0.0,0.0,0.0,0.0,0.0,0.0,0.0,0.0,0.0,0.0,0.0,0.0,0.0,0.0,0.0,0.0,0.0,0.0,0.0,0.0,0.0,0.0,0.0,0.0,0.0,0.0,0.0,0.0,0.0,0.0,0.0,0.0,0.0,0.0,0.0,0.0,0.0,0.0,0.0,0.0,0.0,0.0,0.0,0.0,0.0,0.0,0.0,0.0,0.0,0.0,0.0,0.0,0.0,0.0,0.0,0.0,0.0,0.0,0.0,0.0,0.0,0.0,0.0,0.0,0.0,0.0,0.0,0.0,0.0,0.0,0.0,0.0,0.0,0.0,0.0,0.0,0.0,0.0,0.0,0.0,0.0,0.0,0.0,0.0,0.0,0.0,0.0,0.0,0.0,0.0,0.0,0.0,0.0,0.0,0.0,0.0,0.0,0.0,0.0,0.0,0.0,0.0,0.0,0.0,0.0,0.0,0.0,0.0,0.0,0.0,0.0,0.0,0.0,0.0,0.0,0.0,0.0,0.0,0.0,0.0,0.0,0.0,0.0,0.0,0.0,0.0,0.0,0.0,0.0,0.0,0.0,0.0,0.0,0.0,0.0,0.0,0.0,0.0,0.0,0.0,0.0,0.0,0.0,0.0,0.0,0.0,0.0,0.0,0.0,0.0,0.0,0.0,0.0,0.0,0.0,0.0,0.0,0.0,0.0,0.0,0.0,0.0,0.0,0.0,0.0,0.0,0.0,0.0,0.0,0.0,0.0,0.0,0.0,0.0,0.0,0.0,0.0,0.0,0.0,0.0,0.0,0.0,0.0,0.0,0.0,0.0,0.0,0.0,0.0,0.0,0.0,0.0,0.0,0.0,0.0,0.0,0.0,0.0,0.0,0.0,0.0,0.0,0.0,0.0,0.0,0.0,0.0,0.0,0.0,0.0,0.0,0.0,0.0,0.0,0.0,0.0,0.0,0.0,0.0,0.0,0.0,0.0,0.0,0.0,0.0,0.0,0.0,0.0,0.0,0.0,0.0,0.0,0.0,0.0,0.0,0.0,0.0,0.0,0.0,0.0,0.0,0.0,0.0,0.0,0.0,0.0,0.0,0.0,0.0,0.0,0.0,0.0,0.0,0.0,0.0,0.0,0.0,0.0,0.0,0.0,0.0,0.0,0.0,0.0,0.0,0.0,0.0,0.0,0.0,0.0,0.0,0.0,0.0,0.0,0.0,0.0,0.0,0.0,0.0,0.0,0.0,0.0,0.0,0.0,0.0,0.0,0.0,0.0,0.0,0.0,0.0,0.0,0.0,0.0,0.0,0.0,0.0,0.0,0.0,0.0,0.0,0.0,0.0,0.0,0.0,0.0,0.0,0.0,0.0,0.0,0.0,0.0,0.0,0.0,0.0,0.0,0.0,0.0,0.0,0.0,0.0,0.0,0.0,0.0,0.0,0.0,0.0,0.0,0.0,0.0,0.0,0.0,0.0,0.0,0.0,0.0,0.0,0.0,0.0,0.0,0.0,0.0,0.0,0.0,0.0,0.0,0.0,0.0,0.0,0.0,0.0,0.0,0.0,0.0,0.0,0.0,0.0,0.0,0.0,0.0,0.0,0.0,0.0,0.0,0.0,0.0,0.0,0.0,0.0,0.0,0.0,0.0,0.0,0.0,0.0,0.0,0.0,0.0,0.0,0.0,0.0,0.0,0.0,0.0,0.0,0.0,0.0,0.0,0.0,0.0,0.0,0.0,0.0,0.0,0.0,0.0,0.0,0.0,0.0,0.0,0.0,0.0,0.0,0.0,0.0,0.0,0.0,0.0,0.0,0.0,0.0,0.0,0.0,0.0,0.0,0.0,0.0,0.0,0.0,0.0,0.0,0.0,0.0,0.0,0.0,0.0,0.0,0.0,0.0,0.0,0.0,0.0,0.0,0.0,0.0,0.0,0.0,0.0,0.0,0.0,0.0,0.0,0.0,0.0,0.0,0.0,0.0,0.0,0.0,0.0,0.0,0.0,0.0,0.0,0.0,0.0,0.0,0.0,0.0,0.0,0.0,0.0,0.0,0.0,0.0,0.0,0.0,0.0,0.0,0.0,0.0,0.0,0.0,0.0,0.0,0.0,0.0,0.0,0.0,0.0,0.0,0.0,0.0,0.0,0.0,0.0,0.0,0.0,0.0,0.0,0.0,0.0,0.0,0.0,0.0,0.0,0.0,0.0,0.0,0.0,0.0,0.0,0.0,-3.042,0.0,0.0,0.0,-3.3798,0.0,0.0,0.0,0.0,0.0,0.0,0.0,0.0,0.0,0.0,0.0,0.0,0.0,0.0,0.0,0.0,0.0,0.0,0.0,0.0,0.0,0.0,0.0,0.0,0.0,0.0,0.0,0.0,0.0,0.0,0.0,0.0,0.0,0.0,0.0,0.0,0.0,0.0,0.0,0.0,0.0,0.0,0.0,0.0,0.0,0.0,0.0,0.0,0.0,0.0,0.0,0.0,0.0,0.0,0.0,0.0,0.0,0.0,0.0,0.0,0.0,0.0,0.0,0.0,0.0,0.0,0.0,0.0,0.0,0.0,0.0,0.0,0.0,0.0,0.0,0.0,0.0,0.0,0.0,0.0,0.0,0.0,0.0,0.0,0.0,0.0,0.0,0.0,0.0,0.0,0.0,0.0,0.0,0.0,0.0,0.0,0.0,0.0,0.0,0.0,0.0,0.0,0.0,0.0,0.0,0.0,0.0,0.0,0.0,0.0,-3.1009,-3.2587,-3.1786,-3.2162,-3.3927,0.0,0.0,0.0,0.0,0.0,0.0,0.0,0.0,0.0,0.0,0.0,0.0,0.0,0.0,0.0,0.0,0.0,0.0,0.0,0.0,0.0,0.0,0.0,0.0,0.0,0.0,0.0,0.0,0.0,0.0,0.0,0.0,0.0,0.0,0.0,0.0,0.0,0.0,0.0,0.0,0.0,0.0,0.0,0.0,0.0,0.0,0.0,0.0,0.0,0.0,0.0,0.0,0.0,0.0,0.0,0.0,0.0,0.0,0.0,0.0,0.0,0.0,0.0,0.0,0.0,0.0,0.0,0.0,0.0,0.0,0.0,0.0,0.0,0.0,0.0,0.0,0.0,0.0,0.0,0.0,0.0,0.0,0.0,0.0,0.0,0.0,0.0,0.0,0.0,0.0,0.0,0.0,0.0,0.0,0.0,0.0,0.0,0.0,0.0,0.0,0.0,0.0,0.0,0.0,0.0,0.0,0.0,0.0,0.0,0.0,0.0,0.0,-3.2031,-3.235,-3.3505,0.0,0.0,0.0,0.0,0.0,0.0,0.0,0.0,0.0,0.0,0.0,0.0,0.0,0.0,0.0,0.0,0.0,0.0,0.0,0.0,0.0,0.0,0.0,0.0,0.0,0.0,0.0,0.0,0.0,0.0,0.0,0.0,0.0,0.0,0.0,0.0,0.0,0.0,0.0,0.0,0.0,0.0,0.0,0.0,0.0,0.0,0.0,0.0,0.0,0.0,0.0,0.0,0.0,0.0,0.0,0.0,0.0,0.0,0.0,0.0,0.0,0.0,0.0,0.0,0.0,0.0,0.0,0.0,0.0,0.0,0.0,0.0,0.0,0.0,0.0,0.0,0.0,0.0,0.0,0.0,0.0,0.0,0.0,0.0,0.0,0.0,0.0,0.0,0.0,0.0,0.0,0.0,0.0,0.0,0.0,0.0,0.0,0.0,0.0,0.0,0.0,0.0,0.0,0.0,0.0,0.0,0.0,0.0,0.0,0.0,-3.3571,-3.3581,-3.373,0.0,-3.3386,0.0,0.0,0.0,0.0,0.0,0.0,0.0,0.0,0.0,0.0,0.0,0.0,0.0,0.0,0.0,0.0,0.0,0.0,0.0,0.0,0.0,0.0,0.0,0.0,0.0,0.0,0.0,0.0,0.0,0.0,0.0,0.0,0.0,0.0,0.0,0.0,0.0,0.0,0.0,0.0,0.0,0.0,0.0,0.0,0.0,0.0,0.0,0.0,0.0,0.0,0.0,0.0,0.0,0.0,0.0,0.0,0.0,0.0,0.0,0.0,0.0,0.0,0.0,0.0,0.0,0.0,0.0,0.0,0.0,0.0,0.0,0.0,0.0,0.0,0.0,0.0,0.0,0.0,0.0,0.0,0.0,0.0,0.0,0.0,0.0,0.0,0.0,0.0,0.0,0.0,0.0,0.0,0.0,0.0,0.0,0.0,0.0,0.0,0.0,0.0,0.0,0.0,0.0,0.0,0.0,0.0,0.0,0.0,0.0,0.0,-3.4451,-3.4488,-3.4299,-3.373,0.0,0.0,0.0,0.0,0.0,0.0,0.0,0.0,0.0,0.0,0.0,0.0,0.0,0.0,0.0,0.0,0.0,0.0,0.0,0.0,0.0,0.0,0.0,0.0,0.0,0.0,0.0,0.0,0.0,0.0,0.0,0.0,0.0,0.0,0.0,0.0,0.0,0.0,0.0,0.0,0.0,0.0,0.0,0.0,0.0,0.0,0.0,0.0,0.0,0.0,0.0,0.0,0.0,0.0,0.0,0.0,0.0,0.0,0.0,0.0,0.0,0.0,0.0,0.0,0.0,0.0,0.0,0.0,0.0,0.0,0.0,0.0,0.0,0.0,0.0,0.0,0.0,0.0,0.0,0.0,0.0,0.0,0.0,0.0,0.0,0.0,0.0,0.0,0.0,0.0,0.0,0.0,0.0,0.0,0.0,0.0,0.0,0.0,0.0,0.0,0.0,0.0,0.0,0.0,0.0,0.0,0.0,0.0,0.0,0.0,-3.4099,-3.4744,-3.5108,-3.4248,-3.3321,-3.2692,0.0,0.0,0.0,0.0,0.0,0.0,0.0,0.0,0.0,0.0,0.0,0.0,0.0,0.0,0.0,0.0,0.0,0.0,0.0,0.0,0.0,0.0,0.0,0.0,0.0,0.0,0.0,0.0,0.0,0.0,0.0,0.0,0.0,0.0,0.0,0.0,0.0,0.0,0.0,0.0,0.0,0.0,0.0,0.0,0.0,0.0,0.0,0.0,0.0,0.0,0.0,0.0,0.0,0.0,0.0,0.0,0.0,0.0,0.0,0.0,0.0,0.0,0.0,0.0,0.0,0.0,0.0,0.0,0.0,0.0,0.0,0.0,0.0,0.0,0.0,0.0,0.0,0.0,0.0,0.0,0.0,0.0,0.0,0.0,0.0,0.0,0.0,0.0,0.0,0.0,0.0,0.0,0.0,0.0,0.0,0.0,0.0,0.0,0.0,0.0,0.0,0.0,0.0,0.0,0.0,0.0,0.0,0.0,-3.2466,-3.3546,-3.4548,-3.5411,-3.3454,-3.2869,0.0,0.0,0.0,0.0,0.0,0.0,0.0,0.0,0.0,0.0,0.0,0.0,0.0,0.0,0.0,0.0,0.0,0.0,0.0,0.0,0.0,0.0,0.0,0.0,0.0,0.0,0.0,0.0,0.0,0.0,0.0,0.0,0.0,0.0,0.0,0.0,0.0,0.0,0.0,0.0,0.0,0.0,0.0,0.0,0.0,0.0,0.0,0.0,0.0,0.0,0.0,0.0,0.0,0.0,0.0,0.0,0.0,0.0,0.0,0.0,0.0,0.0,0.0,0.0,0.0,0.0,0.0,0.0,0.0,0.0,0.0,0.0,0.0,0.0,0.0,0.0,0.0,0.0,0.0,0.0,0.0,0.0,0.0,0.0,0.0,0.0,0.0,0.0,0.0,0.0,0.0,0.0,0.0,0.0,0.0,0.0,0.0,0.0,0.0,0.0,0.0,0.0,0.0,0.0,0.0,0.0,0.0,0.0,0.0,-3.4898,-3.596,-3.6064,-3.5137,-3.4915,-3.4601,0.0,0.0,0.0,0.0,0.0,0.0,0.0,0.0,0.0,0.0,0.0,0.0,0.0,0.0,0.0,0.0,0.0,0.0,0.0,0.0,0.0,0.0,0.0,0.0,0.0,0.0,0.0,0.0,0.0,0.0,0.0,0.0,0.0,0.0,0.0,0.0,0.0,0.0,0.0,0.0,0.0,0.0,0.0,0.0,0.0,0.0,0.0,0.0,0.0,0.0,0.0,0.0,0.0,0.0,0.0,0.0,0.0,0.0,0.0,0.0,0.0,0.0,0.0,0.0,0.0,0.0,0.0,0.0,0.0,0.0,0.0,0.0,0.0,0.0,0.0,0.0,0.0,0.0,0.0,0.0,0.0,0.0,0.0,0.0,0.0,0.0,0.0,0.0,0.0,0.0,0.0,0.0,0.0,0.0,0.0,0.0,0.0,0.0,0.0,0.0,0.0,0.0,0.0,0.0,0.0,0.0,0.0,0.0,0.0,-3.645,-3.7342,-3.6948,-3.5532,-3.577,-3.5367,0.0,0.0,0.0,0.0,0.0,0.0,0.0,0.0,0.0,0.0,0.0,0.0,0.0,0.0,0.0,0.0,0.0,0.0,0.0,0.0,0.0,0.0,0.0,0.0,0.0,0.0,0.0,0.0,0.0,0.0,0.0,0.0,0.0,0.0,0.0,0.0,0.0,0.0,0.0,0.0,0.0,0.0,0.0,0.0,0.0,0.0,0.0,0.0,0.0,0.0,0.0,0.0,0.0,0.0,0.0,0.0,0.0,0.0,0.0,0.0,0.0,0.0,0.0,0.0,0.0,0.0,0.0,0.0,0.0,0.0,0.0,0.0,0.0,0.0,0.0,0.0,0.0,0.0,0.0,0.0,0.0,0.0,0.0,0.0,0.0,0.0,0.0,0.0,0.0,0.0,0.0,0.0,0.0,0.0,0.0,0.0,0.0,0.0,0.0,0.0,0.0,0.0,0.0,0.0,0.0,0.0,0.0,0.0,-3.5623,-3.677,-3.7146,-3.712,-3.6642,-3.5795,-3.4872,0.0,0.0,0.0,0.0,0.0,0.0,0.0,0.0,0.0,0.0,0.0,0.0,0.0,0.0,0.0,0.0,0.0,0.0,0.0,0.0,0.0,0.0,0.0,0.0,0.0,0.0,0.0,0.0,0.0,0.0,0.0,0.0,0.0,0.0,0.0,0.0,0.0,0.0,0.0,0.0,0.0,0.0,0.0,0.0,0.0,0.0,0.0,0.0,0.0,0.0,0.0,0.0,0.0,0.0,0.0,0.0,0.0,0.0,0.0,0.0,0.0,0.0,0.0,0.0,0.0,0.0,0.0,0.0,0.0,0.0,0.0,0.0,0.0,0.0,0.0,0.0,0.0,0.0,0.0,0.0,0.0,0.0,0.0,0.0,0.0,0.0,0.0,0.0,0.0,0.0,0.0,0.0,0.0,0.0,0.0,0.0,0.0,0.0,0.0,0.0,0.0,0.0,0.0,0.0,0.0,0.0,0.0,0.0,0.0,-3.6579,-3.9149,-3.9346,-3.675,-3.758,-3.7493,0.0,0.0,0.0,0.0,0.0,0.0,0.0,0.0,0.0,0.0,0.0,0.0,0.0,0.0,0.0,0.0,0.0,0.0,0.0,0.0,0.0,0.0,0.0,0.0,0.0,0.0,0.0,0.0,0.0,0.0,0.0,0.0,0.0,0.0,0.0,0.0,0.0,0.0,0.0,0.0,0.0,0.0,0.0,0.0,0.0,0.0,0.0,0.0,0.0,0.0,0.0,0.0,0.0,0.0,0.0,0.0,0.0,0.0,0.0,0.0,0.0,0.0,0.0,0.0,0.0,0.0,0.0,0.0,0.0,0.0,0.0,0.0,0.0,0.0,0.0,0.0,0.0,0.0,0.0,0.0,0.0,0.0,0.0,0.0,0.0,0.0,0.0,0.0,0.0,0.0,0.0,0.0,0.0,0.0,0.0,0.0,0.0,0.0,0.0,0.0,0.0,0.0,0.0,0.0,0.0,0.0,0.0,0.0,0.0,-3.9601,-4.2188,-4.1875,-3.8327,-3.9059,-3.8767,-3.7344,0.0,0.0,0.0,0.0,0.0,0.0,0.0,0.0,0.0,0.0,0.0,0.0,0.0,0.0,0.0,0.0,0.0,0.0,0.0,0.0,0.0,0.0,0.0,0.0,0.0,0.0,0.0,0.0,0.0,0.0,0.0,0.0,0.0,0.0,0.0,0.0,0.0,0.0,0.0,0.0,0.0,0.0,0.0,0.0,0.0,0.0,0.0,0.0,0.0,0.0,0.0,0.0,0.0,0.0,0.0,0.0,0.0,0.0,0.0,0.0,0.0,0.0,0.0,0.0,0.0,0.0,0.0,0.0,0.0,0.0,0.0,0.0,0.0,0.0,0.0,0.0,0.0,0.0,0.0,0.0,0.0,0.0,0.0,0.0,0.0,0.0,0.0,0.0,0.0,0.0,0.0,0.0,0.0,0.0,0.0,0.0,0.0,0.0,0.0,0.0,0.0,0.0,0.0,0.0,0.0,0.0,0.0,0.0,-4.4823,-4.5738,-4.4617,-4.1222,-4.0261,-3.8994,0.0,0.0,0.0,0.0,0.0,0.0,0.0,0.0,0.0,0.0,0.0,0.0,0.0,0.0,0.0,0.0,0.0,0.0,0.0,0.0,0.0,0.0,0.0,0.0,0.0,0.0,0.0,0.0,0.0,0.0,0.0,0.0,0.0,0.0,0.0,0.0,0.0,0.0,0.0,0.0,0.0,0.0,0.0,0.0,0.0,0.0,0.0,0.0,0.0,0.0,0.0,0.0,0.0,0.0,0.0,0.0,0.0,0.0,0.0,0.0,0.0,0.0,0.0,0.0,0.0,0.0,0.0,0.0,0.0,0.0,0.0,0.0,0.0,0.0,0.0,0.0,0.0,0.0,0.0,0.0,0.0,0.0,0.0,0.0,0.0,0.0,0.0,0.0,0.0,0.0,0.0,0.0,0.0,0.0,0.0,0.0,0.0,0.0,0.0,0.0,0.0,0.0,0.0,0.0,0.0,0.0,0.0,0.0,0.0,-4.7024,-4.8121,-4.7206,-4.4016,-4.2336,-4.1311,0.0,0.0,0.0,0.0,0.0,0.0,0.0,0.0,0.0,0.0,0.0,0.0,0.0,0.0,0.0,0.0,0.0,0.0,0.0,0.0,0.0,0.0,0.0,0.0,0.0,0.0,0.0,0.0,0.0,0.0,0.0,0.0,0.0,0.0,0.0,0.0,0.0,0.0,0.0,0.0,0.0,0.0,0.0,0.0,0.0,0.0,0.0,0.0,0.0,0.0,0.0,0.0,0.0,0.0,0.0,0.0,0.0,0.0,0.0,0.0,0.0,0.0,0.0,0.0,0.0,0.0,0.0,0.0,0.0,0.0,0.0,0.0,0.0,0.0,0.0,0.0,0.0,0.0,0.0,0.0,0.0,0.0,0.0,0.0,0.0,0.0,0.0,0.0,0.0,0.0,0.0,0.0,0.0,0.0,0.0,0.0,0.0,0.0,0.0,0.0,0.0,0.0,0.0,0.0,0.0,0.0,0.0,0.0,-4.8931,-5.0513,-5.1321,-5.06,-4.8162,-4.5023,-4.3174,0.0,0.0,0.0,0.0,0.0,0.0,0.0,0.0,0.0,0.0,0.0,0.0,0.0,0.0,0.0,0.0,0.0,0.0,0.0,0.0,0.0,0.0,0.0,0.0,0.0,0.0,0.0,0.0,0.0,0.0,0.0,0.0,0.0,0.0,0.0,0.0,0.0,0.0,0.0,0.0,0.0,0.0,0.0,0.0,0.0,0.0,0.0,0.0,0.0,0.0,0.0,0.0,0.0,0.0,0.0,0.0,0.0,0.0,0.0,0.0,0.0,0.0,0.0,0.0,0.0,0.0,0.0,0.0,0.0,0.0,0.0,0.0,0.0,0.0,0.0,0.0,0.0,0.0,0.0,0.0,0.0,0.0,0.0,0.0,0.0,0.0,0.0,0.0,0.0,0.0,0.0,0.0,0.0,0.0,0.0,0.0,0.0,0.0,0.0,0.0,0.0,0.0,0.0,0.0,0.0,0.0,0.0,0.0,-5.1123,-5.4313,-5.4371,-5.3791,-5.2439,-4.7958,-4.484,0.0,0.0,0.0,0.0,0.0,0.0,0.0,0.0,0.0,0.0,0.0,0.0,0.0,0.0,0.0,0.0,0.0,0.0,0.0,0.0,0.0,0.0,0.0,0.0,0.0,0.0,0.0,0.0,0.0,0.0,0.0,0.0,0.0,0.0,0.0,0.0,0.0,0.0,0.0,0.0,0.0,0.0,0.0,0.0,0.0,0.0,0.0,0.0,0.0,0.0,0.0,0.0,0.0,0.0,0.0,0.0,0.0,0.0,0.0,0.0,0.0,0.0,0.0,0.0,0.0,0.0,0.0,0.0,0.0,0.0,0.0,0.0,0.0,0.0,0.0,0.0,0.0,0.0,0.0,0.0,0.0,0.0,0.0,0.0,0.0,0.0,0.0,0.0,0.0,0.0,0.0,0.0,0.0,0.0,0.0,0.0,0.0,0.0,0.0,0.0,0.0,0.0,0.0,0.0,0.0,0.0,0.0,0.0,-5.2992,-5.4313,-5.4371,-5.3994,-5.321,-4.9747,-4.6948,0.0,0.0,0.0,0.0,0.0,0.0,0.0,0.0,0.0,0.0,0.0,0.0,0.0,0.0,0.0,0.0,0.0,0.0,0.0,0.0,0.0,0.0,0.0,0.0,0.0,0.0,0.0,0.0,0.0,0.0,0.0,0.0,0.0,0.0,0.0,0.0,0.0,0.0,0.0,0.0,0.0,0.0,0.0,0.0,0.0,0.0,0.0,0.0,-3.8069,0.0,0.0,0.0,0.0,0.0,0.0,0.0,0.0,0.0,0.0,0.0,0.0,0.0,0.0,0.0,0.0,0.0,0.0,0.0,0.0,0.0,0.0,0.0,0.0,0.0,0.0,0.0,0.0,0.0,0.0,0.0,0.0,0.0,0.0,0.0,0.0,0.0,0.0,0.0,0.0,0.0,0.0,0.0,0.0,0.0,0.0,0.0,0.0,0.0,0.0,0.0,0.0,0.0,0.0,0.0,0.0,0.0,0.0,0.0,-5.4457,-5.6332,-5.587,-5.5247,-5.42,-5.2238,-4.9896,0.0,0.0,0.0,0.0,0.0,0.0,0.0,0.0,0.0,0.0,0.0,0.0,0.0,0.0,0.0,0.0,0.0,0.0,0.0,0.0,0.0,0.0,0.0,0.0,0.0,0.0,0.0,0.0,0.0,0.0,0.0,0.0,0.0,0.0,0.0,0.0,0.0,0.0,0.0,0.0,0.0,0.0,0.0,0.0,0.0,0.0,0.0,0.0,0.0,0.0,0.0,0.0,0.0,0.0,0.0,0.0,0.0,0.0,0.0,0.0,0.0,0.0,0.0,0.0,0.0,0.0,0.0,0.0,0.0,0.0,0.0,0.0,0.0,0.0,0.0,0.0,0.0,0.0,0.0,0.0,0.0,0.0,0.0,0.0,0.0,0.0,0.0,0.0,0.0,0.0,0.0,0.0,0.0,0.0,0.0,0.0,0.0,0.0,0.0,0.0,0.0,0.0,0.0,0.0,0.0,0.0,0.0,-5.3685,-5.5841,-5.8662,-5.7716,-5.6526,-5.5388,-5.461,-5.2378,-4.8567,0.0,0.0,0.0,0.0,0.0,0.0,0.0,0.0,0.0,0.0,0.0,0.0,0.0,0.0,0.0,0.0,0.0,0.0,0.0,0.0,0.0,0.0,0.0,0.0,0.0,0.0,0.0,0.0,0.0,0.0,0.0,0.0,0.0,0.0,0.0,0.0,0.0,0.0,-4.1863,-4.2086,0.0,0.0,0.0,0.0,0.0,0.0,0.0,0.0,-4.0597,0.0,0.0,0.0,0.0,0.0,0.0,0.0,0.0,0.0,0.0,0.0,0.0,0.0,0.0,0.0,0.0,0.0,0.0,0.0,0.0,0.0,0.0,0.0,0.0,0.0,0.0,0.0,0.0,0.0,0.0,0.0,0.0,0.0,0.0,0.0,0.0,0.0,0.0,0.0,0.0,0.0,0.0,0.0,0.0,0.0,0.0,0.0,0.0,0.0,0.0,0.0,0.0,0.0,0.0,0.0,0.0,-5.5621,-5.536,-5.6733,-5.9742,-5.8061,-5.6765,-5.6017,-5.485,-5.2911,-5.0162,0.0,0.0,0.0,0.0,0.0,0.0,0.0,0.0,0.0,0.0,0.0,0.0,0.0,0.0,0.0,0.0,0.0,0.0,0.0,0.0,0.0,0.0,0.0,0.0,0.0,0.0,0.0,0.0,0.0,0.0,0.0,0.0,0.0,0.0,0.0,0.0,0.0,0.0,0.0,-4.4428,-4.4399,0.0,0.0,0.0,0.0,0.0,0.0,0.0,0.0,-4.2807,0.0,0.0,0.0,0.0,0.0,0.0,0.0,0.0,0.0,0.0,0.0,0.0,0.0,0.0,0.0,0.0,0.0,0.0,0.0,0.0,0.0,0.0,0.0,0.0,0.0,0.0,0.0,0.0,0.0,0.0,0.0,0.0,0.0,0.0,0.0,0.0,0.0,0.0,0.0,0.0,0.0,0.0,0.0,0.0,0.0,0.0,0.0,0.0,0.0,0.0,0.0,0.0,0.0,0.0,0.0,-5.6311,-5.807,-5.998,-6.2141,-6.0027,-5.8684,-5.8276,-5.6427,-5.4117,0.0,0.0,0.0,0.0,0.0,0.0,0.0,0.0,0.0,0.0,0.0,0.0,0.0,0.0,0.0,0.0,0.0,0.0,0.0,0.0,0.0,0.0,0.0,0.0,0.0,0.0,0.0,0.0,0.0,0.0,0.0,0.0,0.0,0.0,0.0,0.0,0.0,0.0,0.0,0.0,-4.6758,-4.661,-4.8162,0.0,0.0,0.0,0.0,0.0,0.0,-4.6052,-4.5146,0.0,0.0,0.0,0.0,0.0,0.0,0.0,0.0,0.0,0.0,0.0,0.0,0.0,0.0,0.0,0.0,0.0,0.0,0.0,0.0,0.0,0.0,0.0,0.0,0.0,0.0,0.0,0.0,0.0,0.0,0.0,0.0,0.0,0.0,0.0,0.0,0.0,0.0,0.0,0.0,0.0,0.0,0.0,0.0,0.0,0.0,0.0,0.0,0.0,0.0,0.0,0.0,0.0,0.0,0.0,-5.6965,-6.0387,-6.314,-6.4901,-6.2372,-6.0831,-6.0865,-5.8688,-5.5783,0.0,0.0,0.0,0.0,0.0,0.0,0.0,0.0,0.0,0.0,0.0,0.0,0.0,0.0,0.0,0.0,0.0,0.0,0.0,0.0,0.0,0.0,0.0,0.0,0.0,0.0,0.0,0.0,0.0,0.0,0.0,0.0,0.0,0.0,0.0,0.0,0.0,0.0,0.0,0.0,0.0,-4.8973,-4.9848,-5.09,0.0,0.0,0.0,0.0,-4.8346,-4.8061,0.0,0.0,0.0,0.0,0.0,0.0,0.0,0.0,0.0,0.0,0.0,0.0,0.0,0.0,0.0,0.0,0.0,0.0,0.0,0.0,0.0,0.0,0.0,0.0,0.0,0.0,0.0,0.0,0.0,0.0,0.0,0.0,0.0,0.0,0.0,0.0,0.0,0.0,0.0,0.0,0.0,0.0,0.0,0.0,0.0,0.0,0.0,0.0,0.0,0.0,0.0,0.0,0.0,0.0,0.0,0.0,-5.8285,-6.1141,-6.4295,-6.7584,-6.4009,-6.2166,-6.2811,-6.1327,-5.8061,0.0,0.0,0.0,0.0,0.0,0.0,0.0,0.0,0.0,0.0,0.0,0.0,0.0,0.0,0.0,0.0,0.0,0.0,0.0,0.0,0.0,0.0,0.0,0.0,0.0,0.0,0.0,0.0,0.0,0.0,0.0,0.0,0.0,0.0,0.0,0.0,0.0,0.0,0.0,0.0,0.0,-5.1043,-5.154,-5.189,-5.2252,0.0,0.0,-5.2117,-5.1566,-5.1528,0.0,0.0,0.0,0.0,0.0,0.0,0.0,0.0,0.0,0.0,0.0,0.0,0.0,0.0,0.0,0.0,0.0,0.0,0.0,0.0,0.0,0.0,0.0,0.0,0.0,0.0,0.0,0.0,0.0,0.0,0.0,0.0,0.0,0.0,0.0,0.0,0.0,0.0,0.0,0.0,0.0,0.0,0.0,0.0,0.0,0.0,0.0,0.0,0.0,0.0,0.0,0.0,0.0,0.0,0.0,-5.7495,-6.0374,-6.5073,-6.8327,-6.9827,-6.7319,-6.6189,-6.6676,-6.4742,-6.1503,0.0,0.0,0.0,0.0,0.0,0.0,0.0,0.0,0.0,0.0,0.0,0.0,0.0,0.0,0.0,0.0,0.0,0.0,0.0,0.0,0.0,0.0,0.0,0.0,0.0,0.0,0.0,0.0,0.0,0.0,0.0,0.0,0.0,0.0,0.0,0.0,0.0,0.0,0.0,0.0,0.0,0.0,-5.3993,-5.4111,0.0,0.0,0.0,-5.308,-5.2117,0.0,0.0,0.0,0.0,0.0,0.0,0.0,0.0,0.0,0.0,0.0,0.0,0.0,0.0,0.0,0.0,0.0,0.0,0.0,0.0,0.0,0.0,0.0,0.0,0.0,0.0,0.0,0.0,0.0,0.0,0.0,0.0,0.0,0.0,0.0,0.0,0.0,0.0,0.0,0.0,0.0,0.0,0.0,0.0,0.0,0.0,0.0,0.0,0.0,0.0,0.0,0.0,0.0,0.0,0.0,0.0,0.0,-6.2455,-6.8749,-7.2099,-7.2193,-7.0594,-6.9916,-7.0293,-6.8176,0.0,0.0,0.0,0.0,0.0,0.0,0.0,0.0,0.0,0.0,0.0,0.0,0.0,0.0,0.0,0.0,0.0,0.0,0.0,0.0,0.0,0.0,0.0,0.0,0.0,0.0,0.0,-4.1907,0.0,0.0,0.0,0.0,0.0,0.0,0.0,0.0,0.0,0.0,0.0,0.0,0.0,0.0,-5.5538,-5.696,-5.6828,-5.6817,0.0,0.0,-5.4895,-5.3841,-5.3946,-5.3559,0.0,0.0,0.0,0.0,0.0,0.0,0.0,0.0,0.0,0.0,0.0,0.0,0.0,0.0,0.0,0.0,0.0,0.0,0.0,0.0,0.0,0.0,0.0,0.0,0.0,0.0,0.0,0.0,0.0,0.0,0.0,0.0,0.0,0.0,0.0,0.0,0.0,0.0,0.0,0.0,0.0,0.0,0.0,0.0,0.0,0.0,0.0,0.0,0.0,0.0,0.0,0.0,0.0,0.0,-6.3065,-6.4673,-7.0967,-7.4661,-7.5292,-7.3145,-7.2365,-7.3061,-7.1464,-6.7739,0.0,0.0,0.0,0.0,0.0,0.0,0.0,0.0,0.0,0.0,0.0,0.0,0.0,0.0,0.0,0.0,0.0,0.0,0.0,0.0,0.0,0.0,0.0,0.0,0.0,0.0,0.0,0.0,0.0,0.0,0.0,0.0,0.0,0.0,0.0,0.0,0.0,0.0,0.0,0.0,0.0,-5.7233,-6.0834,-5.9844,-5.9274,0.0,0.0,-5.8851,-5.8949,-5.7664,-5.6748,-5.6985,0.0,0.0,0.0,0.0,0.0,0.0,0.0,0.0,0.0,0.0,0.0,0.0,0.0,0.0,0.0,0.0,0.0,0.0,0.0,0.0,0.0,0.0,0.0,0.0,0.0,0.0,0.0,0.0,0.0,0.0,0.0,0.0,0.0,0.0,0.0,0.0,0.0,0.0,0.0,0.0,0.0,0.0,0.0,0.0,0.0,0.0,0.0,0.0,0.0,0.0,0.0,0.0,0.0,-6.496,-6.6702,-7.3079,-7.6903,-7.7779,-7.655,-7.5878,-7.5986,-7.4354,-7.1638,0.0,0.0,0.0,0.0,0.0,0.0,0.0,0.0,0.0,0.0,0.0,0.0,0.0,0.0,0.0,0.0,0.0,0.0,0.0,0.0,0.0,0.0,0.0,0.0,0.0,0.0,0.0,0.0,-4.6852,-4.7573,-4.7497,0.0,0.0,0.0,0.0,0.0,0.0,0.0,0.0,0.0,0.0,-6.1145,-6.3036,-6.2746,0.0,0.0,-6.2221,-6.1301,-6.1387,-5.9922,-5.8906,-5.9047,-5.7315,0.0,0.0,0.0,0.0,0.0,0.0,0.0,0.0,0.0,0.0,0.0,0.0,0.0,0.0,0.0,0.0,0.0,0.0,0.0,0.0,0.0,0.0,0.0,0.0,0.0,0.0,0.0,0.0,0.0,0.0,0.0,0.0,0.0,0.0,0.0,0.0,0.0,0.0,0.0,0.0,0.0,0.0,0.0,0.0,0.0,0.0,0.0,0.0,0.0,0.0,0.0,0.0,-6.7135,-6.8568,-7.4942,-7.8622,-7.9434,-7.9018,-7.8646,-7.8238,-7.6465,-7.4168,0.0,0.0,0.0,0.0,0.0,0.0,0.0,0.0,0.0,0.0,0.0,0.0,0.0,0.0,0.0,0.0,0.0,0.0,0.0,0.0,0.0,0.0,0.0,0.0,0.0,0.0,0.0,0.0,-4.8893,-4.996,-5.1593,0.0,0.0,0.0,0.0,0.0,0.0,0.0,0.0,0.0,0.0,-6.4578,-6.6096,-6.5804,-6.5477,-6.5801,-6.4577,-6.3577,-6.3429,-6.2405,-6.1637,-6.1532,0.0,0.0,0.0,0.0,0.0,0.0,0.0,0.0,0.0,0.0,0.0,0.0,0.0,0.0,0.0,0.0,0.0,0.0,0.0,0.0,0.0,0.0,0.0,0.0,0.0,0.0,0.0,1.4005,0.0,0.0,0.9776,0.0,0.0,0.0,0.0,0.0,0.0,0.0,0.0,0.0,0.0,0.0,0.0,0.0,0.0,0.0,0.0,0.0,0.0,0.0,0.0,0.0,0.0,-6.9657,-7.006,-7.6415,-7.9795,-7.9872,-8.0357,-8.0357,-7.9756,-7.7503,-7.4847,-7.1684,0.0,0.0,0.0,0.0,0.0,0.0,0.0,0.0,0.0,0.0,0.0,0.0,0.0,0.0,0.0,0.0,0.0,0.0,0.0,0.0,0.0,0.0,0.0,0.0,0.0,0.0,-4.9831,-5.0771,-5.2384,0.0,0.0,0.0,0.0,0.0,0.0,0.0,0.0,0.0,0.0,-6.6095,-6.6972,-7.0619,-6.9321,-6.7945,-6.7558,-6.678,-6.5963,-6.5443,-6.5294,-6.514,0.0,0.0,0.0,0.0,0.0,0.0,0.0,0.0,0.0,0.0,0.0,0.0,0.0,0.0,0.0,0.0,0.0,0.0,0.0,0.0,0.0,0.0,0.0,0.0,0.0,0.0,0.0,0.01,-0.0377,0.0,0.0,0.0,0.0,0.0,0.0,0.0,0.0,0.0,0.0,0.0,-5.1495,-5.0743,0.0,0.0,0.0,0.0,0.0,0.0,0.0,0.0,0.0,0.0,0.0,0.0,-7.2154,-7.1967,-7.752,-8.1087,-8.2218,-8.1867,-8.1875,-8.2226,-8.0197,-7.7014,-7.2648,0.0,0.0,0.0,0.0,0.0,0.0,0.0,0.0,0.0,0.0,0.0,0.0,0.0,0.0,0.0,0.0,0.0,0.0,0.0,0.0,0.0,0.0,0.0,0.0,0.0,-5.3122,0.0,0.0,0.0,0.0,0.0,0.0,0.0,0.0,0.0,0.0,0.0,-6.5994,-6.8364,-7.0637,-7.2371,-7.2993,-7.3385,-7.329,0.0,0.0,0.0,0.0,0.0,0.0,0.0,0.0,0.0,0.0,0.0,0.0,0.0,0.0,-6.325,-6.0072,-5.9037,-5.8931,-5.9451,0.0,0.0,0.0,0.0,0.0,0.0,0.0,0.0,0.0,0.0,0.0,0.0,0.0,0.0,-0.6927,0.0,-1.2214,0.0,0.0,0.0,0.0,0.0,0.0,0.0,0.0,-4.6086,-4.7207,-5.1213,-5.0738,-5.2948,0.0,-5.7679,-5.8029,0.0,0.0,0.0,0.0,0.0,0.0,0.0,0.0,-7.4295,-7.3851,-7.8545,-8.1647,-8.2779,-8.3487,-8.3682,-8.3292,-8.1178,-7.8188,-7.4336,-7.2417,-7.0479,0.0,0.0,0.0,0.0,0.0,0.0,0.0,0.0,0.0,0.0,0.0,0.0,0.0,0.0,0.0,0.0,0.0,0.0,0.0,0.0,0.0,0.0,0.0,-5.7933,0.0,0.0,0.0,0.0,0.0,0.0,0.0,0.0,0.0,-6.5782,-6.8156,-7.0579,-7.2316,-7.4808,-7.6472,-7.6173,0.0,0.0,0.0,0.0,0.0,0.0,0.0,-7.3674,-7.324,-7.1388,-6.9993,-7.014,-6.978,-6.9252,-6.8466,0.0,0.0,-6.4159,-6.2995,-6.2988,-6.3864,-6.3478,-6.3221,-6.3765,-6.4012,-6.4127,0.0,0.0,0.0,0.0,0.0,0.0,0.0,0.0,-0.6197,-0.977,0.0,-1.6679,0.0,0.0,0.0,0.0,0.0,-4.3306,0.0,0.0,-4.5183,-4.6658,-4.8204,-5.0364,-5.2226,-5.3643,-5.3656,-5.556,-5.9249,-6.2805,0.0,0.0,0.0,0.0,0.0,0.0,-7.6047,-7.5718,-7.942,-8.1483,-8.162,-8.5019,-8.5583,-8.3019,-8.0534,-7.8359,-7.6609,-7.4335,-7.2148,-7.0189,-6.7402,0.0,0.0,0.0,0.0,0.0,0.0,0.0,0.0,0.0,0.0,0.0,0.0,0.0,0.0,0.0,0.0,0.0,0.0,0.0,0.0,-6.1734,0.0,0.0,0.0,0.0,0.0,0.0,0.0,0.0,0.0,0.0,-7.0056,-7.1631,-7.4084,-7.7215,0.0,0.0,0.0,0.0,-7.8269,-7.7857,-7.7142,-7.6766,-7.6781,-7.7597,-7.7998,-7.7284,0.0,0.0,-7.5516,-7.5111,-7.4694,-7.3738,-7.3457,-7.2414,-6.9628,-6.7914,-6.7329,-6.84,-6.8141,-6.7802,-6.8209,-6.919,-7.0041,0.6005,0.0,0.0,0.0,0.0,-0.3263,-0.5688,-0.8464,-1.0574,-1.2982,-1.5569,-1.8727,0.0,0.0,0.0,0.0,0.0,0.0,-4.6308,-4.7663,-4.8696,-4.978,-5.1246,-5.2908,-5.488,-5.7038,-5.4653,-5.6201,-6.1235,-6.2464,-6.5154,-6.9123,0.0,0.0,0.0,0.0,-7.5973,-7.4926,-7.8361,-8.0772,-8.1775,-8.4069,-8.4868,-8.3962,-8.1746,-7.9752,-7.8075,-7.6147,-7.4217,-7.2264,-6.9863,0.0,0.0,0.0,0.0,0.0,0.0,0.0,0.0,0.0,0.0,0.0,0.0,0.0,0.0,0.0,0.0,0.0,0.0,0.0,-6.362,-6.5876,-6.7094,0.0,0.0,0.0,0.0,0.0,0.0,0.0,0.0,0.0,-7.6657,-7.7114,-7.7884,0.0,0.0,-8.1458,-7.9907,-8.1384,-8.238,-8.1558,-8.1769,0.0,-8.0588,-8.031,-8.0142,-7.9799,-8.0169,-8.0124,-7.8851,-7.9074,-7.9172,-7.8176,-7.7972,-7.7511,-7.6193,-7.383,-7.2477,-7.3111,-7.3167,-7.3094,-7.3206,-7.3437,-7.3299,-0.08,-0.43,-0.5606,-0.5389,-0.4404,-0.6597,-0.88,-1.089,-1.2698,-1.5244,-1.8229,-2.1167,-2.4734,-2.8993,-3.5126,0.0,0.0,0.0,-4.8016,-4.923,-5.1228,-5.2742,-5.4201,-5.6029,-5.7794,-5.9363,-5.7669,-5.8841,-6.2569,-6.3013,-6.5696,-7.0299,0.0,0.0,-7.369,-7.5451,-7.6046,-7.555,-7.8098,-8.0081,-8.1267,-8.2987,-8.3898,-8.3764,-8.2483,-8.0953,-7.9204,-7.8185,-7.6453,-7.3876,-7.2127,-7.0325,0.0,0.0,0.0,0.0,0.0,0.0,0.0,0.0,0.0,0.0,0.0,-5.8878,-5.9678,0.0,0.0,0.0,-6.5877,-6.691,-6.9018,-7.0301,0.0,0.0,0.0,0.0,0.0,0.0,0.0,-7.5874,-7.8365,-8.0397,-8.1561,-8.1773,-8.1717,-8.1551,-8.3252,-8.3861,-8.2346,0.0,-8.4996,-8.4442,-8.472,-8.4801,-8.416,-8.346,-8.2888,-8.2378,-8.2592,-8.2631,-8.1957,-8.2411,-8.2594,-8.2015,-8.1853,-8.1436,-8.0607,-7.8994,-7.7513,-7.6693,-7.6307,-7.6136,-7.6121,-7.579,-7.5492,-1.0486,-0.9013,-1.2088,-1.1368,-0.805,-0.9306,-1.1136,-1.3082,-1.3561,-1.7038,-2.2555,-2.424,-2.8119,-3.3765,-4.0039,0.0,-4.3939,-4.7082,-4.8736,-4.9191,-5.2988,-5.5546,-5.6976,-5.9624,-6.1005,-6.1201,-6.1834,-6.2589,-6.3556,-6.4434,-6.6303,-6.9011,-6.8838,-6.9991,-7.2507,-7.4659,-7.6085,-7.7072,-7.8327,-7.9444,-8.0342,-8.2021,-8.2911,-8.2874,-8.2836,-8.1943,-8.0106,-8.0049,-7.8497,-7.5148,-7.4221,-7.2236,-6.8888,0.0,0.0,0.0,0.0,0.0,0.0,0.0,0.0,0.0,0.0,0.0,0.0,0.0,0.0,-6.8915,-7.1441,0.0,-7.5276,-7.4666,0.0,0.0,0.0,-7.4019,-7.6546,-7.6971,-7.8205,-8.0667,0.0,0.0,-8.4973,-8.5263,-8.5263,-8.5228,-8.5736,-8.6137,-8.6174,-8.6247,-8.6502,-8.6393,-8.6429,-8.6572,-8.6855,-8.6271,-8.5399,-8.4786,-8.4859,-8.4889,-8.4768,-8.5258,-8.55,-8.5401,-8.5144,-8.4645,-8.3289,-8.3564,-8.3079,-7.9741,-7.8469,-7.7882,-7.7921,-7.7466,-7.7512,-1.1194,-1.1079,-1.3418,-1.1706,-0.7436,-1.006,-1.1879,-1.3391,-1.7916,-2.1145,-2.355,-2.8212,-3.2742,-3.7017,-3.9836,-4.186,-4.3609,-4.7714,-5.0142,-5.1575,-5.5952,-5.8861,-6.0416,-6.2587,-6.4357,-6.5525,-6.4206,-6.4537,-6.6488,-6.7314,-6.7804,-6.7958,-6.8438,-7.0376,-7.3721,-7.4726,-7.5585,-7.6338,-7.727,-7.8626,-8.0458,-8.1926,-8.2706,-8.2706,-8.2639,-8.2109,-8.0967,-7.9868,-7.8489,-7.7036,-7.5399,-7.3942,-7.2629,-7.2305,0.0,0.0,0.0,0.0,0.0,0.0,0.0,0.0,0.0,-6.6995,-6.7315,0.0,-7.1191,0.0,-7.5027,-7.6346,-7.6602,-7.6606,0.0,0.0,-7.6642,-7.6751,-7.9854,-7.9912,-8.0874,-8.4022,-8.4889,-8.564,-8.6611,-8.6412,-8.6356,-8.7121,-8.6684,-8.5919,-8.4745,-8.6135,-8.7304,-8.7304,-8.7778,-8.8069,-8.7558,-8.6719,-8.6063,-8.5808,-8.6637,-8.7358,-8.7281,-8.8425,-8.9275,-8.9066,-8.9008,-8.8449,-8.7185,-8.7165,-8.6401,-8.4407,-8.2918,-8.1731,-8.1184,-8.102,-8.1068,-1.1566,-1.172,-1.3637,-1.2861,-1.0304,-1.2834,-1.4565,-1.6052,-2.018,-2.297,-2.5248,-3.1387,-3.5958,-3.9067,-4.1959,-4.3853,-4.529,-4.9145,-5.2051,-5.4118,-5.6977,-5.9639,-6.2261,-6.3767,-6.5289,-6.6827,-6.6355,-6.6647,-6.7637,-6.8201,-6.817,-6.7746,-6.8511,-7.0305,-7.2887,-7.3601,-7.4726,-7.6498,-7.7169,-7.8477,-8.0443,-8.1245,-8.2206,-8.3298,-8.2765,-8.2462,-8.2538,-8.1062,-7.9852,-7.9105,-7.7514,-7.6313,-7.5727,-7.4797,-7.4286,0.0,0.0,0.0,0.0,0.0,0.0,0.0,0.0,0.0,0.0,0.0,-7.5054,-7.5997,-7.8481,-7.9651,-7.8703,-7.9462,-8.0099,-8.0537,-7.9779,-8.039,-8.337,-8.2751,-8.3321,-8.6271,-8.6259,-8.6385,-8.722,-8.7155,-8.7221,-8.8006,-8.7616,-8.6948,-8.6138,-8.6757,-8.7337,-8.741,-8.7997,-8.8399,-8.8143,-8.7705,-8.7303,-8.7263,-8.8132,-8.8812,-8.877,-8.9748,-9.0501,-9.0457,-9.0457,-9.0058,-8.8845,-8.8561,-8.8002,-8.6567,-8.5588,-8.4529,-8.2904,-8.232,-8.2147,-1.1917,-1.1973,-1.3771,-1.455,-1.4979,-1.6711,-1.8345,-1.989,-2.2019,-2.4839,-2.8343,-3.4266,-3.8328,-4.0938,-4.517,-4.7275,-4.7739,-5.1249,-5.434,-5.6581,-5.738,-5.9759,-6.3225,-6.4209,-6.5323,-6.6644,-6.8158,-6.867,-6.8196,-6.8433,-6.8464,-6.8321,-6.9114,-7.0308,-7.1766,-7.2444,-7.4173,-7.7064,-7.7656,-7.8646,-8.0135,-8.0546,-8.1744,-8.3833,-8.2825,-8.2739,-8.3793,-8.2482,-8.14,-8.0745,-7.9604,-7.8673,-7.8142,-7.6517,-7.5851,0.0,-7.6031,0.0,0.0,0.0,0.0,0.0,0.0,0.0,0.0,-7.7833,-7.8677,-7.8865,-8.1571,-8.2756,-8.1364,-8.2529,-8.3256,-8.3088,-8.324,-8.4191,-8.6171,-8.5393,-8.5485,-8.7764,-8.7012,-8.6684,-8.7636,-8.7856,-8.8033,-8.8521,-8.8442,-8.8269,-8.825,-8.772,-8.7431,-8.7399,-8.7919,-8.8691,-8.902,-8.8983,-8.8763,-8.8686,-8.9225,-8.973,-8.961,-9.0328,-9.0943,-9.0943,-9.1016,-9.0619,-8.9478,-8.9342,-8.8936,-8.7664,-8.7358,-8.6531,-8.4152,-8.3021,-8.2453,-1.3443,-1.3452,-1.6224,-1.816,-1.9416,-2.0855,-2.1566,-2.1874,-2.5797,-3.0656,-3.5713,-3.7112,-4.0235,-4.4608,-4.6768,-4.8584,-4.9901,-5.4019,-5.6582,-5.7879,-6.007,-6.2089,-6.4063,-6.5382,-6.649,-6.7573,-6.8776,-6.9693,-7.0255,-7.0317,-7.0598,-7.1128,-7.1097,-7.204,-7.3998,0.0,0.0,0.0,-7.8328,-7.8901,-7.9262,-8.0684,-8.1703,-8.2287,-8.2089,0.0,-8.2527,-8.1681,-8.0813,-8.0059,-7.9897,0.0,0.0,0.0,0.0,0.0,0.0,0.0,0.0,0.0,0.0,0.0,-8.1597,-8.0942,-7.8727,-8.0516,-8.2303,-8.3372,-8.3556,-8.3672,-8.401,-8.4694,-8.5359,-8.6011,-8.6459,-8.6704,-8.6551,-8.6894,-8.747,-8.79,-8.8045,-8.8426,-8.9204,-8.91,-8.9107,-8.9679,-8.934,-8.9067,-8.9248,-8.8794,-8.8877,-8.9919,-9.0003,-9.008,-9.03,-8.9679,-8.9203,-8.9093,-8.9964,-9.057,-9.071,-9.164,-9.2501,-9.2501,-9.2537,-9.2419,-9.2135,-9.2175,-9.1559,-9.012,-8.9256,-8.8129,-8.5887,-8.5336,-8.4943,-1.5042,0.0,-1.7403,-1.9401,0.0,-2.3556,-2.4974,-2.5922,-2.7787,-3.2068,-3.7935,-3.8776,-4.1284,-4.4783,-4.7276,-4.883,-4.9729,-5.3449,-5.6107,-5.7807,-5.9062,-6.0972,-6.3533,-6.431,-6.5202,-6.6327,-6.7971,-6.8937,-6.9334,-7.0452,-7.1061,-7.1402,-7.1282,-7.1908,-7.3283,-7.4139,-7.5411,-7.7244,-7.7364,-7.7581,-7.8117,-7.896,-8.0332,-8.2054,-8.1491,0.0,0.0,0.0,0.0,0.0,0.0,0.0,0.0,0.0,0.0,-8.1491,-8.1311,-8.1501,-8.2103,-8.235,-8.2905,-8.3893,-8.4843,-8.4362,-8.192,-8.4085,-8.5445,-8.5358,-8.6374,-8.6881,-8.6389,-8.7321,-8.7974,-8.7886,-8.7998,-8.8117,-8.8156,-8.8076,-8.8265,-8.8651,-8.8647,-8.887,-8.9756,-8.9668,-8.9672,-9.021,-9.002,-8.9866,-9.0056,-8.9579,-8.9563,-9.0721,-9.0806,-9.0847,-9.1106,-9.0813,-9.0338,-9.0447,-9.1175,-9.1717,-9.1635,-9.2496,-9.3171,-9.3135,-9.309,-9.3008,-9.3008,-9.3017,-9.2727,-9.1849,-9.0726,-8.9669,-8.8314,-8.6916,-8.5455,-1.672,-1.698,-1.8617,-2.0692,-2.2789,-2.5686,-2.8294,-3.0419,0.0,0.0,0.0,-3.9699,-4.1782,-4.433,-4.7347,-4.8934,-4.9406,-5.2693,-5.5115,-5.7014,-5.7523,-5.9368,-6.2275,-6.2921,-6.3612,-6.4814,-6.6744,-6.7826,-6.835,-6.9914,-7.0893,-7.1259,-7.1259,-7.1627,-7.2331,-7.3753,-7.5128,-7.6469,-7.6313,-7.6505,-7.7292,-7.7579,-7.9051,-8.187,-8.082,-8.1309,-8.3475,-8.2445,-8.2766,-8.4682,-8.3338,-8.3351,-8.536,-8.3416,-8.2643,-8.3601,-8.3192,-8.3325,-8.4301,-8.4721,-8.5385,-8.6395,-8.7414,-8.7366,-8.5942,-8.7429,-8.7994,-8.681,-8.9137,-8.9895,-8.8329,-8.957,-9.0182,-8.9228,-8.9107,-8.9331,-8.9825,-8.914,-8.8844,-8.9455,-8.9226,-8.9226,-9.0221,-9.0528,-9.053,-9.0759,-9.0829,-9.0818,-9.0884,-9.0473,-9.0205,-9.06,-9.0946,-9.1321,-9.1656,-9.173,-9.173,-9.1473,-9.2277,-9.2859,-9.2815,-9.3316,-9.374,-9.3841,-9.357,-9.3561,-9.3479,-9.3587,-9.336,-9.3261,-9.1958,-9.0799,-9.04,-8.7985,-8.5765,-1.76,-1.7892,-2.1154,-2.358,-2.5725,-2.7823,-3.0733,-3.408,-3.3878,-3.5265,-3.7858,-3.9717,-4.2587,-4.6103,-4.7985,-4.9562,-5.1139,-5.405,-5.5582,-5.6047,-5.8367,-5.9889,-6.0455,-6.3032,-6.4403,-6.4781,-6.6038,-6.7795,-6.9355,-6.9759,-7.091,-7.2459,-7.2675,-7.298,-7.3525,-7.406,-7.4668,-7.5336,-7.7067,-7.7995,-7.8176,-7.8903,-7.9536,-8.0211,-8.0185,-8.025,-8.0838,-8.1375,-8.1892,-8.2414,-8.3275,-8.396,-8.4381,-8.4959,-8.5372,-8.5569,-8.5357,-8.5702,-8.677,-8.6909,-8.7536,-8.8866,-9.0036,-9.0504,-9.0204,-8.9155,-8.9075,-9.0131,-9.0103,-8.9854,-8.9606,-9.0245,-9.0674,-9.0517,-9.085,-9.0921,-9.0379,-8.9977,-8.9864,-9.0119,-9.0398,-9.0987,-9.1902,-9.2595,-9.2674,-9.233,-9.2063,-9.1989,-9.1642,-9.1703,-9.1334,-9.0712,-9.127,-9.1834,-9.2089,-9.1876,-9.1803,-9.1803,-9.2903,-9.3667,-9.363,-9.4604,-9.532,-9.5377,-9.5186,-9.514,-9.5011,-9.5072,-9.471,-9.4131,-9.2745,-9.1514,-9.0907,-8.909,-8.7348,-2.0115,-2.1271,-2.2656,-2.5073,-2.8101,-3.0654,-3.3156,-3.5367,-3.6953,-3.8372,-3.9688,-4.1379,-4.3167,-4.5148,-4.7944,-4.9646,-5.0591,-5.3861,-5.5852,-5.6477,-5.7892,-5.9014,-5.9906,-6.1393,-6.2204,-6.2645,-6.4251,-6.5573,-6.6651,-6.8299,-6.9832,-7.0823,-7.1843,-7.3133,-7.4265,-7.4097,-7.4762,-7.6291,-7.7164,-7.7588,-7.7588,-7.8269,-7.8784,-7.8955,-7.9422,-7.9843,-8.0179,-8.0984,-8.1765,-8.2409,-8.3104,-8.3861,-8.4707,-8.5562,-8.6304,-8.6663,-8.6866,-8.7234,-8.7809,-8.8534,-8.9319,-9.0089,-9.0741,-9.1285,-9.1717,-9.0692,-9.0147,-9.0438,-9.0452,-9.055,-9.0589,-9.1223,-9.1676,-9.1676,-9.178,-9.1685,-9.1374,-9.1059,-9.1153,-9.1694,-9.1909,-9.2388,-9.333,-9.3676,-9.3769,-9.3312,-9.2931,-9.2484,-9.2321,-9.248,-9.2398,-9.1938,-9.2368,-9.2719,-9.2736,-9.2229,-9.202,-9.1948,-9.3161,-9.3966,-9.4185,-9.5277,-9.6034,-9.6137,-9.5976,-9.5777,-9.5612,-9.5576,-9.5312,-9.4891,-9.3541,-9.2419,-9.1813,-9.0292,-8.833,-2.2247,-2.3786,-2.4725,-2.7001,-3.0359,-3.3349,-3.5258,-3.6578,-3.9406,-4.116,-4.2066,-4.3079,-4.3837,-4.4502,-4.7722,-4.9716,-5.065,-5.3662,-5.5743,-5.6939,-5.7244,-5.82,-5.9725,-6.0237,-6.082,-6.1651,-6.3197,-6.4075,-6.4511,-6.6912,-6.8694,-6.9542,-7.1624,-7.3292,-7.4393,-7.4249,-7.515,-7.6918,-7.7276,-7.7343,-7.7198,-7.7705,-7.8026,-7.8201,-7.9234,-7.9857,-8.0178,-8.1092,-8.199,-8.2713,-8.307,-8.3777,-8.4949,-8.5983,-8.6872,-8.7499,-8.8129,-8.8519,-8.8759,-8.9806,-9.0611,-9.0824,-9.1097,-9.1626,-9.2422,-9.2087,-9.1445,-9.0896,-9.1395,-9.1814,-9.2087,-9.2645,-9.3084,-9.3036,-9.2873,-9.2961,-9.3078,-9.2887,-9.3065,-9.392,-9.3953,-9.4147,-9.4613,-9.4702,-9.4543,-9.4255,-9.3495,-9.3018,-9.31,-9.3249,-9.3415,-9.3487,-9.3612,-9.3589,-9.3447,-9.2987,-9.2603,-9.2405,-9.356,-9.4301,-9.4632,-9.5468,-9.6343,-9.6375,-9.6216,-9.602,-9.5858,-9.5695,-9.5503,-9.5047,-9.366,-9.2537,-9.1849,-9.0799,-8.906,-2.3048,-2.3986,-2.7295,-3.0445,-3.2877,-3.5018,-3.7002,-3.8679,-4.0919,-4.2906,-4.4191,-4.386,-4.4392,-4.5708,-4.7548,-4.9739,-5.207,-5.3538,-5.4917,-5.6287,-5.7352,-5.8681,-5.9887,-6.1372,-6.2818,-6.3758,-6.4074,-6.4566,-6.5361,-6.6034,-6.7896,-7.0931,-7.354,-7.4211,-7.378,-7.4839,-7.5751,-7.6088,-7.8124,-7.8812,-7.7911,-7.7942,-7.804,-7.807,-7.9678,-8.0575,-8.069,-8.1686,-8.2359,-8.2647,-8.3373,-8.3915,-8.4547,-8.6315,-8.7846,-8.8579,-8.92,-8.9763,-9.0284,-9.0757,-9.1084,-9.1318,-9.1617,-9.2265,-9.3273,-9.3393,-9.333,-9.3215,-9.3231,-9.3546,-9.4328,-9.457,-9.4564,-9.4523,-9.4649,-9.5122,-9.5621,-9.5795,-9.6018,-9.6889,-9.6592,-9.6643,-9.6721,-9.6571,-9.6123,-9.5277,-9.4435,-9.3946,-9.4051,-9.4441,-9.4789,-9.4751,-9.4562,-9.4334,-9.4211,-9.4047,-9.353,-9.3163,-9.4235,-9.4895,-9.4997,-9.5736,-9.6685,-9.684,-9.6572,-9.6458,-9.618,-9.5886,-9.5586,-9.5013,-9.355,-9.1567,-9.0292,-9.011,-8.9495,-2.4342,-2.5808,-2.8381,-3.0843,-3.3062,-3.5831,-3.7702,-3.9172,-4.1968,-4.3777,-4.4665,-4.4368,-4.5002,-4.6604,-4.8248,-5.0182,-5.2061,-5.3815,-5.4975,-5.5532,-5.6277,-5.7677,-5.9633,-6.0404,-6.1755,-6.346,-6.358,-6.3873,-6.4256,-6.5066,-6.7267,-7.0472,-7.1894,-7.2792,-7.3594,-7.4395,-7.5029,-7.5877,-7.7499,-7.85,-7.9015,-8.0001,-8.0378,-8.0139,-8.076,-8.122,-8.1348,-8.1845,-8.2494,-8.3121,-8.3992,-8.4573,-8.4717,-8.6851,-8.8269,-8.8667,-8.9678,-9.034,-9.0593,-9.0877,-9.1091,-9.1193,-9.1861,-9.2599,-9.3193,-9.3681,-9.4446,-9.5362,-9.487,-9.4497,-9.4848,-9.4928,-9.4942,-9.5024,-9.5429,-9.5973,-9.6246,-9.6769,-9.7409,-9.8157,-9.8178,-9.8267,-9.8617,-9.8267,-9.7437,-9.6437,-9.5504,-9.5033,-9.5368,-9.5696,-9.5816,-9.5899,-9.5977,-9.5828,-9.5163,-9.4528,-9.4157,-9.4142,-9.4977,-9.5757,-9.5865,-9.6862,-9.7874,-9.7738,-9.7743,-9.7636,-9.7488,-9.7247,-9.6953,-9.5733,-9.3922,-9.2075,-9.0436,-9.0364,-8.9857,-2.6192,-2.8074,-3.0081,-3.1758,-3.3338,-3.6799,-3.8478,-3.9642,-4.3058,-4.4746,-4.4985,-4.5003,-4.6133,-4.7857,-4.8954,-5.042,-5.2315,-5.4052,-5.5093,-5.5541,-5.5794,-5.6984,-5.8876,-5.9514,-6.0886,-6.2594,-6.3346,-6.3522,-6.3644,-6.5026,-6.724,-7.0047,-7.1112,-7.2446,-7.4172,-7.4486,-7.5242,-7.6244,-7.7765,-7.9118,-8.023,-8.216,-8.2675,-8.1663,-8.1855,-8.2291,-8.2734,-8.2939,-8.3402,-8.4171,-8.4863,-8.5154,-8.5119,-8.6841,-8.8058,-8.8562,-8.974,-9.0546,-9.0631,-9.0951,-9.126,-9.1412,-9.228,-9.3059,-9.3621,-9.447,-9.5674,-9.7052,-9.6467,-9.5898,-9.5874,-9.59,-9.5895,-9.5944,-9.655,-9.7008,-9.7633,-9.8318,-9.9062,-9.9804,-9.9828,-9.9634,-9.99,-9.9406,-9.8587,-9.7538,-9.6659,-9.6166,-9.6549,-9.6568,-9.6558,-9.6762,-9.7241,-9.6905,-9.5853,-9.5318,-9.4904,-9.5096,-9.5999,-9.6724,-9.6818,-9.7937,-9.8905,-9.8675,-9.8955,-9.8955,-9.8675,-9.8619,-9.7946,-9.6528,-9.4816,-9.3103,-9.1717,-9.137,-9.0987,-2.882,-3.0865,-3.2916,-3.3801,-3.4165,-3.7946,-3.9561,-4.0142,-4.4039,-4.581,-4.5828,-4.5828,-4.7455,-4.9893,-4.9311,-5.0529,-5.293,-5.4008,-5.5099,-5.6074,-5.5969,-5.6531,-5.7761,-5.9526,-6.0989,-6.2482,-6.416,-6.4645,-6.4492,-6.618,-6.8161,-6.9848,-7.2657,-7.4505,-7.5338,-7.6169,-7.6916,-7.7284,-7.9448,-8.1117,-8.1818,-8.3865,-8.4001,-8.2499,-8.302,-8.4023,-8.4908,-8.5316,-8.5473,-8.5725,-8.5873,-8.5622,-8.5228,-8.5919,-8.7132,-8.8517,-8.9667,-9.0365,-9.0699,-9.1357,-9.1865,-9.2181,-9.2872,-9.3828,-9.4613,-9.5656,-9.6735,-9.7905,-9.7923,-9.7984,-9.8076,-9.7907,-9.8017,-9.8073,-9.8293,-9.9122,-10.0604,-10.072,-10.1488,-10.2002,-10.1676,-10.1012,-10.0311,-10.0056,-9.9505,-9.863,-9.7754,-9.7255,-9.7149,-9.6998,-9.7328,-9.7654,-9.7716,-9.725,-9.6481,-9.6172,-9.6159,-9.6477,-9.6963,-9.7604,-9.7873,-9.8245,-9.9013,-9.9652,-9.9886,-9.9924,-9.984,-9.9239,-9.8229,-9.7017,-9.5767,-9.4182,-9.3272,-9.3107,-9.2612,-2.9839,-3.3046,-3.3792,-3.4966,-3.6536,-3.9197,-4.1129,-4.2715,-4.5483,-4.6672,-4.6672,-4.6672,-4.7227,-4.8329,-4.9874,-5.1708,-5.3582,-5.3908,-5.445,-5.48,-5.5085,-5.597,-5.7653,-5.9619,-6.1614,-6.3159,-6.5313,-6.6186,-6.6186,-6.682,-6.8543,-7.1007,-7.2296,-7.4053,-7.5965,-7.7034,-7.7494,-7.7866,-7.9748,-8.1396,-8.2585,-8.4206,-8.5068,-8.5158,-8.4137,-8.4143,-8.5055,-8.5315,-8.567,-8.6378,-8.701,-8.7249,-8.7145,-8.7808,-8.8823,-9.0172,-9.075,-9.1177,-9.1663,-9.1929,-9.2176,-9.2307,-9.3038,-9.3753,-9.4356,-9.525,-9.6213,-9.7208,-9.7935,-9.8306,-9.8592,-9.8505,-9.838,-9.852,-9.9425,-10.0492,-10.1483,-10.1929,-10.2347,-10.2944,-10.2703,-10.1944,-10.1288,-10.1046,-10.0445,-9.9094,-9.8919,-9.8759,-9.8392,-9.8782,-9.9267,-9.9141,-9.92,-9.9056,-9.8257,-9.7473,-9.7212,-9.7748,-9.8236,-9.8648,-9.8935,-9.9949,-10.0798,-10.0503,-10.0716,-10.076,-10.0609,-9.9802,-9.8778,-9.8366,-9.703,-9.5939,-9.4958,-9.478,-9.396,-3.1384,-3.3772,-3.3875,-3.524,-3.7636,-3.9134,-4.1303,-4.3512,-4.531,-4.6319,-4.6513,-4.6513,-4.7287,-4.8613,-5.0684,-5.2844,-5.4519,-5.4652,-5.4652,-5.4674,-5.498,-5.58,-5.7185,-5.9719,-6.1765,-6.321,-6.6089,-6.7383,-6.741,-6.7566,-6.9348,-7.2427,-7.2749,-7.4442,-7.6991,-7.813,-7.837,-7.8566,-8.009,-8.192,-8.3272,-8.4786,-8.6217,-8.7343,-8.6138,-8.5543,-8.6056,-8.6542,-8.7105,-8.7843,-8.8798,-8.9241,-8.906,-8.9666,-9.0585,-9.1642,-9.1996,-9.2413,-9.2961,-9.3125,-9.3125,-9.3125,-9.3618,-9.4035,-9.4278,-9.5248,-9.6318,-9.7107,-9.7963,-9.8629,-9.8826,-9.8875,-9.8893,-9.92,-10.0418,-10.1594,-10.2434,-10.2905,-10.3274,-10.3552,-10.3544,-10.2937,-10.2133,-10.1944,-10.1367,-10.0215,-10.0244,-9.9875,-9.9866,-10.0021,-10.0668,-10.0254,-10.0274,-10.0354,-9.9975,-9.9366,-9.8699,-9.9017,-9.9019,-9.948,-10.0092,-10.123,-10.1712,-10.1437,-10.1308,-10.1415,-10.1034,-10.0241,-9.9896,-9.9623,-9.8895,-9.7778,-9.6957,-9.6273,-9.5589,-3.3485,-3.3422,-3.3205,-3.4931,-3.7328,-3.8349,-3.9968,-4.2609,-4.3828,-4.4916,-4.57,-4.5612,-4.7379,-5.0554,-5.126,-5.3157,-5.4936,-5.5774,-5.605,-5.5941,-5.5963,-5.5985,-5.6505,-5.9856,-6.2054,-6.2837,-6.6208,-6.8037,-6.8168,-6.8778,-7.0555,-7.3331,-7.435,-7.5994,-7.8819,-7.9447,-7.9537,-7.9617,-8.1014,-8.2713,-8.4258,-8.6081,-8.793,-8.9282,-8.9138,-8.8803,-8.8433,-8.9199,-8.9565,-9.0001,-9.0984,-9.1297,-9.0806,-9.1089,-9.1803,-9.2633,-9.3177,-9.3819,-9.4545,-9.4689,-9.4727,-9.4576,-9.4741,-9.4741,-9.4945,-9.6223,-9.7267,-9.7496,-9.8334,-9.9052,-9.9141,-9.9473,-9.9938,-10.0643,-10.137,-10.2299,-10.322,-10.4117,-10.4439,-10.4014,-10.4159,-10.4102,-10.3066,-10.2523,-10.228,-10.2029,-10.1445,-10.082,-10.1054,-10.0819,-10.0529,-10.0865,-10.0932,-10.0843,-10.1168,-10.1371,-10.0742,-10.0235,-10.0052,-10.0134,-10.0673,-10.1592,-10.169,-10.1488,-10.1315,-10.1338,-10.1215,-10.0555,-10.0566,-10.0342,-9.9843,-9.9669,-9.9261,-9.8562,-9.7632,-3.3498,-3.3498,-3.3409,-3.5436,-3.8531,-3.9048,-4.125,-4.4143,-4.4783,-4.5168,-4.5162,-4.5127,-4.5906,-4.7722,-4.985,-5.1771,-5.253,-5.5746,-5.7011,-5.6334,-5.6159,-5.6159,-5.6906,-6.0276,-6.394,-6.6865,-6.8527,-6.9396,-6.9736,-6.9971,-7.1789,-7.4529,-7.5334,-7.7058,-8.0108,-8.0823,-8.1212,-8.1751,-8.2589,-8.4521,-8.7399,-8.8187,-8.9674,-9.197,-9.2205,-9.1907,-9.1193,-9.0224,-8.9722,-9.0047,-9.098,-9.1727,-9.2202,-9.2365,-9.2769,-9.3419,-9.4017,-9.4589,-9.5221,-9.5681,-9.563,-9.5253,-9.5103,-9.5065,-9.5065,-9.5725,-9.6364,-9.68,-9.7611,-9.8231,-9.8694,-9.9302,-10.0053,-10.0901,-10.2069,-10.3359,-10.4597,-10.5155,-10.5036,-10.446,-10.4092,-10.3705,-10.3364,-10.2998,-10.2515,-10.223,-10.2376,-10.2656,-10.1836,-10.1755,-10.1668,-10.1572,-10.1367,-10.112,-10.1305,-10.1564,-10.144,-10.1038,-10.0867,-10.0756,-10.1276,-10.1595,-10.1673,-10.1618,-10.145,-10.1232,-10.1109,-10.1062,-10.1024,-10.1253,-10.1051,-10.1164,-10.1502,-10.0797,-9.959,-3.316,-3.3185,-3.3272,-3.5565,-3.9046,-3.9369,-4.1426,-4.4528,-4.4712,-4.4695,-4.492,-4.4887,-4.5887,-4.7705,-5.0308,-5.2051,-5.3455,-5.6567,-5.7375,-5.676,-5.6979,-5.7164,-5.774,-6.1352,-6.572,-6.9383,-7.0232,-7.0651,-7.1226,-7.1608,-7.3425,-7.6531,-7.7048,-7.8869,-8.1928,-8.2649,-8.3098,-8.3547,-8.4115,-8.5941,-8.8536,-8.9133,-9.0666,-9.355,-9.4455,-9.4129,-9.3233,-9.2021,-9.1433,-9.1782,-9.2743,-9.3539,-9.3867,-9.3913,-9.416,-9.4687,-9.5148,-9.5618,-9.6385,-9.6516,-9.6656,-9.6478,-9.6314,-9.6126,-9.6201,-9.6314,-9.6764,-9.6914,-9.7726,-9.826,-9.8612,-9.9157,-10.0012,-10.0926,-10.2405,-10.4121,-10.5691,-10.6183,-10.5814,-10.523,-10.4648,-10.4131,-10.357,-10.3277,-10.2764,-10.2538,-10.3005,-10.3663,-10.2572,-10.2421,-10.2031,-10.1597,-10.1103,-10.1085,-10.1345,-10.1646,-10.1977,-10.1818,-10.1612,-10.1518,-10.1768,-10.1812,-10.1881,-10.1635,-10.1472,-10.1284,-10.1155,-10.1292,-10.1368,-10.1712,-10.2056,-10.2244,-10.2319,-10.205,-10.1001,-3.2579,-3.2616,-3.3066,-3.5554,-3.9024,-3.8696,-4.0829,-4.4028,-4.364,-4.364,-4.443,-4.4414,-4.6836,-5.0471,-5.1189,-5.3211,-5.6752,-5.7373,-5.7783,-5.7785,-5.8512,-5.9065,-6.0382,-6.3284,-6.6884,-7.0369,-7.1278,-7.1801,-7.2402,-7.2794,-7.5249,-7.8681,-7.9153,-8.1082,-8.3674,-8.4624,-8.4534,-8.4714,-8.5282,-8.6756,-8.9195,-8.9128,-9.0949,-9.4617,-9.5862,-9.6007,-9.4924,-9.4787,-9.4756,-9.4935,-9.5734,-9.6219,-9.576,-9.5543,-9.584,-9.6289,-9.6448,-9.7027,-9.7636,-9.7644,-9.7685,-9.8542,-9.8154,-9.7778,-9.7741,-9.8079,-9.8229,-9.7853,-9.8379,-9.8867,-9.905,-9.9384,-10.012,-10.1096,-10.2829,-10.4676,-10.6581,-10.6918,-10.6557,-10.5944,-10.5641,-10.517,-10.3762,-10.3471,-10.3353,-10.3231,-10.3022,-10.3201,-10.3083,-10.2601,-10.1835,-10.1248,-10.0733,-10.0527,-10.0656,-10.1475,-10.1825,-10.1893,-10.1906,-10.211,-10.2016,-10.2048,-10.199,-10.1765,-10.1635,-10.1472,-10.1296,-10.1373,-10.169,-10.217,-10.2552,-10.2935,-10.3209,-10.3132,-10.2223,-3.2592,-3.2822,-3.3952,-3.6219,-3.8753,-3.9936,-4.1788,-4.3906,-4.4162,-4.4082,-4.4136,-4.4088,-4.5951,-4.8644,-5.0767,-5.2827,-5.5407,-5.7705,-5.8694,-5.8484,-5.9357,-6.172,-6.4038,-6.5389,-6.8172,-7.1848,-7.2585,-7.2977,-7.3526,-7.3787,-7.5759,-7.9185,-7.9688,-8.1283,-8.4217,-8.4773,-8.4983,-8.5372,-8.5581,-8.7493,-9.0319,-9.0382,-9.2353,-9.6317,-9.7202,-9.7157,-9.6553,-9.739,-9.7387,-9.6547,-9.7581,-9.8296,-9.7934,-9.7427,-9.715,-9.7403,-9.7779,-9.8337,-9.8947,-9.9266,-9.9561,-9.9743,-9.9656,-9.9205,-9.8642,-9.8792,-9.8829,-9.8604,-9.8829,-9.9167,-9.9618,-9.9916,-10.0818,-10.2505,-10.3717,-10.5139,-10.6547,-10.6995,-10.6879,-10.6647,-10.6105,-10.5254,-10.435,-10.3713,-10.322,-10.2827,-10.2902,-10.3115,-10.2939,-10.2633,-10.1811,-10.0937,-10.0349,-9.9998,-10.0111,-10.103,-10.1593,-10.1757,-10.2031,-10.2478,-10.234,-10.2222,-10.2046,-10.1863,-10.1997,-10.192,-10.1479,-10.1289,-10.1852,-10.2516,-10.2914,-10.3305,-10.4511,-10.4799,-10.3281,-3.2917,-3.3163,-3.5118,-3.7014,-3.887,-4.1061,-4.2956,-4.4205,-4.4582,-4.4582,-4.4391,-4.436,-4.6274,-4.923,-5.0908,-5.3215,-5.6027,-5.8129,-5.8823,-5.8984,-5.9853,-6.2746,-6.5706,-6.6814,-6.9153,-7.3429,-7.3866,-7.4362,-7.499,-7.5094,-7.7144,-7.9934,-8.0532,-8.226,-8.5424,-8.5551,-8.5701,-8.612,-8.6359,-8.7914,-8.9903,-9.1488,-9.3132,-9.5904,-9.7007,-9.771,-9.757,-9.8642,-9.8969,-9.846,-9.9201,-9.9889,-9.9455,-9.873,-9.8332,-9.8296,-9.8311,-9.8554,-9.9154,-9.976,-10.0299,-10.0732,-10.0928,-10.0744,-10.0181,-9.9956,-9.9881,-9.9017,-9.9205,-9.9618,-10.0031,-10.0407,-10.1468,-10.2962,-10.3998,-10.4994,-10.6448,-10.6856,-10.6995,-10.6879,-10.6531,-10.5719,-10.4636,-10.4083,-10.3248,-10.2514,-10.255,-10.2576,-10.2445,-10.2179,-10.1748,-10.083,-10.0035,-9.9644,-9.9726,-10.0499,-10.1494,-10.171,-10.2195,-10.2675,-10.262,-10.2396,-10.2285,-10.2222,-10.2303,-10.2255,-10.1796,-10.1611,-10.2133,-10.2711,-10.3119,-10.3741,-10.4759,-10.5456,-10.403,-3.36,-3.3861,-3.615,-3.8046,-3.9935,-4.2036,-4.3915,-4.4885,-4.5106,-4.5106,-4.509,-4.5075,-4.7642,-5.1917,-5.1972,-5.4283,-5.8541,-5.885,-5.8829,-5.9263,-6.0299,-6.2937,-6.6787,-6.7606,-7.0299,-7.4286,-7.512,-7.5721,-7.6296,-7.6584,-7.8314,-8.0692,-8.1591,-8.3443,-8.5551,-8.638,-8.6659,-8.6659,-8.6988,-8.7674,-8.8806,-9.1009,-9.2666,-9.4587,-9.6817,-9.7856,-9.8147,-9.9073,-9.9687,-9.9839,-10.086,-10.1032,-10.0525,-9.9853,-9.9419,-9.9274,-9.8926,-9.8748,-9.9082,-9.9901,-10.0537,-10.1593,-10.2324,-10.2284,-10.1458,-10.112,-10.0519,-9.9017,-9.9656,-10.0106,-10.0669,-10.1195,-10.2197,-10.3319,-10.3586,-10.4392,-10.5646,-10.6564,-10.6962,-10.6995,-10.6956,-10.6144,-10.5138,-10.4326,-10.3823,-10.2659,-10.2514,-10.2249,-10.2186,-10.201,-10.1476,-10.0685,-9.9939,-9.9296,-9.9564,-9.9998,-10.1,-10.1756,-10.2328,-10.2772,-10.2724,-10.262,-10.2582,-10.2562,-10.2591,-10.2401,-10.207,-10.2201,-10.25,-10.2855,-10.3175,-10.3775,-10.4431,-10.4979,-10.4278,-3.4259,-3.5596,-3.7721,-3.9769,-4.1784,-4.3961,-4.5152,-4.5774,-4.579,-4.5742,-4.579,-4.579,-4.8586,-5.2705,-5.2885,-5.5359,-5.9178,-5.9616,-5.9699,-5.9761,-6.0237,-6.3424,-6.7053,-6.8678,-7.1733,-7.5045,-7.6502,-7.7028,-7.7263,-7.7477,-7.8088,-7.981,-8.1697,-8.288,-8.462,-8.6181,-8.6689,-8.6689,-8.6868,-8.7815,-8.8715,-8.8879,-9.0991,-9.4645,-9.7034,-9.7822,-9.8249,-9.9077,-10.0118,-10.0941,-10.1511,-10.1964,-10.246,-10.2062,-10.1374,-10.0831,-10.0614,-10.0442,-10.061,-10.0998,-10.1722,-10.2416,-10.3006,-10.296,-10.1571,-10.142,-10.0632,-9.9468,-9.9656,-10.0557,-10.1646,-10.2697,-10.3201,-10.3539,-10.3979,-10.4401,-10.4987,-10.5793,-10.6487,-10.6851,-10.6956,-10.657,-10.5525,-10.4713,-10.3978,-10.3011,-10.2445,-10.2057,-10.1919,-10.1884,-10.1389,-10.0707,-10.0437,-9.998,-10.0038,-10.0499,-10.1327,-10.1949,-10.2449,-10.2749,-10.2744,-10.2725,-10.2663,-10.2685,-10.2782,-10.2543,-10.2283,-10.2246,-10.2489,-10.2882,-10.3228,-10.3674,-10.4172,-10.4566,-10.4338,-3.4482,-3.6263,-3.8321,-4.0423,-4.2542,-4.4677,-4.571,-4.598,-4.6028,-4.6028,-4.6253,-4.712,-4.9726,-5.2999,-5.4318,-5.6698,-5.9338,-6.0009,-6.0113,-6.0278,-6.08,-6.34,-6.7415,-6.9726,-7.2319,-7.6098,-7.6804,-7.7493,-7.81,-7.8394,-7.9069,-8.0211,-8.1671,-8.3164,-8.4416,-8.6008,-8.6689,-8.6689,-8.6689,-8.7386,-8.8226,-8.8191,-8.9946,-9.4717,-9.7086,-9.8003,-9.8126,-9.8546,-9.9513,-10.0516,-10.1435,-10.256,-10.3741,-10.3221,-10.2425,-10.2026,-10.1121,-10.0811,-10.0786,-10.1464,-10.2091,-10.2426,-10.3282,-10.298,-10.2171,-10.1683,-10.1082,-10.0331,-10.0219,-10.0669,-10.1946,-10.3185,-10.3561,-10.3437,-10.3841,-10.4259,-10.4723,-10.5562,-10.6257,-10.6624,-10.684,-10.6492,-10.5835,-10.5022,-10.4133,-10.3204,-10.2315,-10.1933,-10.1933,-10.184,-10.1502,-10.1095,-10.1001,-10.0799,-10.0732,-10.1149,-10.1866,-10.2285,-10.2491,-10.2652,-10.2654,-10.2695,-10.273,-10.2753,-10.2796,-10.2772,-10.2569,-10.2543,-10.2484,-10.2653,-10.2966,-10.3491,-10.3816,-10.3905,-10.3442,-3.447,-3.6249,-3.8321,-4.0616,-4.2704,-4.4646,-4.5662,-4.5917,-4.6012,-4.6028,-4.6462,-4.8428,-5.0609,-5.2999,-5.5395,-5.778,-5.9569,-6.0154,-6.034,-6.0589,-6.0775,-6.3725,-6.7417,-6.9492,-7.2373,-7.6907,-7.7651,-7.8319,-7.9093,-7.9416,-7.9865,-8.1134,-8.2392,-8.3619,-8.4881,-8.6114,-8.6808,-8.6718,-8.6689,-8.6975,-8.7698,-8.8312,-9.1064,-9.5177,-9.7589,-9.8544,-9.8578,-9.8757,-9.9076,-10.0056,-10.1088,-10.2733,-10.3844,-10.3692,-10.2642,-10.2569,-10.1302,-10.063,-10.0514,-10.1177,-10.1858,-10.1975,-10.2967,-10.328,-10.2558,-10.1833,-10.1233,-10.0857,-10.0594,-10.0557,-10.1533,-10.2697,-10.311,-10.296,-10.3335,-10.3929,-10.4495,-10.5418,-10.5819,-10.6315,-10.6547,-10.64,-10.5885,-10.5177,-10.4287,-10.3398,-10.2508,-10.1889,-10.1889,-10.1843,-10.1592,-10.1453,-10.1375,-10.1401,-10.1344,-10.1899,-10.262,-10.249,-10.2624,-10.264,-10.2725,-10.3022,-10.3082,-10.2803,-10.2777,-10.2803,-10.2828,-10.2704,-10.2608,-10.2553,-10.2841,-10.3431,-10.3469,-10.3241,-10.2671,-3.468,-3.6874,-3.8543,-4.1164,-4.3988,-4.5218,-4.5519,-4.5631,-4.5901,-4.6028,-4.6237,-4.8412,-5.1049,-5.3216,-5.5395,-5.78,-5.9882,-6.0382,-6.063,-6.0837,-6.1257,-6.3882,-6.7918,-6.8994,-7.2018,-7.6605,-7.8565,-7.9528,-7.9631,-8.0018,-8.0152,-8.1351,-8.2781,-8.413,-8.5033,-8.6469,-8.7137,-8.6778,-8.6748,-8.7095,-8.7945,-8.9567,-9.1968,-9.6562,-9.8569,-9.9501,-9.9728,-9.9796,-10.0418,-10.1455,-10.2134,-10.2987,-10.3802,-10.3603,-10.313,-10.2497,-10.1555,-10.0686,-10.0464,-10.0881,-10.1464,-10.1975,-10.2682,-10.2976,-10.253,-10.1833,-10.112,-10.0519,-10.0407,-10.0744,-10.2246,-10.2547,-10.2697,-10.2772,-10.3148,-10.3776,-10.4029,-10.4572,-10.5276,-10.5871,-10.618,-10.641,-10.5904,-10.531,-10.4481,-10.3591,-10.2663,-10.2082,-10.1889,-10.1889,-10.1834,-10.1787,-10.1796,-10.184,-10.1923,-10.2661,-10.3233,-10.2709,-10.2671,-10.2665,-10.2871,-10.3405,-10.3491,-10.3353,-10.3163,-10.3116,-10.3027,-10.2991,-10.2919,-10.2995,-10.3229,-10.3424,-10.3179,-10.293,-10.2623,-3.4668,-3.6653,-3.8818,-4.1427,-4.3847,-4.482,-4.5186,-4.5504,-4.5694,-4.5869,-4.7071,-4.9505,-5.1908,-5.365,-5.6911,-5.921,-6.0191,-6.0816,-6.1127,-6.1355,-6.161,-6.4166,-6.904,-6.9318,-7.3158,-7.7259,-7.9752,-8.0015,-7.9724,-7.9489,-8.0035,-8.0669,-8.2573,-8.3862,-8.4447,-8.6273,-8.7217,-8.6928,-8.7018,-8.7674,-8.8803,-9.1032,-9.4407,-9.6474,-9.898,-10.0075,-10.0202,-10.0202,-10.0216,-10.0513,-10.1289,-10.2043,-10.2633,-10.2837,-10.2739,-10.2479,-10.1519,-10.0686,-10.0376,-10.0713,-10.142,-10.2012,-10.2537,-10.2734,-10.2427,-10.1833,-10.0857,-10.0069,-10.0482,-10.0669,-10.0669,-10.1533,-10.1909,-10.2096,-10.2735,-10.3373,-10.3738,-10.4029,-10.4643,-10.5365,-10.5857,-10.6095,-10.6179,-10.552,-10.4686,-10.3784,-10.2817,-10.2315,-10.1966,-10.1889,-10.1928,-10.2121,-10.2199,-10.2484,-10.2643,-10.3251,-10.3419,-10.2887,-10.2663,-10.267,-10.306,-10.362,-10.4012,-10.4148,-10.3936,-10.3933,-10.3824,-10.3998,-10.3708,-10.3335,-10.324,-10.3123,-10.2897,-10.2606,-10.2378,-3.4209,-3.5975,-3.8884,-4.1467,-4.3239,-4.4019,-4.4601,-4.5107,-4.5249,-4.5486,-4.6655,-5.0609,-5.2836,-5.4449,-5.7653,-6.0485,-6.0837,-6.121,-6.1541,-6.2026,-6.2524,-6.5296,-6.8958,-7.1309,-7.3927,-7.8164,-7.9733,-7.9957,-7.9928,-7.9958,-7.993,-8.123,-8.3361,-8.4306,-8.4761,-8.7215,-8.7533,-8.7467,-8.7556,-8.8396,-9.0186,-9.3173,-9.5736,-9.629,-9.8853,-10.0326,-10.0717,-10.0878,-10.0472,-10.0397,-10.0704,-10.1393,-10.1781,-10.1918,-10.2299,-10.2496,-10.1302,-10.0614,-10.0485,-10.0615,-10.1131,-10.1702,-10.2389,-10.2557,-10.2183,-10.1415,-10.0531,-9.9668,-9.9781,-10.0381,-9.9893,-10.0531,-10.1308,-10.1683,-10.2359,-10.3073,-10.3561,-10.3915,-10.4067,-10.4719,-10.5418,-10.5761,-10.5861,-10.5524,-10.4669,-10.4133,-10.3204,-10.2431,-10.2082,-10.1928,-10.2005,-10.2353,-10.2663,-10.312,-10.3404,-10.3741,-10.3508,-10.2759,-10.2611,-10.2596,-10.3177,-10.3816,-10.427,-10.4845,-10.5461,-10.5492,-10.5253,-10.4564,-10.3881,-10.3357,-10.307,-10.288,-10.279,-10.2591,-10.2356,-3.3763,-3.484,-3.8211,-4.0679,-4.2309,-4.2787,-4.3345,-4.4158,-4.447,-4.5246,-4.6479,-5.0662,-5.3256,-5.5081,-5.9014,-6.0975,-6.1292,-6.1437,-6.1727,-6.2254,-6.3676,-6.6217,-7.0029,-7.2233,-7.486,-7.8236,-7.9278,-7.9983,-8.0377,-8.092,-8.1783,-8.2981,-8.4715,-8.6355,-8.6254,-8.8501,-8.9487,-8.8663,-8.8514,-8.9329,-9.0875,-9.3365,-9.5445,-9.7425,-9.9065,-10.0518,-10.1365,-10.1589,-10.1386,-10.0903,-10.1406,-10.1937,-10.2339,-10.2166,-10.2693,-10.2745,-10.228,-10.1266,-10.1157,-10.0972,-10.0955,-10.1588,-10.2001,-10.1982,-10.163,-10.0947,-10.0104,-9.9889,-9.9504,-9.9466,-9.983,-10.0719,-10.127,-10.1871,-10.2584,-10.3298,-10.3786,-10.3786,-10.3877,-10.3803,-10.4437,-10.5112,-10.5531,-10.5172,-10.4754,-10.4237,-10.363,-10.2817,-10.216,-10.2005,-10.1889,-10.2237,-10.2817,-10.3313,-10.3421,-10.385,-10.3636,-10.2744,-10.2578,-10.2638,-10.3337,-10.4036,-10.5007,-10.5627,-10.6331,-10.6234,-10.5297,-10.4511,-10.3785,-10.3642,-10.3753,-10.335,-10.282,-10.2659,-10.2763,-3.4197,-3.5975,-3.9104,-4.0882,-4.1783,-4.2137,-4.2833,-4.3422,-4.3931,-4.5246,-4.7377,-5.0877,-5.4247,-5.736,-6.0422,-6.1296,-6.1573,-6.1955,-6.2183,-6.2348,-6.3928,-6.6465,-6.995,-7.1892,-7.4296,-7.8231,-7.9226,-7.9887,-8.0671,-8.1388,-8.1931,-8.2452,-8.5081,-8.6249,-8.671,-8.9209,-8.9471,-8.9112,-8.9348,-9.0183,-9.1674,-9.3219,-9.5181,-9.7074,-9.8296,-9.9718,-10.0866,-10.1183,-10.0844,-10.0294,-10.0371,-10.0549,-10.0987,-10.1467,-10.2162,-10.322,-10.3055,-10.2569,-10.2099,-10.17,-10.1801,-10.228,-10.2595,-10.2522,-10.1609,-10.0569,-9.9665,-9.9178,-9.8841,-9.9129,-9.983,-10.0344,-10.1195,-10.1984,-10.2847,-10.3298,-10.3711,-10.3786,-10.3776,-10.3501,-10.3351,-10.3888,-10.4501,-10.4604,-10.4247,-10.3829,-10.3426,-10.2933,-10.2315,-10.1966,-10.1889,-10.1966,-10.2624,-10.3352,-10.3336,-10.3502,-10.3558,-10.2926,-10.2462,-10.273,-10.3492,-10.4308,-10.5046,-10.594,-10.6609,-10.6196,-10.5195,-10.513,-10.5036,-10.4837,-10.4589,-10.4216,-10.3882,-10.4186,-10.4051,-3.5088,-3.7991,-4.0227,-4.1115,-4.1145,-4.164,-4.21,-4.2668,-4.3245,-4.5277,-4.8455,-5.1967,-5.6372,-5.9853,-6.1067,-6.153,-6.2224,-6.2534,-6.2659,-6.27,-6.3938,-6.6688,-7.0011,-7.1867,-7.4752,-7.9369,-7.9579,-8.0065,-8.0572,-8.1248,-8.1483,-8.1328,-8.5499,-8.6307,-8.6458,-8.888,-9.0668,-8.9501,-8.9961,-9.0617,-9.1536,-9.2412,-9.4238,-9.5916,-9.7168,-9.8222,-9.9915,-10.0269,-9.9931,-9.9322,-9.9311,-9.9606,-9.9999,-10.0551,-10.1787,-10.2751,-10.3269,-10.3416,-10.3094,-10.2877,-10.3,-10.3008,-10.2924,-10.2279,-10.1907,-10.0725,-9.9909,-9.9423,-9.9477,-9.9766,-10.0231,-10.0569,-10.1458,-10.2246,-10.2885,-10.3298,-10.3561,-10.3486,-10.3298,-10.3024,-10.2674,-10.2273,-10.2884,-10.3602,-10.3634,-10.3318,-10.3059,-10.2831,-10.2353,-10.1773,-10.185,-10.185,-10.2547,-10.3088,-10.288,-10.293,-10.3065,-10.3147,-10.2681,-10.2769,-10.3492,-10.4036,-10.4619,-10.559,-10.6484,-10.6065,-10.5067,-10.5747,-10.6332,-10.5513,-10.4958,-10.5198,-10.5209,-10.5443,-10.5212,-3.5988,-4.0256,-4.0475,-4.0723,-4.0738,-4.1032,-4.1548,-4.2274,-4.2888,-4.5209,-4.9482,-5.3946,-5.7976,-6.0514,-6.1475,-6.1919,-6.2617,-6.2659,-6.2679,-6.346,-6.5238,-6.7792,-7.0856,-7.3486,-7.6136,-7.9062,-7.9731,-8.0065,-8.047,-8.1156,-8.1475,-8.2378,-8.5697,-8.6398,-8.7461,-8.9553,-9.104,-9.019,-9.0159,-9.0376,-9.0859,-9.1354,-9.2587,-9.4939,-9.6009,-9.7113,-9.9915,-9.9999,-9.9694,-9.895,-9.8916,-9.905,-9.9416,-9.9826,-10.0995,-10.2485,-10.3159,-10.3628,-10.3922,-10.3511,-10.2787,-10.2475,-10.2061,-10.1845,-10.1825,-10.0905,-10.0369,-10.0307,-10.0217,-10.0676,-10.1255,-10.1743,-10.2209,-10.2735,-10.3148,-10.3298,-10.3373,-10.296,-10.2772,-10.2509,-10.2047,-10.1471,-10.1415,-10.2175,-10.2625,-10.2294,-10.2405,-10.2185,-10.1819,-10.1386,-10.1618,-10.1889,-10.2547,-10.274,-10.2268,-10.2475,-10.3065,-10.3108,-10.2798,-10.3002,-10.3492,-10.3958,-10.4269,-10.4697,-10.5396,-10.5163,-10.5163,-10.5622,-10.5807,-10.5456,-10.5388,-10.5951,-10.599,-10.5912,-10.568,-3.755,-4.049,-4.0475,-4.0607,-4.0797,-4.0914,-4.1385,-4.2156,-4.3759,-4.7622,-5.2356,-5.6347,-5.9109,-6.0277,-6.0999,-6.1602,-6.2042,-6.2481,-6.2679,-6.3678,-6.5477,-6.8288,-7.1137,-7.3792,-7.6651,-7.8831,-7.9575,-7.9683,-7.9659,-8.0675,-8.0893,-8.2076,-8.4903,-8.6588,-8.7923,-8.9611,-9.0514,-9.0279,-8.9905,-9.0123,-9.0123,-9.0259,-9.1361,-9.34,-9.425,-9.5427,-9.7284,-9.8439,-9.8521,-9.8544,-9.8476,-9.8575,-9.8821,-9.9279,-10.0474,-10.1999,-10.2623,-10.3661,-10.4536,-10.4272,-10.3962,-10.338,-10.2677,-10.1806,-10.1597,-10.0698,-10.0241,-10.0307,-10.0793,-10.1453,-10.2107,-10.2332,-10.2697,-10.3185,-10.341,-10.3448,-10.311,-10.2622,-10.1984,-10.1533,-10.1007,-10.0432,-10.0526,-10.0804,-10.114,-10.1306,-10.1426,-10.1469,-10.1142,-10.1038,-10.1309,-10.1618,-10.2237,-10.2624,-10.223,-10.263,-10.3248,-10.3147,-10.2992,-10.3211,-10.357,-10.3609,-10.392,-10.4191,-10.4471,-10.4594,-10.4866,-10.5288,-10.5377,-10.5209,-10.6015,-10.7105,-10.6888,-10.6302,-10.5963,-3.8225,-4.049,-4.0592,-4.0768,-4.0973,-4.1075,-4.1294,-4.208,-4.4572,-4.9156,-5.4686,-5.7636,-5.9508,-6.0215,-6.0698,-6.1361,-6.2022,-6.246,-6.2679,-6.3762,-6.5627,-6.8399,-7.1229,-7.391,-7.6871,-7.8906,-7.9319,-7.9453,-7.9075,-8.0267,-8.0383,-8.1013,-8.2596,-8.4662,-8.7135,-8.9172,-9.004,-8.9501,-8.9275,-8.9227,-8.9327,-8.9341,-9.0159,-9.1974,-9.3077,-9.4469,-9.6099,-9.7388,-9.8048,-9.8104,-9.807,-9.8037,-9.8337,-9.8839,-9.9792,-10.085,-10.2069,-10.3195,-10.4058,-10.4557,-10.4478,-10.3891,-10.2631,-10.1679,-10.1032,-10.0772,-10.0638,-10.0611,-10.1364,-10.2193,-10.2922,-10.3073,-10.3185,-10.3598,-10.3185,-10.3073,-10.2547,-10.2059,-10.1233,-10.0519,-9.9994,-9.9618,-9.9704,-9.9929,-10.031,-10.048,-10.0383,-10.0519,-10.047,-10.0563,-10.0961,-10.1309,-10.1773,-10.2114,-10.2307,-10.293,-10.3519,-10.3833,-10.3652,-10.3468,-10.3609,-10.357,-10.3337,-10.3298,-10.36,-10.4094,-10.4307,-10.4442,-10.4792,-10.5146,-10.5976,-10.6693,-10.6536,-10.5912,-10.6029,-3.8459,-4.0534,-4.0812,-4.0958,-4.1031,-4.1309,-4.1616,-4.2361,-4.5162,-4.9296,-5.4338,-5.7272,-5.9494,-6.0396,-6.0698,-6.1361,-6.2241,-6.2679,-6.2679,-6.3502,-6.5842,-6.8622,-7.1414,-7.41,-7.7067,-7.8906,-7.9319,-7.9047,-7.8619,-7.9833,-7.9772,-8.0166,-8.1634,-8.3576,-8.5899,-8.8436,-8.9218,-8.8723,-8.8185,-8.8266,-8.8375,-8.8486,-8.9391,-9.0712,-9.2319,-9.3728,-9.5244,-9.6773,-9.7597,-9.8003,-9.8003,-9.8003,-9.8126,-9.8126,-9.8855,-9.9936,-10.1034,-10.213,-10.3171,-10.376,-10.3927,-10.3723,-10.2334,-10.121,-10.1313,-10.1269,-10.1017,-10.0735,-10.2271,-10.3185,-10.3608,-10.3711,-10.3748,-10.3598,-10.3185,-10.2622,-10.2134,-10.1383,-10.0594,-9.9918,-9.9393,-9.898,-9.898,-9.9126,-9.95,-9.963,-9.9384,-9.9458,-9.9673,-9.9891,-10.0331,-10.1231,-10.1657,-10.2346,-10.2763,-10.3308,-10.3818,-10.4221,-10.4492,-10.4362,-10.3842,-10.3453,-10.3143,-10.2661,-10.277,-10.3331,-10.3386,-10.3385,-10.4027,-10.4648,-10.503,-10.5521,-10.5521,-10.5638,-10.5717,-3.9804,-4.0519,-4.0841,-4.1104,-4.1309,-4.1616,-4.1924,-4.2914,-4.6816,-5.081,-5.4246,-5.7196,-5.9193,-6.0135,-6.0919,-6.1361,-6.2022,-6.2679,-6.2679,-6.3221,-6.6146,-6.8644,-7.1391,-7.4335,-7.7116,-7.8723,-7.9294,-7.8741,-7.7939,-7.915,-7.9393,-7.9592,-8.1954,-8.4576,-8.6308,-8.8236,-8.9352,-8.8693,-8.8125,-8.7866,-8.8284,-8.8232,-8.8678,-8.9972,-9.1146,-9.2756,-9.4409,-9.5933,-9.706,-9.7879,-9.8003,-9.8003,-9.8003,-9.8003,-9.853,-9.963,-10.0855,-10.2243,-10.3044,-10.35,-10.3072,-10.2644,-10.1889,-10.0728,-10.0244,-10.0161,-10.0195,-10.0746,-10.2054,-10.2789,-10.3107,-10.3552,-10.3683,-10.3636,-10.3185,-10.2397,-10.1721,-10.0857,-10.0031,-9.9468,-9.8942,-9.8905,-9.8905,-9.8942,-9.9213,-9.897,-9.8728,-9.8808,-9.9017,-9.9134,-9.947,-10.0866,-10.1773,-10.2578,-10.3267,-10.3967,-10.4682,-10.5242,-10.5554,-10.5604,-10.4891,-10.392,-10.3492,-10.3337,-10.2907,-10.2553,-10.3105,-10.3574,-10.371,-10.4105,-10.4709,-10.517,-10.5404,-10.5482,-10.5521,-4.0387,-4.0534,-4.0958,-4.1251,-4.1485,-4.1763,-4.2977,-4.5062,-4.8646,-5.1854,-5.5187,-5.7426,-5.8957,-5.9956,-6.0618,-6.1361,-6.2022,-6.246,-6.2679,-6.32,-6.6819,-6.9133,-7.1724,-7.4542,-7.7225,-7.8737,-7.8792,-7.8264,-7.7612,-7.8542,-7.8958,-7.9825,-8.2971,-8.4782,-8.6238,-8.7861,-8.9352,-8.8753,-8.8245,-8.8106,-8.8116,-8.8224,-8.845,-8.9206,-9.0321,-9.1763,-9.3452,-9.4978,-9.6483,-9.7472,-9.8003,-9.8003,-9.8003,-9.8092,-9.8444,-9.9224,-10.0509,-10.1751,-10.2414,-10.2934,-10.249,-10.221,-10.1141,-10.0331,-9.9702,-9.9766,-9.9822,-10.0324,-10.1317,-10.2091,-10.2826,-10.335,-10.3514,-10.3402,-10.2885,-10.2096,-10.1458,-10.0594,-9.9656,-9.9092,-9.8905,-9.8905,-9.898,-9.8942,-9.9027,-9.8508,-9.7948,-9.83,-9.8657,-9.8863,-9.9439,-10.0949,-10.216,-10.3042,-10.3955,-10.4858,-10.5574,-10.6261,-10.6343,-10.6328,-10.5784,-10.4774,-10.4386,-10.4044,-10.3854,-10.3719,-10.3702,-10.3939,-10.4306,-10.4521,-10.4748,-10.5131,-10.5365,-10.5404,-10.5404,-4.0212,-4.0577,-4.1177,-4.1441,-4.1514,-4.2032,-4.4766,-4.9045,-4.93,-5.2398,-5.6813,-5.7239,-5.8723,-6.0036,-6.0658,-6.1459,-6.2378,-6.2597,-6.2659,-6.3854,-6.7075,-6.9358,-7.1986,-7.4823,-7.7118,-7.7807,-7.8114,-7.7787,-7.6984,-7.7756,-7.8214,-7.9494,-8.3088,-8.4905,-8.6452,-8.8031,-8.9248,-8.8873,-8.8364,-8.8065,-8.7926,-8.7876,-8.8141,-8.859,-8.9508,-9.1217,-9.2896,-9.4576,-9.6096,-9.7187,-9.7879,-9.8003,-9.8003,-9.8003,-9.8003,-9.8565,-9.9876,-10.047,-10.1397,-10.1999,-10.1928,-10.1539,-10.0414,-9.9955,-9.9866,-9.9814,-9.9677,-10.0137,-10.0985,-10.1862,-10.261,-10.2897,-10.3213,-10.2856,-10.2407,-10.1833,-10.127,-10.0444,-9.9468,-9.898,-9.8942,-9.898,-9.9167,-9.9167,-9.9393,-9.9455,-9.917,-9.9114,-9.9364,-9.9274,-10.0058,-10.1677,-10.281,-10.3623,-10.4536,-10.5555,-10.6156,-10.6727,-10.6602,-10.6484,-10.6017,-10.5707,-10.524,-10.4927,-10.496,-10.4879,-10.4608,-10.478,-10.5185,-10.5326,-10.5404,-10.5248,-10.5521,-10.5443,-10.5404,-4.0548,-4.087,-4.128,-4.1572,-4.2018,-4.3881,-4.5628,-4.7055,-4.8617,-5.1702,-5.4775,-5.6673,-5.8328,-5.9813,-5.9933,-6.0849,-6.1686,-6.2265,-6.2452,-6.4161,-6.6597,-6.8639,-7.1029,-7.3817,-7.601,-7.7382,-7.7687,-7.731,-7.7083,-7.735,-7.8776,-8.0749,-8.3289,-8.5094,-8.6975,-8.9171,-8.9097,-8.8903,-8.8394,-8.8065,-8.7676,-8.7507,-8.7644,-8.8183,-8.847,-9.0103,-9.1763,-9.3452,-9.4978,-9.6226,-9.7472,-9.7879,-9.8003,-9.7879,-9.7721,-9.8391,-9.8958,-9.9249,-10.0648,-10.1024,-10.1029,-10.0939,-10.0272,-10.0196,-10.0067,-9.9862,-9.9569,-10.0122,-10.0518,-10.1266,-10.1975,-10.2389,-10.2754,-10.2803,-10.2361,-10.1984,-10.1383,-10.0519,-9.9543,-9.898,-9.8942,-9.928,-9.9468,-9.9806,-10.0069,-10.0407,-10.0466,-10.0292,-10.0215,-10.0122,-10.0634,-10.2224,-10.3475,-10.4358,-10.5233,-10.6184,-10.667,-10.7076,-10.6951,-10.6911,-10.6911,-10.66,-10.6056,-10.5845,-10.5845,-10.5609,-10.5243,-10.5568,-10.6029,-10.6224,-10.6263,-10.5912,-10.5678,-10.5795,-10.5795,-4.0446,-4.0987,-4.1309,-4.169,-4.2524,-4.4742,-4.6382,-4.7503,-4.993,-5.2307,-5.4986,-5.6696,-5.8228,-5.935,-5.9767,-6.0659,-6.1748,-6.1769,-6.1872,-6.2728,-6.5841,-6.8144,-7.0519,-7.3313,-7.5826,-7.7009,-7.7134,-7.6758,-7.6929,-7.7293,-7.8517,-7.9614,-8.2896,-8.5244,-8.6859,-8.8693,-8.9696,-8.9112,-8.8544,-8.8155,-8.7676,-8.7227,-8.7636,-8.7772,-8.7724,-8.8961,-9.0516,-9.2191,-9.359,-9.5277,-9.6645,-9.7187,-9.738,-9.7413,-9.7254,-9.7721,-9.8138,-9.8663,-9.9849,-10.0353,-10.0454,-10.048,-10.0444,-10.0286,-9.9946,-9.9635,-9.9729,-9.9929,-10.0158,-10.0555,-10.1222,-10.1935,-10.2389,-10.2897,-10.2565,-10.2246,-10.1458,-10.0594,-9.9881,-9.9167,-9.9205,-9.9618,-9.9956,-10.0369,-10.0744,-10.1158,-10.1332,-10.1258,-10.1216,-10.1292,-10.1671,-10.2721,-10.3984,-10.51,-10.5976,-10.6727,-10.7135,-10.7414,-10.7223,-10.7299,-10.7571,-10.7697,-10.741,-10.7052,-10.6767,-10.6514,-10.637,-10.6505,-10.6849,-10.7005,-10.7083,-10.6927,-10.6771,-10.6849,-10.681,-4.0138,-4.1002,-4.1338,-4.1836,-4.279,-4.5272,-4.7503,-4.9726,-5.2145,-5.4571,-5.6465,-5.7422,-5.8225,-5.8948,-5.9598,-6.0485,-6.1099,-6.1396,-6.197,-6.1866,-6.6497,-6.9202,-7.1066,-7.3809,-7.5883,-7.6333,-7.6456,-7.6331,-7.655,-7.7039,-7.7794,-7.7988,-8.2187,-8.4737,-8.5805,-8.847,-8.9347,-8.9202,-8.8903,-8.8634,-8.7796,-8.7467,-8.7507,-8.7313,-8.7759,-8.8625,-9.0072,-9.1362,-9.2506,-9.417,-9.5409,-9.5836,-9.6617,-9.694,-9.6778,-9.6778,-9.7228,-9.7913,-9.8787,-9.9465,-9.9979,-10.0232,-10.0579,-10.0167,-9.9776,-9.9739,-9.9804,-9.9912,-10.0231,-10.0369,-10.0965,-10.1623,-10.224,-10.2717,-10.269,-10.239,-10.1909,-10.0895,-9.9843,-9.9355,-9.9468,-9.9918,-10.0557,-10.097,-10.1758,-10.2059,-10.1997,-10.1955,-10.2281,-10.239,-10.2937,-10.3537,-10.4758,-10.5983,-10.6665,-10.7299,-10.7619,-10.7713,-10.7754,-10.8051,-10.862,-10.877,-10.8842,-10.8368,-10.7872,-10.7803,-10.7718,-10.773,-10.7669,-10.7629,-10.7747,-10.7903,-10.7864,-10.7669,-10.759,-4.0534,-4.1016,-4.1558,-4.2026,-4.3033,-4.6831,-4.884,-4.9947,-5.3923,-5.592,-5.6621,-5.6913,-5.7613,-5.8545,-5.8859,-5.972,-6.0686,-6.1168,-6.2548,-6.4292,-6.782,-7.0051,-7.2043,-7.4563,-7.5957,-7.6155,-7.6105,-7.6055,-7.6252,-7.7039,-7.7625,-7.7988,-8.1285,-8.3289,-8.5094,-8.7755,-8.8737,-8.9188,-8.8963,-8.8424,-8.7347,-8.6988,-8.6937,-8.6975,-8.7447,-8.7573,-8.8747,-8.9712,-9.1185,-9.2896,-9.4273,-9.5442,-9.6488,-9.6583,-9.6488,-9.6229,-9.6455,-9.7094,-9.7901,-9.8651,-9.9078,-9.9229,-9.9499,-9.947,-9.948,-9.9765,-10.0002,-10.0091,-10.0179,-10.0355,-10.0664,-10.1384,-10.2052,-10.2498,-10.2883,-10.2661,-10.2284,-10.1045,-9.9843,-9.9768,-9.9806,-10.0369,-10.1045,-10.1796,-10.2584,-10.2772,-10.2547,-10.2607,-10.3307,-10.3632,-10.4282,-10.4975,-10.5879,-10.6873,-10.7548,-10.8065,-10.8461,-10.8827,-10.8996,-10.9294,-10.963,-10.9679,-10.9672,-10.9364,-10.9015,-10.8854,-10.8701,-10.8667,-10.8566,-10.8332,-10.802,-10.802,-10.802,-10.7864,-10.7903,-4.0548,-4.1016,-4.1485,-4.2542,-4.4378,-4.7883,-5.0151,-5.1725,-5.5212,-5.6758,-5.6815,-5.7222,-5.7648,-5.8495,-5.8727,-5.9414,-6.0671,-6.092,-6.2677,-6.5194,-6.8006,-7.0186,-7.2638,-7.4913,-7.5832,-7.6055,-7.6055,-7.6055,-7.6252,-7.6843,-7.743,-7.7988,-8.0372,-8.274,-8.4737,-8.683,-8.8348,-8.9651,-8.9052,-8.8155,-8.7107,-8.6898,-8.6718,-8.6817,-8.6915,-8.7072,-8.7573,-8.8563,-8.9743,-9.1475,-9.3068,-9.491,-9.5935,-9.6229,-9.6229,-9.6132,-9.6132,-9.6359,-9.7187,-9.7821,-9.8155,-9.8429,-9.9041,-9.9375,-9.9158,-9.9421,-10.0091,-10.0179,-10.0179,-10.0267,-10.0578,-10.1258,-10.178,-10.2241,-10.2883,-10.3018,-10.2096,-10.082,-10.0106,-9.9918,-10.0294,-10.112,-10.1796,-10.2622,-10.326,-10.326,-10.3035,-10.3444,-10.4121,-10.475,-10.5438,-10.6328,-10.7233,-10.802,-10.8733,-10.917,-10.9459,-10.9824,-11.0149,-11.0265,-11.0407,-11.0485,-11.0481,-11.0108,-10.9849,-10.9739,-10.9609,-10.9202,-10.9082,-10.884,-10.841,-10.802,-10.8028,-10.8003,-10.8016,-4.0431,-4.0973,-4.1324,-4.2946,-4.5679,-4.8449,-5.0812,-5.3072,-5.5835,-5.6914,-5.6854,-5.794,-5.8364,-5.8787,-5.9441,-6.0191,-6.0754,-6.1127,-6.2741,-6.5459,-6.7801,-7.0776,-7.3042,-7.4987,-7.5782,-7.6055,-7.6055,-7.6055,-7.6055,-7.6646,-7.7209,-7.7962,-7.9804,-8.2187,-8.4529,-8.6481,-8.7866,-8.9276,-8.9202,-8.8484,-8.7766,-8.7107,-8.6808,-8.6757,-8.6697,-8.6825,-8.726,-8.7603,-8.8471,-9.0221,-9.2397,-9.4404,-9.5541,-9.6132,-9.6132,-9.6001,-9.6001,-9.6359,-9.6933,-9.7404,-9.7559,-9.7986,-9.8897,-9.9172,-9.893,-9.9293,-9.9912,-10.0215,-10.0215,-10.0267,-10.0664,-10.1012,-10.1544,-10.2203,-10.2814,-10.3298,-10.2059,-10.097,-10.0669,-10.0407,-10.097,-10.1833,-10.2472,-10.3298,-10.3636,-10.3636,-10.3878,-10.4363,-10.4911,-10.5505,-10.6156,-10.7372,-10.8608,-10.9283,-10.9916,-11.0285,-11.0573,-11.0783,-11.1106,-11.1106,-11.1106,-11.1068,-11.0947,-11.0751,-11.0511,-11.0041,-10.9631,-10.9179,-10.9134,-10.9031,-10.8464,-10.7886,-10.8001,-10.8005,-10.8005,-4.0621,-4.1002,-4.1309,-4.2931,-4.5663,-4.8449,-5.0812,-5.3235,-5.5548,-5.6854,-5.736,-5.8259,-5.8827,-5.8847,-5.9466,-6.035,-6.121,-6.1479,-6.4585,-6.7756,-6.872,-7.1624,-7.4215,-7.5509,-7.603,-7.6004,-7.5954,-7.603,-7.5904,-7.6348,-7.7039,-7.7599,-7.8182,-8.091,-8.4349,-8.5925,-8.6918,-8.859,-8.9292,-8.8544,-8.8185,-8.7526,-8.6808,-8.6659,-8.6659,-8.6817,-8.6847,-8.6847,-8.7854,-8.9474,-9.1794,-9.3962,-9.5276,-9.587,-9.6001,-9.6001,-9.6001,-9.6132,-9.6617,-9.6833,-9.7042,-9.694,-9.7896,-9.8723,-9.8745,-9.9201,-9.9696,-10.0215,-10.0215,-10.0252,-10.0565,-10.0881,-10.1384,-10.224,-10.2926,-10.3027,-10.2397,-10.2021,-10.1758,-10.1646,-10.1758,-10.2284,-10.2622,-10.3448,-10.4199,-10.4161,-10.4049,-10.4659,-10.5968,-10.6471,-10.6828,-10.8338,-10.9756,-11.042,-11.0905,-11.1438,-11.1765,-11.1935,-11.1883,-11.1612,-11.1495,-11.1456,-11.1297,-11.0727,-11.0263,-10.9731,-10.9359,-10.9232,-10.8811,-10.8587,-10.8104,-10.7781,-10.7948,-10.8307,-10.8542]},{"header":{"parameterUnit":"m.s-1","parameterCategory":1,"la1":31.0,"la2":29.5877,"lo1":-88.7671,"lo2":-86.6584,"dx":0.0162,"dy":0.0185,"nx":115,"ny":88,"refTime":"2022-11-12T06:00:00:Z","depth":0,"parameterNumber":3,"parameterNumberName":"V-component_of_WINDS"},"data":[0.0,0.0,0.0,0.0,0.0,0.0,0.0,0.0,0.0,0.0,0.0,0.0,0.0,0.0,0.0,0.0,0.0,0.0,0.0,0.0,0.0,0.0,0.0,0.0,0.0,0.0,0.0,0.0,0.0,0.0,0.0,0.0,0.0,0.0,0.0,0.0,0.0,0.0,0.0,0.0,0.0,0.0,0.0,0.0,0.0,0.0,0.0,0.0,0.0,0.0,0.0,0.0,0.0,0.0,0.0,0.0,0.0,0.0,0.0,0.0,0.0,0.0,0.0,0.0,0.0,0.0,0.0,0.0,0.0,0.0,0.0,0.0,0.0,0.0,0.0,0.0,0.0,0.0,0.0,0.0,0.0,0.0,0.0,0.0,0.0,0.0,0.0,0.0,0.0,0.0,0.0,0.0,0.0,0.0,0.0,0.0,0.0,0.0,0.0,0.0,0.0,0.0,0.0,0.0,0.0,0.0,0.0,0.0,0.0,0.0,0.0,0.0,0.0,0.0,0.0,0.0,0.0,0.0,0.0,0.0,0.0,0.0,0.0,0.0,0.0,0.0,0.0,0.0,0.0,0.0,0.0,0.0,0.0,0.0,0.0,0.0,0.0,0.0,0.0,0.0,0.0,0.0,0.0,0.0,0.0,0.0,0.0,0.0,0.0,0.0,0.0,0.0,0.0,0.0,0.0,0.0,0.0,0.0,0.0,0.0,0.0,0.0,0.0,0.0,0.0,0.0,0.0,0.0,0.0,0.0,0.0,0.0,0.0,0.0,0.0,0.0,0.0,0.0,0.0,0.0,0.0,0.0,0.0,0.0,0.0,0.0,0.0,0.0,0.0,0.0,0.0,0.0,0.0,0.0,0.0,0.0,0.0,0.0,0.0,0.0,0.0,0.0,0.0,0.0,0.0,0.0,0.0,0.0,0.0,0.0,0.0,0.0,0.0,0.0,0.0,0.0,0.0,0.0,0.0,0.0,0.0,0.0,0.0,0.0,0.0,0.0,0.0,0.0,0.0,0.0,0.0,0.0,0.0,0.0,0.0,0.0,0.0,0.0,0.0,0.0,0.0,0.0,0.0,0.0,0.0,0.0,0.0,0.0,0.0,0.0,0.0,0.0,0.0,0.0,0.0,0.0,0.0,0.0,0.0,0.0,0.0,0.0,0.0,0.0,0.0,0.0,0.0,0.0,0.0,0.0,0.0,0.0,0.0,0.0,0.0,0.0,0.0,0.0,0.0,0.0,0.0,0.0,0.0,0.0,0.0,0.0,0.0,0.0,0.0,0.0,0.0,0.0,0.0,0.0,0.0,0.0,0.0,0.0,0.0,0.0,0.0,0.0,0.0,0.0,0.0,0.0,0.0,0.0,0.0,0.0,0.0,0.0,0.0,0.0,0.0,0.0,0.0,0.0,0.0,0.0,0.0,0.0,0.0,0.0,0.0,0.0,0.0,0.0,0.0,0.0,0.0,0.0,0.0,0.0,0.0,0.0,0.0,0.0,0.0,0.0,0.0,0.0,0.0,0.0,0.0,0.0,0.0,0.0,0.0,0.0,0.0,0.0,0.0,0.0,0.0,0.0,0.0,0.0,0.0,0.0,0.0,0.0,0.0,0.0,0.0,0.0,0.0,0.0,0.0,0.0,0.0,0.0,0.0,0.0,0.0,0.0,0.0,0.0,0.0,0.0,0.0,0.0,0.0,0.0,0.0,0.0,0.0,0.0,0.0,0.0,0.0,0.0,0.0,0.0,0.0,0.0,0.0,0.0,0.0,0.0,0.0,0.0,0.0,0.0,0.0,0.0,0.0,0.0,0.0,0.0,0.0,0.0,0.0,0.0,0.0,0.0,0.0,0.0,0.0,0.0,0.0,0.0,0.0,0.0,0.0,0.0,0.0,0.0,0.0,0.0,0.0,0.0,0.0,0.0,0.0,0.0,0.0,0.0,0.0,0.0,0.0,0.0,0.0,0.0,0.0,0.0,0.0,0.0,0.0,0.0,0.0,0.0,0.0,0.0,0.0,0.0,0.0,0.0,0.0,0.0,0.0,0.0,0.0,0.0,0.0,0.0,0.0,0.0,0.0,0.0,0.0,0.0,0.0,0.0,0.0,0.0,0.0,0.0,0.0,0.0,0.0,0.0,0.0,0.0,0.0,0.0,0.0,0.0,0.0,0.0,0.0,0.0,0.0,0.0,0.0,0.0,0.0,0.0,0.0,0.0,0.0,0.0,0.0,0.0,0.0,0.0,0.0,0.0,0.0,0.0,0.0,0.0,0.0,0.0,0.0,0.0,0.0,0.0,0.0,0.0,0.0,0.0,0.0,0.0,0.0,0.0,0.0,0.0,0.0,0.0,0.0,0.0,0.0,0.0,0.0,0.0,0.0,0.0,0.0,0.0,0.0,0.0,0.0,0.0,0.0,0.0,0.0,0.0,0.0,0.0,0.0,0.0,0.0,0.0,0.0,0.0,0.0,0.0,0.0,0.0,0.0,0.0,0.0,0.0,0.0,0.0,0.0,0.0,0.0,0.0,0.0,0.0,0.0,0.0,0.0,0.0,0.0,0.0,0.0,0.0,0.0,0.0,0.0,0.0,0.0,0.0,0.0,0.0,0.0,0.0,0.0,0.0,0.0,0.0,0.0,0.0,0.0,0.0,0.0,0.0,0.0,0.0,0.0,0.0,0.0,0.0,0.0,0.0,0.0,0.0,0.0,0.0,0.0,0.0,0.0,0.0,0.0,0.0,0.0,0.0,0.0,0.0,0.0,0.0,0.0,0.0,0.0,0.0,0.0,0.0,0.0,0.0,0.0,0.0,0.0,0.0,0.0,0.0,0.0,0.0,0.0,0.0,0.0,0.0,0.0,0.0,0.0,0.0,0.0,0.0,0.0,0.0,0.0,0.0,0.0,0.0,0.0,0.0,0.0,0.0,0.0,0.0,0.0,0.0,0.0,0.0,0.0,0.0,0.0,0.0,0.0,0.0,0.0,0.0,0.0,0.0,0.0,0.0,0.0,0.0,0.0,0.0,0.0,0.0,0.0,0.0,0.0,0.0,0.0,0.0,0.0,0.0,0.0,0.0,0.0,0.0,0.0,0.0,0.0,0.0,0.0,0.0,0.0,0.0,0.0,0.0,0.0,0.0,0.0,0.0,0.0,0.0,0.0,0.0,0.0,0.0,0.0,0.0,0.0,0.0,0.0,0.0,0.0,0.0,0.0,0.0,0.0,0.0,0.0,0.0,0.0,0.0,0.0,0.0,0.0,0.0,0.0,0.0,0.0,0.0,0.0,0.0,0.0,0.0,0.0,0.0,0.0,0.0,0.0,0.0,0.0,0.0,0.0,0.0,0.0,0.0,0.0,0.0,0.0,0.0,0.0,0.0,0.0,0.0,0.0,0.0,0.0,0.0,0.0,0.0,0.0,0.0,0.0,0.0,0.0,0.0,0.0,0.0,0.0,0.0,0.0,0.0,0.0,0.0,0.0,0.0,0.0,0.0,0.0,0.0,0.0,0.0,0.0,0.0,0.0,0.0,0.0,0.0,0.0,0.0,0.0,0.0,0.0,0.0,0.0,0.0,0.0,0.0,0.0,0.0,0.0,0.0,0.0,0.0,0.0,0.0,0.0,0.0,0.0,0.0,0.0,0.0,0.0,0.0,0.0,0.0,0.0,0.0,0.0,0.0,0.0,0.0,0.0,0.0,0.0,0.0,0.0,0.0,0.0,0.0,0.0,0.0,0.0,0.0,0.0,0.0,0.0,0.0,0.0,0.0,0.0,0.0,0.0,0.0,0.0,0.0,0.0,0.0,0.0,0.0,0.0,0.0,0.0,0.0,0.0,0.0,0.0,0.0,0.0,0.0,0.0,0.0,0.0,0.0,0.0,0.0,0.0,0.0,0.0,0.0,0.0,0.0,0.0,0.0,0.0,0.0,0.0,0.0,0.0,0.0,0.0,0.0,0.0,0.0,0.0,0.0,0.0,0.0,0.0,0.0,0.0,0.0,0.0,0.0,0.0,0.0,0.0,0.0,0.0,0.0,0.0,0.0,0.0,0.0,0.0,0.0,0.0,0.0,0.0,0.0,0.0,0.0,0.0,0.0,0.0,0.0,0.0,0.0,0.0,0.0,0.0,0.0,0.0,0.0,0.0,0.0,0.0,0.0,0.0,0.0,0.0,0.0,0.0,0.0,0.0,0.0,0.0,0.0,0.0,0.0,0.0,0.0,0.0,0.0,0.0,0.0,0.0,0.0,0.0,0.0,0.0,0.0,4.0368,0.0,0.0,0.0,3.837,0.0,0.0,0.0,0.0,0.0,0.0,0.0,0.0,0.0,0.0,0.0,0.0,0.0,0.0,0.0,0.0,0.0,0.0,0.0,0.0,0.0,0.0,0.0,0.0,0.0,0.0,0.0,0.0,0.0,0.0,0.0,0.0,0.0,0.0,0.0,0.0,0.0,0.0,0.0,0.0,0.0,0.0,0.0,0.0,0.0,0.0,0.0,0.0,0.0,0.0,0.0,0.0,0.0,0.0,0.0,0.0,0.0,0.0,0.0,0.0,0.0,0.0,0.0,0.0,0.0,0.0,0.0,0.0,0.0,0.0,0.0,0.0,0.0,0.0,0.0,0.0,0.0,0.0,0.0,0.0,0.0,0.0,0.0,0.0,0.0,0.0,0.0,0.0,0.0,0.0,0.0,0.0,0.0,0.0,0.0,0.0,0.0,0.0,0.0,0.0,0.0,0.0,0.0,0.0,0.0,0.0,0.0,0.0,0.0,0.0,4.0411,3.9707,3.9252,3.8843,3.8517,0.0,0.0,0.0,0.0,0.0,0.0,0.0,0.0,0.0,0.0,0.0,0.0,0.0,0.0,0.0,0.0,0.0,0.0,0.0,0.0,0.0,0.0,0.0,0.0,0.0,0.0,0.0,0.0,0.0,0.0,0.0,0.0,0.0,0.0,0.0,0.0,0.0,0.0,0.0,0.0,0.0,0.0,0.0,0.0,0.0,0.0,0.0,0.0,0.0,0.0,0.0,0.0,0.0,0.0,0.0,0.0,0.0,0.0,0.0,0.0,0.0,0.0,0.0,0.0,0.0,0.0,0.0,0.0,0.0,0.0,0.0,0.0,0.0,0.0,0.0,0.0,0.0,0.0,0.0,0.0,0.0,0.0,0.0,0.0,0.0,0.0,0.0,0.0,0.0,0.0,0.0,0.0,0.0,0.0,0.0,0.0,0.0,0.0,0.0,0.0,0.0,0.0,0.0,0.0,0.0,0.0,0.0,0.0,0.0,0.0,0.0,0.0,3.9555,3.9244,3.8884,0.0,0.0,0.0,0.0,0.0,0.0,0.0,0.0,0.0,0.0,0.0,0.0,0.0,0.0,0.0,0.0,0.0,0.0,0.0,0.0,0.0,0.0,0.0,0.0,0.0,0.0,0.0,0.0,0.0,0.0,0.0,0.0,0.0,0.0,0.0,0.0,0.0,0.0,0.0,0.0,0.0,0.0,0.0,0.0,0.0,0.0,0.0,0.0,0.0,0.0,0.0,0.0,0.0,0.0,0.0,0.0,0.0,0.0,0.0,0.0,0.0,0.0,0.0,0.0,0.0,0.0,0.0,0.0,0.0,0.0,0.0,0.0,0.0,0.0,0.0,0.0,0.0,0.0,0.0,0.0,0.0,0.0,0.0,0.0,0.0,0.0,0.0,0.0,0.0,0.0,0.0,0.0,0.0,0.0,0.0,0.0,0.0,0.0,0.0,0.0,0.0,0.0,0.0,0.0,0.0,0.0,0.0,0.0,0.0,0.0,4.0008,3.8973,3.9668,0.0,3.909,0.0,0.0,0.0,0.0,0.0,0.0,0.0,0.0,0.0,0.0,0.0,0.0,0.0,0.0,0.0,0.0,0.0,0.0,0.0,0.0,0.0,0.0,0.0,0.0,0.0,0.0,0.0,0.0,0.0,0.0,0.0,0.0,0.0,0.0,0.0,0.0,0.0,0.0,0.0,0.0,0.0,0.0,0.0,0.0,0.0,0.0,0.0,0.0,0.0,0.0,0.0,0.0,0.0,0.0,0.0,0.0,0.0,0.0,0.0,0.0,0.0,0.0,0.0,0.0,0.0,0.0,0.0,0.0,0.0,0.0,0.0,0.0,0.0,0.0,0.0,0.0,0.0,0.0,0.0,0.0,0.0,0.0,0.0,0.0,0.0,0.0,0.0,0.0,0.0,0.0,0.0,0.0,0.0,0.0,0.0,0.0,0.0,0.0,0.0,0.0,0.0,0.0,0.0,0.0,0.0,0.0,0.0,0.0,0.0,0.0,4.0696,4.0203,4.0159,3.9668,0.0,0.0,0.0,0.0,0.0,0.0,0.0,0.0,0.0,0.0,0.0,0.0,0.0,0.0,0.0,0.0,0.0,0.0,0.0,0.0,0.0,0.0,0.0,0.0,0.0,0.0,0.0,0.0,0.0,0.0,0.0,0.0,0.0,0.0,0.0,0.0,0.0,0.0,0.0,0.0,0.0,0.0,0.0,0.0,0.0,0.0,0.0,0.0,0.0,0.0,0.0,0.0,0.0,0.0,0.0,0.0,0.0,0.0,0.0,0.0,0.0,0.0,0.0,0.0,0.0,0.0,0.0,0.0,0.0,0.0,0.0,0.0,0.0,0.0,0.0,0.0,0.0,0.0,0.0,0.0,0.0,0.0,0.0,0.0,0.0,0.0,0.0,0.0,0.0,0.0,0.0,0.0,0.0,0.0,0.0,0.0,0.0,0.0,0.0,0.0,0.0,0.0,0.0,0.0,0.0,0.0,0.0,0.0,0.0,0.0,4.1549,4.1776,4.1471,4.0816,4.0064,3.896,0.0,0.0,0.0,0.0,0.0,0.0,0.0,0.0,0.0,0.0,0.0,0.0,0.0,0.0,0.0,0.0,0.0,0.0,0.0,0.0,0.0,0.0,0.0,0.0,0.0,0.0,0.0,0.0,0.0,0.0,0.0,0.0,0.0,0.0,0.0,0.0,0.0,0.0,0.0,0.0,0.0,0.0,0.0,0.0,0.0,0.0,0.0,0.0,0.0,0.0,0.0,0.0,0.0,0.0,0.0,0.0,0.0,0.0,0.0,0.0,0.0,0.0,0.0,0.0,0.0,0.0,0.0,0.0,0.0,0.0,0.0,0.0,0.0,0.0,0.0,0.0,0.0,0.0,0.0,0.0,0.0,0.0,0.0,0.0,0.0,0.0,0.0,0.0,0.0,0.0,0.0,0.0,0.0,0.0,0.0,0.0,0.0,0.0,0.0,0.0,0.0,0.0,0.0,0.0,0.0,0.0,0.0,0.0,4.1555,4.2744,4.3046,4.2389,4.187,4.1138,0.0,0.0,0.0,0.0,0.0,0.0,0.0,0.0,0.0,0.0,0.0,0.0,0.0,0.0,0.0,0.0,0.0,0.0,0.0,0.0,0.0,0.0,0.0,0.0,0.0,0.0,0.0,0.0,0.0,0.0,0.0,0.0,0.0,0.0,0.0,0.0,0.0,0.0,0.0,0.0,0.0,0.0,0.0,0.0,0.0,0.0,0.0,0.0,0.0,0.0,0.0,0.0,0.0,0.0,0.0,0.0,0.0,0.0,0.0,0.0,0.0,0.0,0.0,0.0,0.0,0.0,0.0,0.0,0.0,0.0,0.0,0.0,0.0,0.0,0.0,0.0,0.0,0.0,0.0,0.0,0.0,0.0,0.0,0.0,0.0,0.0,0.0,0.0,0.0,0.0,0.0,0.0,0.0,0.0,0.0,0.0,0.0,0.0,0.0,0.0,0.0,0.0,0.0,0.0,0.0,0.0,0.0,0.0,0.0,4.2712,4.4013,4.4734,4.4772,4.3503,4.2349,0.0,0.0,0.0,0.0,0.0,0.0,0.0,0.0,0.0,0.0,0.0,0.0,0.0,0.0,0.0,0.0,0.0,0.0,0.0,0.0,0.0,0.0,0.0,0.0,0.0,0.0,0.0,0.0,0.0,0.0,0.0,0.0,0.0,0.0,0.0,0.0,0.0,0.0,0.0,0.0,0.0,0.0,0.0,0.0,0.0,0.0,0.0,0.0,0.0,0.0,0.0,0.0,0.0,0.0,0.0,0.0,0.0,0.0,0.0,0.0,0.0,0.0,0.0,0.0,0.0,0.0,0.0,0.0,0.0,0.0,0.0,0.0,0.0,0.0,0.0,0.0,0.0,0.0,0.0,0.0,0.0,0.0,0.0,0.0,0.0,0.0,0.0,0.0,0.0,0.0,0.0,0.0,0.0,0.0,0.0,0.0,0.0,0.0,0.0,0.0,0.0,0.0,0.0,0.0,0.0,0.0,0.0,0.0,0.0,4.4218,4.4899,4.5627,4.6098,4.4569,4.3287,0.0,0.0,0.0,0.0,0.0,0.0,0.0,0.0,0.0,0.0,0.0,0.0,0.0,0.0,0.0,0.0,0.0,0.0,0.0,0.0,0.0,0.0,0.0,0.0,0.0,0.0,0.0,0.0,0.0,0.0,0.0,0.0,0.0,0.0,0.0,0.0,0.0,0.0,0.0,0.0,0.0,0.0,0.0,0.0,0.0,0.0,0.0,0.0,0.0,0.0,0.0,0.0,0.0,0.0,0.0,0.0,0.0,0.0,0.0,0.0,0.0,0.0,0.0,0.0,0.0,0.0,0.0,0.0,0.0,0.0,0.0,0.0,0.0,0.0,0.0,0.0,0.0,0.0,0.0,0.0,0.0,0.0,0.0,0.0,0.0,0.0,0.0,0.0,0.0,0.0,0.0,0.0,0.0,0.0,0.0,0.0,0.0,0.0,0.0,0.0,0.0,0.0,0.0,0.0,0.0,0.0,0.0,0.0,4.4986,4.602,4.5667,4.5839,4.6272,4.5,4.4037,0.0,0.0,0.0,0.0,0.0,0.0,0.0,0.0,0.0,0.0,0.0,0.0,0.0,0.0,0.0,0.0,0.0,0.0,0.0,0.0,0.0,0.0,0.0,0.0,0.0,0.0,0.0,0.0,0.0,0.0,0.0,0.0,0.0,0.0,0.0,0.0,0.0,0.0,0.0,0.0,0.0,0.0,0.0,0.0,0.0,0.0,0.0,0.0,0.0,0.0,0.0,0.0,0.0,0.0,0.0,0.0,0.0,0.0,0.0,0.0,0.0,0.0,0.0,0.0,0.0,0.0,0.0,0.0,0.0,0.0,0.0,0.0,0.0,0.0,0.0,0.0,0.0,0.0,0.0,0.0,0.0,0.0,0.0,0.0,0.0,0.0,0.0,0.0,0.0,0.0,0.0,0.0,0.0,0.0,0.0,0.0,0.0,0.0,0.0,0.0,0.0,0.0,0.0,0.0,0.0,0.0,0.0,0.0,0.0,4.8542,4.7915,4.8157,4.9439,4.6823,4.5281,0.0,0.0,0.0,0.0,0.0,0.0,0.0,0.0,0.0,0.0,0.0,0.0,0.0,0.0,0.0,0.0,0.0,0.0,0.0,0.0,0.0,0.0,0.0,0.0,0.0,0.0,0.0,0.0,0.0,0.0,0.0,0.0,0.0,0.0,0.0,0.0,0.0,0.0,0.0,0.0,0.0,0.0,0.0,0.0,0.0,0.0,0.0,0.0,0.0,0.0,0.0,0.0,0.0,0.0,0.0,0.0,0.0,0.0,0.0,0.0,0.0,0.0,0.0,0.0,0.0,0.0,0.0,0.0,0.0,0.0,0.0,0.0,0.0,0.0,0.0,0.0,0.0,0.0,0.0,0.0,0.0,0.0,0.0,0.0,0.0,0.0,0.0,0.0,0.0,0.0,0.0,0.0,0.0,0.0,0.0,0.0,0.0,0.0,0.0,0.0,0.0,0.0,0.0,0.0,0.0,0.0,0.0,0.0,0.0,5.0008,4.8106,4.8172,5.0403,4.7382,4.5794,4.5707,0.0,0.0,0.0,0.0,0.0,0.0,0.0,0.0,0.0,0.0,0.0,0.0,0.0,0.0,0.0,0.0,0.0,0.0,0.0,0.0,0.0,0.0,0.0,0.0,0.0,0.0,0.0,0.0,0.0,0.0,0.0,0.0,0.0,0.0,0.0,0.0,0.0,0.0,0.0,0.0,0.0,0.0,0.0,0.0,0.0,0.0,0.0,0.0,0.0,0.0,0.0,0.0,0.0,0.0,0.0,0.0,0.0,0.0,0.0,0.0,0.0,0.0,0.0,0.0,0.0,0.0,0.0,0.0,0.0,0.0,0.0,0.0,0.0,0.0,0.0,0.0,0.0,0.0,0.0,0.0,0.0,0.0,0.0,0.0,0.0,0.0,0.0,0.0,0.0,0.0,0.0,0.0,0.0,0.0,0.0,0.0,0.0,0.0,0.0,0.0,0.0,0.0,0.0,0.0,0.0,0.0,0.0,0.0,5.0886,4.6951,4.6405,4.9344,4.7139,4.5858,0.0,0.0,0.0,0.0,0.0,0.0,0.0,0.0,0.0,0.0,0.0,0.0,0.0,0.0,0.0,0.0,0.0,0.0,0.0,0.0,0.0,0.0,0.0,0.0,0.0,0.0,0.0,0.0,0.0,0.0,0.0,0.0,0.0,0.0,0.0,0.0,0.0,0.0,0.0,0.0,0.0,0.0,0.0,0.0,0.0,0.0,0.0,0.0,0.0,0.0,0.0,0.0,0.0,0.0,0.0,0.0,0.0,0.0,0.0,0.0,0.0,0.0,0.0,0.0,0.0,0.0,0.0,0.0,0.0,0.0,0.0,0.0,0.0,0.0,0.0,0.0,0.0,0.0,0.0,0.0,0.0,0.0,0.0,0.0,0.0,0.0,0.0,0.0,0.0,0.0,0.0,0.0,0.0,0.0,0.0,0.0,0.0,0.0,0.0,0.0,0.0,0.0,0.0,0.0,0.0,0.0,0.0,0.0,0.0,5.0207,4.8332,4.8247,5.0191,4.8702,4.69,0.0,0.0,0.0,0.0,0.0,0.0,0.0,0.0,0.0,0.0,0.0,0.0,0.0,0.0,0.0,0.0,0.0,0.0,0.0,0.0,0.0,0.0,0.0,0.0,0.0,0.0,0.0,0.0,0.0,0.0,0.0,0.0,0.0,0.0,0.0,0.0,0.0,0.0,0.0,0.0,0.0,0.0,0.0,0.0,0.0,0.0,0.0,0.0,0.0,0.0,0.0,0.0,0.0,0.0,0.0,0.0,0.0,0.0,0.0,0.0,0.0,0.0,0.0,0.0,0.0,0.0,0.0,0.0,0.0,0.0,0.0,0.0,0.0,0.0,0.0,0.0,0.0,0.0,0.0,0.0,0.0,0.0,0.0,0.0,0.0,0.0,0.0,0.0,0.0,0.0,0.0,0.0,0.0,0.0,0.0,0.0,0.0,0.0,0.0,0.0,0.0,0.0,0.0,0.0,0.0,0.0,0.0,0.0,4.8294,4.9638,4.8915,4.8651,4.9225,4.8493,4.7117,0.0,0.0,0.0,0.0,0.0,0.0,0.0,0.0,0.0,0.0,0.0,0.0,0.0,0.0,0.0,0.0,0.0,0.0,0.0,0.0,0.0,0.0,0.0,0.0,0.0,0.0,0.0,0.0,0.0,0.0,0.0,0.0,0.0,0.0,0.0,0.0,0.0,0.0,0.0,0.0,0.0,0.0,0.0,0.0,0.0,0.0,0.0,0.0,0.0,0.0,0.0,0.0,0.0,0.0,0.0,0.0,0.0,0.0,0.0,0.0,0.0,0.0,0.0,0.0,0.0,0.0,0.0,0.0,0.0,0.0,0.0,0.0,0.0,0.0,0.0,0.0,0.0,0.0,0.0,0.0,0.0,0.0,0.0,0.0,0.0,0.0,0.0,0.0,0.0,0.0,0.0,0.0,0.0,0.0,0.0,0.0,0.0,0.0,0.0,0.0,0.0,0.0,0.0,0.0,0.0,0.0,0.0,0.0,4.8727,4.8904,4.8956,4.8433,4.7424,4.7334,4.6841,0.0,0.0,0.0,0.0,0.0,0.0,0.0,0.0,0.0,0.0,0.0,0.0,0.0,0.0,0.0,0.0,0.0,0.0,0.0,0.0,0.0,0.0,0.0,0.0,0.0,0.0,0.0,0.0,0.0,0.0,0.0,0.0,0.0,0.0,0.0,0.0,0.0,0.0,0.0,0.0,0.0,0.0,0.0,0.0,0.0,0.0,0.0,0.0,0.0,0.0,0.0,0.0,0.0,0.0,0.0,0.0,0.0,0.0,0.0,0.0,0.0,0.0,0.0,0.0,0.0,0.0,0.0,0.0,0.0,0.0,0.0,0.0,0.0,0.0,0.0,0.0,0.0,0.0,0.0,0.0,0.0,0.0,0.0,0.0,0.0,0.0,0.0,0.0,0.0,0.0,0.0,0.0,0.0,0.0,0.0,0.0,0.0,0.0,0.0,0.0,0.0,0.0,0.0,0.0,0.0,0.0,0.0,0.0,4.8558,4.8904,4.8956,4.8616,4.7911,4.7622,4.6743,0.0,0.0,0.0,0.0,0.0,0.0,0.0,0.0,0.0,0.0,0.0,0.0,0.0,0.0,0.0,0.0,0.0,0.0,0.0,0.0,0.0,0.0,0.0,0.0,0.0,0.0,0.0,0.0,0.0,0.0,0.0,0.0,0.0,0.0,0.0,0.0,0.0,0.0,0.0,0.0,0.0,0.0,0.0,0.0,0.0,0.0,0.0,0.0,4.4181,0.0,0.0,0.0,0.0,0.0,0.0,0.0,0.0,0.0,0.0,0.0,0.0,0.0,0.0,0.0,0.0,0.0,0.0,0.0,0.0,0.0,0.0,0.0,0.0,0.0,0.0,0.0,0.0,0.0,0.0,0.0,0.0,0.0,0.0,0.0,0.0,0.0,0.0,0.0,0.0,0.0,0.0,0.0,0.0,0.0,0.0,0.0,0.0,0.0,0.0,0.0,0.0,0.0,0.0,0.0,0.0,0.0,0.0,0.0,4.8392,4.7478,4.8141,4.8025,4.7324,4.683,4.5922,0.0,0.0,0.0,0.0,0.0,0.0,0.0,0.0,0.0,0.0,0.0,0.0,0.0,0.0,0.0,0.0,0.0,0.0,0.0,0.0,0.0,0.0,0.0,0.0,0.0,0.0,0.0,0.0,0.0,0.0,0.0,0.0,0.0,0.0,0.0,0.0,0.0,0.0,0.0,0.0,0.0,0.0,0.0,0.0,0.0,0.0,0.0,0.0,0.0,0.0,0.0,0.0,0.0,0.0,0.0,0.0,0.0,0.0,0.0,0.0,0.0,0.0,0.0,0.0,0.0,0.0,0.0,0.0,0.0,0.0,0.0,0.0,0.0,0.0,0.0,0.0,0.0,0.0,0.0,0.0,0.0,0.0,0.0,0.0,0.0,0.0,0.0,0.0,0.0,0.0,0.0,0.0,0.0,0.0,0.0,0.0,0.0,0.0,0.0,0.0,0.0,0.0,0.0,0.0,0.0,0.0,0.0,4.8551,4.8115,4.6038,4.7156,4.7431,4.6476,4.5824,4.5132,4.4309,0.0,0.0,0.0,0.0,0.0,0.0,0.0,0.0,0.0,0.0,0.0,0.0,0.0,0.0,0.0,0.0,0.0,0.0,0.0,0.0,0.0,0.0,0.0,0.0,0.0,0.0,0.0,0.0,0.0,0.0,0.0,0.0,0.0,0.0,0.0,0.0,0.0,0.0,4.26,4.3582,0.0,0.0,0.0,0.0,0.0,0.0,0.0,0.0,4.4498,0.0,0.0,0.0,0.0,0.0,0.0,0.0,0.0,0.0,0.0,0.0,0.0,0.0,0.0,0.0,0.0,0.0,0.0,0.0,0.0,0.0,0.0,0.0,0.0,0.0,0.0,0.0,0.0,0.0,0.0,0.0,0.0,0.0,0.0,0.0,0.0,0.0,0.0,0.0,0.0,0.0,0.0,0.0,0.0,0.0,0.0,0.0,0.0,0.0,0.0,0.0,0.0,0.0,0.0,0.0,0.0,4.6259,4.8549,4.8455,4.6049,4.7227,4.7631,4.7004,4.6024,4.4991,4.3991,0.0,0.0,0.0,0.0,0.0,0.0,0.0,0.0,0.0,0.0,0.0,0.0,0.0,0.0,0.0,0.0,0.0,0.0,0.0,0.0,0.0,0.0,0.0,0.0,0.0,0.0,0.0,0.0,0.0,0.0,0.0,0.0,0.0,0.0,0.0,0.0,0.0,0.0,0.0,4.6208,4.6991,0.0,0.0,0.0,0.0,0.0,0.0,0.0,0.0,4.5109,0.0,0.0,0.0,0.0,0.0,0.0,0.0,0.0,0.0,0.0,0.0,0.0,0.0,0.0,0.0,0.0,0.0,0.0,0.0,0.0,0.0,0.0,0.0,0.0,0.0,0.0,0.0,0.0,0.0,0.0,0.0,0.0,0.0,0.0,0.0,0.0,0.0,0.0,0.0,0.0,0.0,0.0,0.0,0.0,0.0,0.0,0.0,0.0,0.0,0.0,0.0,0.0,0.0,0.0,0.0,4.4792,4.5779,4.561,4.412,4.5029,4.5438,4.5326,4.5085,4.4215,0.0,0.0,0.0,0.0,0.0,0.0,0.0,0.0,0.0,0.0,0.0,0.0,0.0,0.0,0.0,0.0,0.0,0.0,0.0,0.0,0.0,0.0,0.0,0.0,0.0,0.0,0.0,0.0,0.0,0.0,0.0,0.0,0.0,0.0,0.0,0.0,0.0,0.0,0.0,0.0,4.7374,4.7847,4.6509,0.0,0.0,0.0,0.0,0.0,0.0,4.6863,4.6546,0.0,0.0,0.0,0.0,0.0,0.0,0.0,0.0,0.0,0.0,0.0,0.0,0.0,0.0,0.0,0.0,0.0,0.0,0.0,0.0,0.0,0.0,0.0,0.0,0.0,0.0,0.0,0.0,0.0,0.0,0.0,0.0,0.0,0.0,0.0,0.0,0.0,0.0,0.0,0.0,0.0,0.0,0.0,0.0,0.0,0.0,0.0,0.0,0.0,0.0,0.0,0.0,0.0,0.0,0.0,4.2732,4.2677,4.2189,4.1347,4.207,4.2792,4.3015,4.3229,4.2803,0.0,0.0,0.0,0.0,0.0,0.0,0.0,0.0,0.0,0.0,0.0,0.0,0.0,0.0,0.0,0.0,0.0,0.0,0.0,0.0,0.0,0.0,0.0,0.0,0.0,0.0,0.0,0.0,0.0,0.0,0.0,0.0,0.0,0.0,0.0,0.0,0.0,0.0,0.0,0.0,0.0,4.7916,4.6892,4.7882,0.0,0.0,0.0,0.0,4.877,4.8061,0.0,0.0,0.0,0.0,0.0,0.0,0.0,0.0,0.0,0.0,0.0,0.0,0.0,0.0,0.0,0.0,0.0,0.0,0.0,0.0,0.0,0.0,0.0,0.0,0.0,0.0,0.0,0.0,0.0,0.0,0.0,0.0,0.0,0.0,0.0,0.0,0.0,0.0,0.0,0.0,0.0,0.0,0.0,0.0,0.0,0.0,0.0,0.0,0.0,0.0,0.0,0.0,0.0,0.0,0.0,0.0,4.0434,4.0468,3.9593,3.7849,3.961,4.0758,4.0985,4.0399,4.0278,0.0,0.0,0.0,0.0,0.0,0.0,0.0,0.0,0.0,0.0,0.0,0.0,0.0,0.0,0.0,0.0,0.0,0.0,0.0,0.0,0.0,0.0,0.0,0.0,0.0,0.0,0.0,0.0,0.0,0.0,0.0,0.0,0.0,0.0,0.0,0.0,0.0,0.0,0.0,0.0,0.0,4.8016,4.6204,4.7967,4.8725,0.0,0.0,4.8813,4.8086,4.7841,0.0,0.0,0.0,0.0,0.0,0.0,0.0,0.0,0.0,0.0,0.0,0.0,0.0,0.0,0.0,0.0,0.0,0.0,0.0,0.0,0.0,0.0,0.0,0.0,0.0,0.0,0.0,0.0,0.0,0.0,0.0,0.0,0.0,0.0,0.0,0.0,0.0,0.0,0.0,0.0,0.0,0.0,0.0,0.0,0.0,0.0,0.0,0.0,0.0,0.0,0.0,0.0,0.0,0.0,0.0,3.7695,3.7909,3.6257,3.5569,3.6156,3.6551,3.65,3.6014,3.5887,3.6048,0.0,0.0,0.0,0.0,0.0,0.0,0.0,0.0,0.0,0.0,0.0,0.0,0.0,0.0,0.0,0.0,0.0,0.0,0.0,0.0,0.0,0.0,0.0,0.0,0.0,0.0,0.0,0.0,0.0,0.0,0.0,0.0,0.0,0.0,0.0,0.0,0.0,0.0,0.0,0.0,0.0,0.0,4.6729,4.7663,0.0,0.0,0.0,4.9498,4.9891,0.0,0.0,0.0,0.0,0.0,0.0,0.0,0.0,0.0,0.0,0.0,0.0,0.0,0.0,0.0,0.0,0.0,0.0,0.0,0.0,0.0,0.0,0.0,0.0,0.0,0.0,0.0,0.0,0.0,0.0,0.0,0.0,0.0,0.0,0.0,0.0,0.0,0.0,0.0,0.0,0.0,0.0,0.0,0.0,0.0,0.0,0.0,0.0,0.0,0.0,0.0,0.0,0.0,0.0,0.0,0.0,0.0,3.5335,3.1694,3.079,3.271,3.2358,3.1678,3.093,3.107,0.0,0.0,0.0,0.0,0.0,0.0,0.0,0.0,0.0,0.0,0.0,0.0,0.0,0.0,0.0,0.0,0.0,0.0,0.0,0.0,0.0,0.0,0.0,0.0,0.0,0.0,0.0,3.2011,0.0,0.0,0.0,0.0,0.0,0.0,0.0,0.0,0.0,0.0,0.0,0.0,0.0,0.0,4.6602,4.6538,4.6638,4.6836,0.0,0.0,4.8781,4.977,4.8786,4.8224,0.0,0.0,0.0,0.0,0.0,0.0,0.0,0.0,0.0,0.0,0.0,0.0,0.0,0.0,0.0,0.0,0.0,0.0,0.0,0.0,0.0,0.0,0.0,0.0,0.0,0.0,0.0,0.0,0.0,0.0,0.0,0.0,0.0,0.0,0.0,0.0,0.0,0.0,0.0,0.0,0.0,0.0,0.0,0.0,0.0,0.0,0.0,0.0,0.0,0.0,0.0,0.0,0.0,0.0,3.1443,3.2245,2.7242,2.48,2.5375,2.6082,2.6517,2.6773,2.6364,2.8058,0.0,0.0,0.0,0.0,0.0,0.0,0.0,0.0,0.0,0.0,0.0,0.0,0.0,0.0,0.0,0.0,0.0,0.0,0.0,0.0,0.0,0.0,0.0,0.0,0.0,0.0,0.0,0.0,0.0,0.0,0.0,0.0,0.0,0.0,0.0,0.0,0.0,0.0,0.0,0.0,0.0,4.614,4.4199,4.4687,4.4666,0.0,0.0,4.5158,4.5029,4.5663,4.6365,4.7184,0.0,0.0,0.0,0.0,0.0,0.0,0.0,0.0,0.0,0.0,0.0,0.0,0.0,0.0,0.0,0.0,0.0,0.0,0.0,0.0,0.0,0.0,0.0,0.0,0.0,0.0,0.0,0.0,0.0,0.0,0.0,0.0,0.0,0.0,0.0,0.0,0.0,0.0,0.0,0.0,0.0,0.0,0.0,0.0,0.0,0.0,0.0,0.0,0.0,0.0,0.0,0.0,0.0,2.6907,2.9003,2.2168,1.9174,2.0478,2.0691,2.0331,1.9298,1.9056,1.9699,0.0,0.0,0.0,0.0,0.0,0.0,0.0,0.0,0.0,0.0,0.0,0.0,0.0,0.0,0.0,0.0,0.0,0.0,0.0,0.0,0.0,0.0,0.0,0.0,0.0,0.0,0.0,0.0,3.3266,3.4406,3.7612,0.0,0.0,0.0,0.0,0.0,0.0,0.0,0.0,0.0,0.0,4.4833,4.4343,4.455,0.0,0.0,4.5414,4.6194,4.6469,4.7027,4.7488,4.8244,4.8736,0.0,0.0,0.0,0.0,0.0,0.0,0.0,0.0,0.0,0.0,0.0,0.0,0.0,0.0,0.0,0.0,0.0,0.0,0.0,0.0,0.0,0.0,0.0,0.0,0.0,0.0,0.0,0.0,0.0,0.0,0.0,0.0,0.0,0.0,0.0,0.0,0.0,0.0,0.0,0.0,0.0,0.0,0.0,0.0,0.0,0.0,0.0,0.0,0.0,0.0,0.0,0.0,2.23,2.4957,1.713,1.3686,1.4902,1.5002,1.4222,1.2917,1.2624,1.3078,0.0,0.0,0.0,0.0,0.0,0.0,0.0,0.0,0.0,0.0,0.0,0.0,0.0,0.0,0.0,0.0,0.0,0.0,0.0,0.0,0.0,0.0,0.0,0.0,0.0,0.0,0.0,0.0,3.4235,3.5636,3.7313,0.0,0.0,0.0,0.0,0.0,0.0,0.0,0.0,0.0,0.0,4.4176,4.4373,4.4804,4.5212,4.5224,4.6489,4.726,4.6935,4.7454,4.794,4.8074,0.0,0.0,0.0,0.0,0.0,0.0,0.0,0.0,0.0,0.0,0.0,0.0,0.0,0.0,0.0,0.0,0.0,0.0,0.0,0.0,0.0,0.0,0.0,0.0,0.0,0.0,0.0,-2.0473,0.0,0.0,-1.9394,0.0,0.0,0.0,0.0,0.0,0.0,0.0,0.0,0.0,0.0,0.0,0.0,0.0,0.0,0.0,0.0,0.0,0.0,0.0,0.0,0.0,0.0,1.8339,2.0255,1.2445,0.8387,0.8395,0.8269,0.8269,0.8383,0.8146,0.9356,1.2318,0.0,0.0,0.0,0.0,0.0,0.0,0.0,0.0,0.0,0.0,0.0,0.0,0.0,0.0,0.0,0.0,0.0,0.0,0.0,0.0,0.0,0.0,0.0,0.0,0.0,0.0,3.377,3.6382,3.7885,0.0,0.0,0.0,0.0,0.0,0.0,0.0,0.0,0.0,0.0,4.5002,4.4538,4.37,4.5018,4.5614,4.4715,4.676,4.7705,4.5399,4.6359,4.711,0.0,0.0,0.0,0.0,0.0,0.0,0.0,0.0,0.0,0.0,0.0,0.0,0.0,0.0,0.0,0.0,0.0,0.0,0.0,0.0,0.0,0.0,0.0,0.0,0.0,0.0,0.0,-4.5625,-4.3162,0.0,0.0,0.0,0.0,0.0,0.0,0.0,0.0,0.0,0.0,0.0,-3.5557,-3.5202,0.0,0.0,0.0,0.0,0.0,0.0,0.0,0.0,0.0,0.0,0.0,0.0,1.468,1.6119,0.7977,0.3718,0.3769,0.3753,0.3575,0.359,0.3501,0.4542,0.6835,0.0,0.0,0.0,0.0,0.0,0.0,0.0,0.0,0.0,0.0,0.0,0.0,0.0,0.0,0.0,0.0,0.0,0.0,0.0,0.0,0.0,0.0,0.0,0.0,0.0,3.3518,0.0,0.0,0.0,0.0,0.0,0.0,0.0,0.0,0.0,0.0,0.0,4.3681,4.3763,4.3074,4.2843,4.3859,4.366,4.382,0.0,0.0,0.0,0.0,0.0,0.0,0.0,0.0,0.0,0.0,0.0,0.0,0.0,0.0,4.2864,4.4248,4.53,4.5629,4.5208,0.0,0.0,0.0,0.0,0.0,0.0,0.0,0.0,0.0,0.0,0.0,0.0,0.0,0.0,-5.6412,0.0,-5.5668,0.0,0.0,0.0,0.0,0.0,0.0,0.0,0.0,-4.9638,-5.0623,-4.8177,-4.7314,-4.4036,0.0,-3.3301,-2.5533,0.0,0.0,0.0,0.0,0.0,0.0,0.0,0.0,0.7645,0.7762,0.12,-0.2316,-0.2348,-0.2186,-0.2191,-0.2181,-0.2303,-0.1535,-0.0162,0.079,0.1999,0.0,0.0,0.0,0.0,0.0,0.0,0.0,0.0,0.0,0.0,0.0,0.0,0.0,0.0,0.0,0.0,0.0,0.0,0.0,0.0,0.0,0.0,0.0,3.2777,0.0,0.0,0.0,0.0,0.0,0.0,0.0,0.0,0.0,3.8171,4.0147,4.1574,4.1541,4.1254,4.1305,4.2659,0.0,0.0,0.0,0.0,0.0,0.0,0.0,4.5369,4.4882,4.6139,4.6768,4.555,4.4884,4.4331,4.4039,0.0,0.0,4.4302,4.5142,4.5554,4.5134,4.507,4.5095,4.5274,4.587,4.6378,0.0,0.0,0.0,0.0,0.0,0.0,0.0,0.0,-6.0229,-5.9991,0.0,-5.9138,0.0,0.0,0.0,0.0,0.0,-4.8734,0.0,0.0,-5.6549,-5.7618,-5.669,-5.6676,-5.6251,-5.5066,-5.0255,-4.4792,-3.8293,-2.2859,0.0,0.0,0.0,0.0,0.0,0.0,-0.2656,-0.4631,-0.7822,-0.9464,-0.9299,-0.9123,-0.8995,-0.8726,-0.882,-0.8582,-0.8052,-0.2433,0.0315,-0.0919,0.7084,0.0,0.0,0.0,0.0,0.0,0.0,0.0,0.0,0.0,0.0,0.0,0.0,0.0,0.0,0.0,0.0,0.0,0.0,0.0,0.0,2.8623,0.0,0.0,0.0,0.0,0.0,0.0,0.0,0.0,0.0,0.0,3.3415,3.709,3.9807,3.9556,0.0,0.0,0.0,0.0,4.2497,4.1615,4.3645,4.4769,4.3884,4.3234,4.3235,4.3948,0.0,0.0,3.9102,4.0782,4.226,4.2359,4.392,4.503,4.3297,4.4315,4.4988,4.3996,4.5531,4.6381,4.472,4.5147,4.5702,-6.6958,0.0,0.0,0.0,0.0,-6.2258,-6.3417,-6.5392,-6.4926,-6.4527,-6.4234,-6.3222,0.0,0.0,0.0,0.0,0.0,0.0,-5.1657,-5.4111,-5.5283,-5.6514,-5.7669,-5.6737,-5.5603,-5.4127,-5.2778,-4.9722,-4.5105,-4.0371,-2.7656,-0.7876,0.0,0.0,0.0,0.0,-0.916,-0.8702,-1.1886,-1.3154,-1.2039,-1.2002,-1.1361,-1.0123,-1.1125,-1.1563,-1.1147,-0.935,-0.7637,-0.5846,-0.1677,0.0,0.0,0.0,0.0,0.0,0.0,0.0,0.0,0.0,0.0,0.0,0.0,0.0,0.0,0.0,0.0,0.0,0.0,0.0,3.1202,3.0369,3.0048,0.0,0.0,0.0,0.0,0.0,0.0,0.0,0.0,0.0,3.373,3.5754,3.7777,0.0,0.0,3.8636,4.1155,4.0134,3.9514,4.0663,4.0324,0.0,4.1283,4.1141,4.0176,3.7849,3.8885,3.9949,3.996,4.0726,4.1215,4.1348,4.1896,4.2744,4.4434,4.4362,4.4632,4.5685,4.6838,4.7241,4.6413,4.656,4.6922,-7.3316,-7.0298,-6.7463,-6.6618,-6.7199,-6.698,-6.7987,-6.9741,-6.9355,-6.876,-6.803,-6.7133,-6.4858,-6.1475,-5.732,0.0,0.0,0.0,-5.3798,-5.5645,-5.5418,-5.5822,-5.6373,-5.506,-5.3894,-5.2751,-5.1246,-4.9593,-4.8011,-4.684,-3.793,-2.2165,0.0,0.0,-1.2166,-1.5522,-1.7207,-1.6922,-1.839,-1.8488,-1.6719,-1.6884,-1.6308,-1.5336,-1.622,-1.6103,-1.4858,-1.4138,-1.2451,-0.9562,-0.6945,-0.3839,0.0,0.0,0.0,0.0,0.0,0.0,0.0,0.0,0.0,0.0,0.0,1.7161,1.896,0.0,0.0,0.0,2.4467,2.6357,2.8236,2.7339,0.0,0.0,0.0,0.0,0.0,0.0,0.0,3.5179,3.489,3.4334,3.3784,3.429,3.532,3.695,3.6199,3.6464,3.8399,0.0,3.6298,3.7375,3.6837,3.6653,3.7911,3.8035,3.7121,3.4967,3.6342,3.7875,3.8217,3.9088,4.0061,4.0445,4.1034,4.2619,4.5373,4.6068,4.6575,4.7691,4.8379,4.8504,4.7797,4.7589,4.7402,-7.8325,-7.7603,-7.2238,-7.0772,-7.2052,-7.19,-7.2351,-7.3255,-7.3168,-7.2357,-7.0995,-7.0397,-6.8306,-6.4863,-6.0207,0.0,-5.8842,-5.7626,-5.7315,-5.7851,-5.6823,-5.5546,-5.4305,-5.2751,-5.1873,-5.1582,-4.7877,-4.6951,-4.8329,-4.5749,-4.2852,-3.9844,-3.6026,-3.2266,-2.8561,-2.6255,-2.6198,-2.7861,-2.6398,-2.4858,-2.3228,-2.2747,-2.2604,-2.2594,-2.2584,-2.1383,-1.9232,-1.738,-1.5436,-1.2913,-0.9936,-0.7433,-0.5422,0.0,0.0,0.0,0.0,0.0,0.0,0.0,0.0,0.0,0.0,0.0,0.0,0.0,0.0,2.0414,2.0823,0.0,2.1763,2.1763,0.0,0.0,0.0,2.7675,2.805,3.0126,3.2393,3.5285,0.0,0.0,3.3258,3.2943,3.2943,3.3358,3.3772,3.3713,3.3511,3.354,3.3205,3.3596,3.361,3.4102,3.4871,3.4856,3.472,3.4256,3.4285,3.4729,3.5329,3.7071,3.874,3.9145,4.1069,4.3129,4.5694,4.7761,4.9673,4.8627,4.9272,4.9616,4.8454,4.7704,4.6804,-7.9647,-7.8834,-7.7083,-7.6057,-7.5494,-7.515,-7.5002,-7.4985,-7.3914,-7.3137,-7.2481,-7.0713,-6.8646,-6.6438,-6.4374,-6.3545,-6.3451,-6.0524,-5.9757,-6.0387,-5.794,-5.6347,-5.5604,-5.4646,-5.3288,-5.1656,-5.0616,-4.9745,-4.8974,-4.8236,-4.7477,-4.6706,-4.487,-3.9817,-3.1864,-3.288,-3.3258,-3.26,-3.2402,-3.1568,-3.0082,-2.7214,-2.5681,-2.5681,-2.4283,-2.3157,-2.2454,-2.1587,-2.0848,-1.9923,-1.7234,-1.4708,-1.2807,-0.8238,0.0,0.0,0.0,0.0,0.0,0.0,0.0,0.0,0.0,1.3783,1.694,0.0,1.9409,0.0,1.9578,2.0993,2.3603,2.3056,0.0,0.0,2.6016,2.7367,2.4986,2.7321,2.9636,3.0581,3.0478,3.0117,2.9822,3.1665,3.3149,3.3007,3.3275,3.3628,3.467,3.4147,3.3513,3.3513,3.3695,3.4027,3.4049,3.3941,3.3901,3.4017,3.4784,3.5295,3.5485,3.6401,3.7207,3.7806,3.8241,3.9611,4.2053,4.4893,4.6182,4.5354,4.5962,4.7187,4.7583,4.6307,4.4706,-8.1014,-8.0834,-8.0414,-8.0067,-7.9609,-7.7737,-7.6715,-7.6338,-7.5312,-7.4549,-7.385,-7.1756,-7.0193,-6.905,-6.7148,-6.6255,-6.5898,-6.3471,-6.2032,-6.1439,-6.0042,-5.8352,-5.6306,-5.5432,-5.406,-5.2211,-5.1609,-5.091,-5.0049,-5.0007,-4.9984,-4.9901,-4.8643,-4.5439,-4.061,-3.9962,-3.8075,-3.4661,-3.5168,-3.4735,-3.3115,-3.0984,-2.9515,-2.8885,-2.7292,-2.6198,-2.5431,-2.4783,-2.3653,-2.1566,-1.9147,-1.7268,-1.5924,-1.1679,-0.8792,0.0,0.0,0.0,0.0,0.0,0.0,0.0,0.0,0.0,0.0,0.0,1.6811,1.8772,1.8299,1.9122,2.2568,2.1292,2.0715,2.1204,2.3065,2.3622,2.1949,2.4316,2.6071,2.6582,2.7404,2.7652,2.7083,2.8318,2.9608,3.0088,3.0383,3.1218,3.3281,3.3303,3.2654,3.2681,3.312,3.3712,3.3835,3.3886,3.395,3.4374,3.4938,3.5657,3.5866,3.6261,3.6795,3.7007,3.7007,3.7765,4.0255,4.1062,4.1975,4.3397,4.2207,4.2145,4.5013,4.4696,4.3449,-8.2187,-8.2574,-8.2293,-8.2516,-8.2836,-7.9473,-7.7908,-7.7609,-7.6788,-7.5882,-7.4811,-7.3067,-7.2084,-7.1626,-6.8895,-6.7516,-6.7237,-6.5596,-6.3624,-6.1747,-6.2073,-6.0282,-5.6928,-5.5816,-5.457,-5.3011,-5.1828,-5.1278,-5.1389,-5.1334,-5.1358,-5.1483,-5.0214,-4.9688,-4.9786,-4.6374,-4.1752,-3.614,-3.6625,-3.6257,-3.4844,-3.3983,-3.3027,-3.1762,-3.0556,-2.9299,-2.8037,-2.7398,-2.5275,-2.1636,-1.9479,-1.8163,-1.7324,-1.4354,-1.2014,0.0,-0.7154,0.0,0.0,0.0,0.0,0.0,0.0,0.0,0.0,1.1459,1.405,1.7845,1.6596,1.6649,1.9346,1.8107,1.7887,1.9182,1.9217,1.9437,1.9894,2.1291,2.2506,2.2902,2.4335,2.5061,2.4716,2.4365,2.5035,2.6431,2.6829,2.8043,3.0818,3.1495,3.1606,3.181,3.2435,3.316,3.3727,3.3935,3.4073,3.4488,3.5147,3.5572,3.5977,3.6495,3.6744,3.6744,3.6773,3.7536,3.9605,3.8154,3.821,4.2048,3.8894,3.7177,4.1499,4.253,4.2012,-8.2545,-8.1475,-8.1566,-8.1077,-8.0102,-7.9214,-7.9105,-7.9547,-7.7663,-7.5877,-7.4456,-7.4031,-7.2961,-7.1388,-6.9993,-6.8744,-6.7746,-6.4663,-6.3117,-6.2888,-6.1128,-5.9697,-5.8447,-5.7087,-5.5792,-5.4476,-5.3012,-5.2518,-5.2941,-5.2988,-5.3199,-5.3599,-5.3576,-5.2101,-4.9211,0.0,0.0,0.0,-4.0126,-3.9339,-3.8873,-3.5923,-3.4052,-3.3455,-3.1511,0.0,-2.9427,-2.9126,-2.8419,-2.7371,-2.4046,0.0,0.0,0.0,0.0,0.0,0.0,0.0,0.0,0.0,0.0,0.0,0.2671,0.4951,0.9492,1.06,1.1933,1.3952,1.3795,1.3814,1.4624,1.5888,1.6979,1.7499,1.897,2.0017,1.9982,2.0061,1.9993,1.9688,2.1138,2.2047,2.1828,2.3043,2.4085,2.466,2.4566,2.5539,2.7926,2.971,3.1037,3.1842,3.2536,3.3009,3.309,3.3307,3.3574,3.3754,3.4759,3.5677,3.596,3.6792,3.7373,3.7373,3.7387,3.7574,3.8164,3.7241,3.6992,3.8022,3.6743,3.6504,4.005,3.9566,3.8264,-8.3182,0.0,-8.276,-8.2395,0.0,-8.0817,-8.043,-8.0376,-7.8467,-7.6944,-7.5672,-7.5288,-7.4479,-7.3438,-7.1765,-7.0717,-7.004,-6.7194,-6.5403,-6.4484,-6.3336,-6.1775,-5.9766,-5.8929,-5.794,-5.6649,-5.5288,-5.4835,-5.5151,-5.4549,-5.4527,-5.4788,-5.4944,-5.4187,-5.2514,-5.0954,-4.8042,-4.3702,-4.2443,-4.1468,-4.0449,-3.8512,-3.661,-3.483,-3.3131,0.0,0.0,0.0,0.0,0.0,0.0,0.0,0.0,0.0,0.0,-1.4736,-1.1971,-0.9646,-0.8086,-0.5578,-0.3257,-0.1464,0.037,0.2946,0.6627,0.8282,0.9546,1.0292,1.0988,1.1631,1.2334,1.3245,1.413,1.4904,1.6707,1.7728,1.7535,1.832,1.856,1.8238,1.864,1.9093,1.8874,1.9469,2.0702,2.1657,2.1612,2.2406,2.4763,2.7387,2.975,3.1681,3.2379,3.2841,3.316,3.3278,3.3551,3.3817,3.4543,3.5207,3.5635,3.6435,3.7171,3.7157,3.7375,3.7578,3.7578,3.7346,3.7229,3.7109,3.6656,3.6456,3.8171,3.7567,3.6714,-8.4056,-8.4402,-8.3977,-8.3771,-8.359,-8.2091,-8.1022,-8.029,0.0,0.0,0.0,-7.6262,-7.5766,-7.5258,-7.3258,-7.2207,-7.1886,-6.961,-6.7759,-6.6168,-6.5882,-6.4224,-6.1465,-6.1028,-6.0365,-5.9131,-5.802,-5.7419,-5.7099,-5.6363,-5.5888,-5.5674,-5.5674,-5.571,-5.5502,-5.2123,-4.8556,-4.5044,-4.3837,-4.2626,-4.1097,-4.0385,-3.877,-3.6237,-3.4932,-3.3472,-3.2043,-3.1236,-2.992,-2.8334,-2.6276,-2.4492,-2.2673,-1.9834,-1.8133,-1.7579,-1.5419,-1.3757,-1.3352,-1.0027,-0.6907,-0.4717,-0.1144,0.1716,0.3564,0.573,0.7118,0.7213,0.8387,0.9448,1.0454,1.0601,1.1073,1.2342,1.3715,1.4548,1.4428,1.6119,1.7068,1.6781,1.694,1.694,1.6721,1.6778,1.6983,1.8259,1.8893,1.9511,2.2029,2.5303,2.8658,3.1196,3.1983,3.2563,3.3134,3.3387,3.3614,3.3973,3.4501,3.495,3.5396,3.6054,3.6689,3.6965,3.7331,3.7564,3.7768,3.7812,3.7957,3.768,3.7153,3.6685,3.6524,3.6445,3.6184,-8.5552,-8.4174,-8.3293,-8.2233,-8.0973,-8.0235,-7.9543,-7.8848,-7.7914,-7.7382,-7.7193,-7.6297,-7.5272,-7.4139,-7.2842,-7.1778,-7.0711,-6.8562,-6.7427,-6.7091,-6.5972,-6.5072,-6.4547,-6.3032,-6.2193,-6.1744,-6.0513,-5.9193,-5.8454,-5.8276,-5.7679,-5.6866,-5.678,-5.5747,-5.3911,-5.1617,-4.9188,-4.6619,-4.3381,-4.1689,-4.1348,-3.977,-3.8578,-3.7616,-3.5701,-3.4478,-3.3691,-3.2054,-3.0822,-3.02,-2.8471,-2.728,-2.6605,-2.2963,-2.089,-2.0741,-1.8338,-1.6853,-1.6474,-1.4349,-1.1136,-0.6994,-0.2751,0.079,0.3544,0.4282,0.5058,0.6303,0.6696,0.6874,0.7052,0.8292,0.913,0.9514,1.0753,1.1768,1.1698,1.3447,1.4434,1.4072,1.5736,1.6658,1.6205,1.6327,1.655,1.6696,1.6855,1.7673,2.0317,2.4357,2.7924,3.0132,3.165,3.252,3.2384,3.3213,3.3414,3.3414,3.4274,3.5021,3.5007,3.6078,3.6829,3.733,3.7495,3.7717,3.8146,3.8412,3.8265,3.8031,3.7707,3.7207,3.6729,3.6221,3.5735,-8.8004,-8.6927,-8.6052,-8.4646,-8.2782,-8.0911,-8.0045,-7.9905,-7.8796,-7.7811,-7.706,-7.621,-7.5526,-7.477,-7.3476,-7.2573,-7.1917,-7.0193,-6.8972,-6.8512,-6.7783,-6.6704,-6.5376,-6.4413,-6.3576,-6.2645,-6.1507,-6.0615,-6.0013,-5.885,-5.7822,-5.7352,-5.6891,-5.5611,-5.3957,-5.2853,-5.0665,-4.7672,-4.4551,-4.3008,-4.3008,-4.2497,-4.1451,-4.0013,-3.8095,-3.6176,-3.4447,-3.2719,-3.1592,-3.1222,-3.0247,-2.9286,-2.8137,-2.5142,-2.2923,-2.201,-1.9656,-1.8145,-1.8065,-1.4816,-1.1363,-0.8278,-0.5351,-0.2789,-0.06,0.1385,0.2951,0.3553,0.4147,0.4547,0.4549,0.5779,0.6612,0.6612,0.8231,0.9232,0.9201,1.0979,1.1798,1.1259,1.2917,1.422,1.374,1.4837,1.5481,1.5615,1.576,1.6724,1.9203,2.1563,2.4326,2.658,2.8681,2.9903,3.0356,3.1982,3.2812,3.3013,3.3908,3.4666,3.4747,3.5623,3.6384,3.6663,3.7082,3.7486,3.7904,3.7889,3.8025,3.8339,3.8031,3.7574,3.7095,3.648,3.5912,-9.0066,-8.9551,-8.8404,-8.6959,-8.514,-8.2541,-8.1573,-8.1675,-8.0349,-7.9069,-7.7881,-7.6923,-7.6313,-7.5927,-7.4549,-7.3706,-7.3353,-7.1862,-7.0709,-7.0001,-6.9752,-6.8445,-6.6331,-6.6026,-6.5222,-6.3841,-6.2922,-6.2419,-6.2026,-6.0248,-5.893,-5.8353,-5.7228,-5.6239,-5.53,-5.4442,-5.2377,-4.9238,-4.6892,-4.5331,-4.457,-4.4863,-4.4145,-4.246,-4.0154,-3.809,-3.5907,-3.3589,-3.209,-3.1958,-3.168,-3.0907,-2.925,-2.711,-2.5115,-2.3445,-2.0955,-1.9422,-1.8866,-1.5028,-1.1728,-0.9947,-0.797,-0.6206,-0.4641,-0.2009,0.0,0.0595,0.1396,0.2003,0.2009,0.3033,0.3861,0.4062,0.568,0.6704,0.6713,0.8127,0.9166,0.8423,1.0082,1.1143,1.1198,1.2678,1.4341,1.4928,1.5227,1.6402,1.8308,1.876,2.0069,2.2229,2.5083,2.7057,2.768,2.9319,3.076,3.1592,3.2673,3.3394,3.3976,3.522,3.5782,3.6033,3.6453,3.6859,3.7277,3.7695,3.7861,3.8161,3.7841,3.7387,3.7109,3.6685,3.5983,-9.0752,-9.0306,-8.8585,-8.7181,-8.6209,-8.5066,-8.4094,-8.3422,-8.2521,-8.155,-8.0549,-7.9126,-7.8065,-7.7211,-7.6092,-7.5147,-7.4363,-7.2684,-7.1894,-7.1722,-7.0823,-6.9624,-6.8589,-6.816,-6.7364,-6.6313,-6.6062,-6.5417,-6.4511,-6.4047,-6.2762,-6.0581,-5.9022,-5.8241,-5.7903,-5.6139,-5.4032,-5.205,-5.0251,-4.7824,-4.5209,-4.5,-4.483,-4.4621,-4.1257,-3.9299,-3.8703,-3.5095,-3.2858,-3.2556,-3.2631,-3.2422,-3.1191,-2.9721,-2.7698,-2.5399,-2.3277,-2.1343,-1.9396,-1.6616,-1.4223,-1.2631,-1.0236,-0.8072,-0.6727,-0.6121,-0.4483,-0.2237,-0.1424,-0.1225,-0.1235,0.0,0.1032,0.1237,0.2685,0.3737,0.3966,0.523,0.6083,0.5926,0.739,0.8668,0.8675,1.0576,1.2655,1.4452,1.4535,1.488,1.6161,1.6653,1.6927,1.8203,2.1397,2.4177,2.4804,2.542,2.7261,2.9151,3.0165,3.1292,3.2942,3.4137,3.5191,3.4531,3.5388,3.5585,3.6439,3.7529,3.7652,3.7187,3.685,3.6763,3.648,3.6407,3.6158,-9.3282,-9.2279,-9.0702,-8.8944,-8.7267,-8.5447,-8.4681,-8.4485,-8.3263,-8.2768,-8.2693,-8.2143,-8.077,-7.8724,-7.7589,-7.654,-7.5749,-7.4753,-7.4294,-7.4366,-7.4344,-7.3163,-7.1068,-7.0724,-6.9495,-6.746,-6.7293,-6.7014,-6.6539,-6.5637,-6.3834,-6.1531,-6.0594,-6.0005,-5.933,-5.8386,-5.7054,-5.5128,-5.3513,-5.1467,-4.9135,-4.736,-4.6406,-4.5803,-4.3394,-4.1161,-3.9676,-3.6868,-3.4592,-3.3372,-3.3297,-3.3101,-3.2732,-2.9482,-2.8043,-2.8596,-2.361,-2.0235,-1.9256,-1.7459,-1.5857,-1.526,-1.3524,-1.1575,-1.0206,-1.0053,-0.9094,-0.7087,-0.4972,-0.3713,-0.3727,-0.2486,-0.1864,-0.1659,-0.0208,0.0838,0.084,0.2323,0.3189,0.2999,0.4501,0.5795,0.5816,0.7518,0.9811,1.2055,1.2573,1.3145,1.4892,1.58,1.6034,1.6478,1.8656,2.0369,2.1751,2.3568,2.5009,2.6108,2.7459,2.882,2.9538,3.054,3.1095,3.1521,3.1759,3.196,3.1911,3.3248,3.3858,3.4608,3.676,3.6967,3.6539,3.6509,3.6305,-9.5253,-9.4023,-9.2579,-9.0942,-8.9167,-8.6693,-8.5918,-8.599,-8.4506,-8.4156,-8.4604,-8.4639,-8.3225,-8.0842,-7.9495,-7.8387,-7.756,-7.6838,-7.6529,-7.6446,-7.6793,-7.5621,-7.3358,-7.2841,-7.1288,-6.9214,-6.8527,-6.8417,-6.825,-6.7043,-6.5217,-6.3071,-6.2638,-6.1875,-6.0601,-6.0587,-5.9583,-5.7715,-5.5983,-5.4123,-5.2102,-4.9611,-4.7973,-4.7148,-4.514,-4.2838,-4.0576,-3.8235,-3.6048,-3.4007,-3.3857,-3.3758,-3.3315,-3.0114,-2.8824,-2.9418,-2.3836,-1.966,-1.9264,-1.8298,-1.7326,-1.6942,-1.5857,-1.4739,-1.3366,-1.2647,-1.2171,-1.0843,-0.844,-0.6706,-0.6494,-0.5446,-0.4816,-0.4609,-0.3161,-0.2117,-0.213,-0.0643,0.0216,0.0,0.1743,0.3262,0.3489,0.4992,0.6894,0.9177,0.9733,1.032,1.2711,1.4002,1.4862,1.5326,1.6273,1.7742,1.9284,2.0696,2.2347,2.371,2.4604,2.5691,2.6396,2.7621,2.836,2.9698,2.8609,2.8609,2.9698,3.0151,2.9945,3.183,3.4042,3.5739,3.5207,3.5991,3.6531,-9.5757,-9.4994,-9.36,-9.2868,-9.261,-8.994,-8.8856,-8.8596,-8.69,-8.6156,-8.6191,-8.6191,-8.5172,-8.3448,-8.2067,-8.0863,-7.9968,-7.8582,-7.7964,-7.7892,-7.739,-7.6398,-7.5275,-7.3837,-7.2684,-7.1561,-7.0325,-6.9933,-7.0073,-6.9132,-6.7569,-6.5994,-6.5134,-6.3915,-6.2381,-6.2232,-6.1181,-5.957,-5.7722,-5.549,-5.3387,-5.1393,-4.9728,-4.8353,-4.6019,-4.374,-4.1642,-3.9331,-3.7165,-3.4853,-3.4695,-3.4377,-3.3572,-3.3412,-3.1284,-2.6851,-2.3189,-2.0655,-1.9693,-1.9419,-1.8899,-1.7501,-1.7632,-1.6756,-1.5409,-1.4296,-1.338,-1.2889,-1.1807,-1.0947,-1.0092,-0.8566,-0.7714,-0.7503,-0.6012,-0.5195,-0.5272,-0.3517,-0.2658,-0.2448,-0.0887,0.0882,0.2846,0.3494,0.4562,0.6248,0.705,0.7441,0.8713,1.0623,1.2166,1.329,1.504,1.7148,1.7229,1.8259,1.9345,2.0507,2.194,2.2983,2.5312,2.7246,2.7691,2.787,2.7466,2.7477,2.7923,2.7755,2.7011,2.8278,3.0886,3.243,3.3718,3.5508,3.6248,-9.6099,-9.463,-9.4117,-9.3521,-9.2751,-9.1233,-9.0249,-8.9553,-8.8311,-8.7777,-8.7777,-8.7777,-8.7435,-8.6742,-8.5094,-8.2751,-8.0191,-7.9548,-7.9225,-7.9364,-7.9404,-7.8831,-7.7559,-7.6653,-7.5412,-7.4277,-7.3178,-7.2865,-7.2865,-7.2603,-7.0978,-6.857,-6.801,-6.6386,-6.4309,-6.4069,-6.3881,-6.3055,-6.1748,-5.9955,-5.7558,-5.4945,-5.2642,-5.0916,-4.8332,-4.5924,-4.4041,-4.1611,-3.9495,-3.7334,-3.6041,-3.5251,-3.4988,-3.4588,-3.1891,-2.6496,-2.3681,-2.2311,-2.1795,-2.1858,-2.1492,-2.1099,-2.1052,-2.0356,-1.9197,-1.8299,-1.7615,-1.6703,-1.6389,-1.557,-1.3637,-1.1877,-1.0557,-1.0355,-0.9136,-0.813,-0.7987,-0.6681,-0.5588,-0.5395,-0.3811,-0.1335,0.0442,0.1323,0.2192,0.411,0.4535,0.5392,0.688,0.8425,0.9558,1.042,1.262,1.4804,1.5123,1.6311,1.7579,1.8337,1.9318,1.9846,2.1707,2.3075,2.3735,2.4129,2.4412,2.4889,2.4852,2.5811,2.5086,2.5898,2.8512,3.048,3.2697,3.3796,3.513,-9.6591,-9.5369,-9.5,-9.4252,-9.3153,-9.2194,-9.1157,-9.021,-8.9408,-8.8978,-8.8877,-8.8877,-8.8468,-8.7701,-8.6475,-8.4159,-8.1209,-8.1025,-8.1025,-8.1058,-8.1511,-8.1189,-8.0171,-7.8891,-7.7649,-7.668,-7.536,-7.4837,-7.4866,-7.504,-7.3397,-7.0248,-7.0253,-6.8513,-6.5756,-6.5559,-6.576,-6.5343,-6.4279,-6.2576,-6.05,-5.7459,-5.4926,-5.2741,-5.0487,-4.8152,-4.5998,-4.3621,-4.1314,-3.934,-3.7236,-3.6056,-3.5983,-3.5094,-3.23,-2.7581,-2.5513,-2.4115,-2.3393,-2.3219,-2.3219,-2.3219,-2.3342,-2.2793,-2.1766,-2.1552,-2.0693,-1.9977,-1.9486,-1.8725,-1.7203,-1.5218,-1.3459,-1.262,-1.1663,-1.1351,-1.1218,-0.9682,-0.8128,-0.7014,-0.588,-0.3819,-0.1783,-0.1335,0.0,0.1968,0.2406,0.3051,0.436,0.5899,0.6819,0.767,1.0097,1.1878,1.2718,1.3744,1.6074,1.7014,1.7906,1.7989,1.8551,1.9677,2.0463,2.0638,2.1072,2.1325,2.2168,2.3373,2.3983,2.4608,2.6037,2.8037,3.0106,3.1979,3.3381,-9.7248,-9.7063,-9.6435,-9.5325,-9.416,-9.3157,-9.1921,-9.0856,-9.0361,-9.0088,-8.9692,-8.9518,-8.864,-8.6687,-8.659,-8.507,-8.3792,-8.3472,-8.3098,-8.2936,-8.2968,-8.3001,-8.26,-8.0156,-7.8716,-7.8293,-7.65,-7.5563,-7.5708,-7.6051,-7.4675,-7.2062,-7.1799,-6.9942,-6.6137,-6.6664,-6.6739,-6.6217,-6.5312,-6.3468,-6.0937,-5.8611,-5.6018,-5.3912,-5.2245,-5.0242,-4.7517,-4.5204,-4.2961,-4.0542,-3.8386,-3.7118,-3.6458,-3.5423,-3.3187,-3.0546,-2.871,-2.6681,-2.4451,-2.4048,-2.4058,-2.4019,-2.3841,-2.3841,-2.3672,-2.2879,-2.2009,-2.2061,-2.135,-2.0603,-2.017,-1.8886,-1.6724,-1.3921,-1.3796,-1.3922,-1.3818,-1.2323,-1.0056,-0.8186,-0.7284,-0.6367,-0.45,-0.3356,-0.2232,-0.0668,0.0221,0.0,0.0,0.286,0.4389,0.5507,0.7501,0.9488,1.0187,1.0878,1.3487,1.5876,1.6519,1.7206,1.7751,1.86,1.9767,2.0187,2.0843,2.1309,2.1514,2.2523,2.2295,2.2935,2.4201,2.5544,2.7528,2.9664,3.1722,-9.7285,-9.7285,-9.7026,-9.6054,-9.4771,-9.4855,-9.3748,-9.2031,-9.2329,-9.2098,-9.1579,-9.1509,-9.1077,-9.0227,-8.9471,-8.8329,-8.7424,-8.6666,-8.5323,-8.3519,-8.326,-8.326,-8.2799,-8.072,-7.8959,-7.7944,-7.7116,-7.7072,-7.7449,-7.7711,-7.5981,-7.3239,-7.2749,-7.092,-6.7517,-6.7819,-6.8145,-6.8294,-6.8385,-6.693,-6.3791,-6.1749,-5.9073,-5.5809,-5.4042,-5.2529,-5.1332,-4.8226,-4.5469,-4.295,-4.0745,-3.8936,-3.7486,-3.7084,-3.5843,-3.3771,-3.1458,-2.9824,-2.8432,-2.6985,-2.6296,-2.6192,-2.6151,-2.6141,-2.6141,-2.5649,-2.5371,-2.5711,-2.5699,-2.5176,-2.3467,-2.2926,-2.0583,-1.6885,-1.5254,-1.4526,-1.47,-1.4077,-1.22,-0.9828,-0.9565,-0.9073,-0.7455,-0.5849,-0.358,-0.2677,-0.1117,0.0,0.0,0.0666,0.1553,0.2438,0.4869,0.7071,0.7751,0.8439,1.0214,1.2406,1.3727,1.5058,1.6041,1.7001,1.8156,1.9523,2.018,2.1056,2.1261,2.1481,2.1473,2.1522,2.2634,2.4054,2.5307,2.7244,2.95,-9.839,-9.8464,-9.8723,-9.7713,-9.6038,-9.6834,-9.5844,-9.3881,-9.427,-9.4234,-9.3651,-9.3581,-9.305,-9.2131,-9.1227,-9.0154,-8.8964,-8.8367,-8.7097,-8.5349,-8.4874,-8.4749,-8.4406,-8.216,-7.9724,-7.8079,-7.8001,-7.8465,-7.9104,-7.918,-7.7713,-7.488,-7.4404,-7.2587,-6.9357,-6.9351,-6.9727,-7.0104,-7.0581,-6.9594,-6.6717,-6.4462,-6.1733,-5.8457,-5.5916,-5.4619,-5.3828,-5.1534,-4.8616,-4.5013,-4.1778,-3.9464,-3.8163,-3.7943,-3.7328,-3.5638,-3.3927,-3.2458,-3.0622,-2.9278,-2.8401,-2.7893,-2.7618,-2.7564,-2.7585,-2.7618,-2.7747,-2.779,-2.7792,-2.7481,-2.6192,-2.5183,-2.332,-2.0993,-1.7827,-1.5793,-1.5325,-1.4923,-1.4166,-1.2222,-1.2154,-1.1864,-1.0886,-0.8582,-0.5835,-0.4925,-0.2922,-0.1357,-0.1119,-0.0447,0.0,0.0887,0.2427,0.4193,0.5311,0.6217,0.7131,0.8684,1.0456,1.2015,1.3172,1.4309,1.5454,1.7921,1.9036,2.0606,2.104,2.153,2.1546,2.162,2.1693,2.2667,2.4093,2.5208,2.7536,-10.0269,-10.0381,-10.1015,-9.971,-9.7815,-9.8869,-9.7965,-9.6054,-9.6317,-9.6317,-9.5826,-9.579,-9.4455,-9.2475,-9.2347,-9.1242,-8.9083,-8.9196,-8.8977,-8.8557,-8.7984,-8.7567,-8.6235,-8.3981,-8.1498,-7.9189,-7.9162,-7.9743,-8.041,-8.0846,-7.9644,-7.6648,-7.6104,-7.4624,-7.1464,-7.1008,-7.0932,-7.1083,-7.156,-7.0883,-6.8752,-6.6252,-6.3388,-6.0859,-5.76,-5.543,-5.4805,-5.3628,-5.1181,-4.6303,-4.1875,-3.9119,-3.869,-3.8602,-3.7752,-3.6481,-3.606,-3.4121,-3.196,-3.0787,-2.9865,-2.8489,-2.8145,-2.8037,-2.8027,-2.8124,-2.8167,-2.8059,-2.821,-2.835,-2.7702,-2.663,-2.5195,-2.4504,-2.0454,-1.7282,-1.5453,-1.5026,-1.4502,-1.4654,-1.4847,-1.4547,-1.3891,-1.1789,-0.9497,-0.7671,-0.5399,-0.4055,-0.2924,-0.1791,-0.0222,0.0663,0.1319,0.1974,0.3075,0.4209,0.5114,0.6009,0.7573,0.8933,1.0722,1.1852,1.2975,1.5436,1.7464,1.9036,2.0149,2.0164,2.1152,2.1717,2.1798,2.1879,2.2645,2.4047,2.5961,-10.0307,-10.0272,-10.0019,-9.9512,-9.9014,-9.947,-9.9045,-9.8039,-9.8609,-9.8431,-9.7979,-9.7872,-9.6881,-9.547,-9.4979,-9.3848,-9.2212,-9.1901,-9.169,-9.1361,-9.1402,-8.8969,-8.6149,-8.4833,-8.3068,-8.0853,-8.0614,-8.1049,-8.1659,-8.1949,-8.0183,-7.6802,-7.6618,-7.4809,-7.1611,-7.1133,-7.1309,-7.1636,-7.1811,-7.0221,-6.7138,-6.5666,-6.2586,-5.8734,-5.7257,-5.6094,-5.5185,-5.2056,-4.9354,-4.6829,-4.2429,-3.9714,-3.9568,-3.9363,-3.9005,-3.8368,-3.7289,-3.5792,-3.3829,-3.2254,-3.0676,-2.8837,-2.8576,-2.8447,-2.8285,-2.8328,-2.8339,-2.8274,-2.8339,-2.8436,-2.8565,-2.7944,-2.7014,-2.532,-2.1573,-1.783,-1.5686,-1.5037,-1.5021,-1.4988,-1.4912,-1.4793,-1.4201,-1.2734,-1.0849,-0.9675,-0.7873,-0.5855,-0.4719,-0.3584,-0.2222,-0.022,0.0657,0.0654,0.1092,0.2204,0.3104,0.3998,0.4901,0.6043,0.8054,0.9843,1.1176,1.2733,1.4108,1.5459,1.6982,1.786,1.9337,2.0624,2.1406,2.1252,2.1976,2.3233,2.5273,-10.131,-10.1312,-10.1271,-10.101,-10.0603,-10.0995,-10.0587,-9.9873,-10.0133,-10.0133,-9.9705,-9.9633,-9.8672,-9.7144,-9.6761,-9.5511,-9.3707,-9.3478,-9.3228,-9.3034,-9.3499,-9.0871,-8.7195,-8.5904,-8.4638,-8.227,-8.2036,-8.2588,-8.3284,-8.34,-8.1293,-7.8551,-7.7769,-7.5708,-7.1998,-7.1786,-7.1912,-7.2263,-7.2464,-7.1192,-6.8985,-6.647,-6.4008,-6.0511,-5.8576,-5.6698,-5.5766,-5.2449,-4.9075,-4.6175,-4.262,-4.0358,-4.0182,-3.989,-3.9729,-3.9714,-3.8726,-3.7339,-3.56,-3.3864,-3.2106,-3.0317,-2.9657,-2.8888,-2.8727,-2.8662,-2.864,-2.8393,-2.8447,-2.8565,-2.8683,-2.8791,-2.7901,-2.591,-2.3056,-2.0171,-1.7098,-1.5731,-1.5037,-1.5021,-1.4972,-1.4858,-1.4706,-1.3241,-1.2677,-1.1907,-1.01,-0.8523,-0.7164,-0.5802,-0.422,-0.242,-0.0873,-0.087,0.0,0.1316,0.2436,0.3108,0.3792,0.4483,0.5603,0.7834,0.8724,0.9843,1.0978,1.2103,1.3854,1.5413,1.6862,1.8342,1.9578,2.0871,2.1552,2.2415,2.4496,-10.2648,-10.2686,-10.3518,-10.3128,-10.2033,-10.2749,-10.2215,-10.1409,-10.1311,-10.1311,-10.1275,-10.1239,-9.9884,-9.7641,-9.7745,-9.6436,-9.4142,-9.4179,-9.4146,-9.4382,-9.4651,-9.287,-8.863,-8.8105,-8.6426,-8.3965,-8.3429,-8.4097,-8.4736,-8.5055,-8.325,-8.034,-7.9483,-7.7134,-7.3716,-7.2803,-7.2715,-7.2715,-7.2991,-7.2595,-7.0956,-6.7651,-6.4886,-6.2903,-5.9039,-5.7068,-5.6096,-5.3792,-5.052,-4.5236,-4.2812,-4.1591,-4.087,-4.0343,-4.0168,-4.0109,-3.9718,-3.8898,-3.7045,-3.5132,-3.3639,-3.2032,-3.031,-2.9329,-2.9093,-2.8996,-2.8823,-2.8393,-2.8576,-2.8705,-2.8866,-2.9017,-2.8342,-2.672,-2.5827,-2.3621,-2.0296,-1.7116,-1.5271,-1.5037,-1.5032,-1.4918,-1.4776,-1.4662,-1.4591,-1.3288,-1.1907,-1.0747,-0.939,-0.8252,-0.6429,-0.4396,-0.349,-0.2817,-0.1086,0.0654,0.1763,0.2887,0.335,0.4038,0.4261,0.5603,0.6274,0.7172,0.7849,0.9184,1.0953,1.2549,1.4178,1.6061,1.7729,1.9468,2.101,2.1836,2.3596,-10.2389,-10.1932,-10.2248,-10.2266,-10.2135,-10.2323,-10.2615,-10.2809,-10.2845,-10.2738,-10.2845,-10.2845,-10.1294,-9.9124,-9.894,-9.7847,-9.5631,-9.5405,-9.5538,-9.5637,-9.6399,-9.4474,-9.1449,-9.0726,-8.8582,-8.595,-8.5338,-8.5549,-8.581,-8.567,-8.4476,-8.1927,-7.9934,-7.7966,-7.5195,-7.3281,-7.274,-7.274,-7.2891,-7.1748,-6.9624,-6.6975,-6.4009,-6.1463,-5.8304,-5.7048,-5.6154,-5.4355,-5.1564,-4.8688,-4.5994,-4.3807,-4.1917,-4.1236,-4.0958,-4.0738,-4.0651,-3.9818,-3.7867,-3.6013,-3.4283,-3.2538,-3.0756,-2.9523,-2.9125,-2.9082,-2.8856,-2.8522,-2.8576,-2.8834,-2.9146,-2.9448,-2.9106,-2.8471,-2.7133,-2.5788,-2.3997,-2.0564,-1.7343,-1.5493,-1.5032,-1.4977,-1.4831,-1.4716,-1.4613,-1.4477,-1.3715,-1.2757,-1.1612,-1.0484,-0.8648,-0.6821,-0.6143,-0.524,-0.2838,-0.1316,-0.0442,0.089,0.1565,0.2242,0.2466,0.3139,0.3809,0.4259,0.4712,0.6272,0.8274,0.917,1.032,1.3088,1.5428,1.7117,1.8603,2.0326,2.2416,-10.2314,-10.1697,-10.1816,-10.1967,-10.2075,-10.214,-10.2667,-10.3273,-10.338,-10.338,-10.328,-10.2801,-10.1392,-9.9676,-9.9008,-9.771,-9.6359,-9.6035,-9.62,-9.6465,-9.683,-9.5335,-9.3216,-9.2529,-9.0917,-8.7156,-8.643,-8.6444,-8.6739,-8.6684,-8.5537,-8.3061,-8.0962,-7.8576,-7.6009,-7.3783,-7.274,-7.274,-7.274,-7.1716,-6.9865,-6.7366,-6.3863,-6.0341,-5.776,-5.6582,-5.6368,-5.5471,-5.347,-5.1216,-4.8654,-4.5662,-4.2706,-4.1704,-4.1382,-4.1221,-4.0855,-4.0475,-3.894,-3.6679,-3.4655,-3.3775,-3.133,-3.0016,-2.9297,-2.9157,-2.8985,-2.877,-2.8737,-2.8866,-2.9233,-2.9588,-2.9696,-2.9416,-2.8554,-2.7449,-2.5625,-2.1717,-1.7781,-1.5697,-1.5015,-1.4967,-1.4874,-1.476,-1.4635,-1.4504,-1.4379,-1.342,-1.342,-1.2279,-1.1116,-0.9734,-0.9058,-0.7712,-0.5059,-0.3532,-0.3112,-0.2009,-0.1342,-0.0896,-0.0672,0.0,0.0897,0.2018,0.3365,0.4038,0.5824,0.6272,0.7166,0.9433,1.1732,1.3855,1.5979,1.8321,2.0576,-10.2277,-10.166,-10.1816,-10.1806,-10.1838,-10.2069,-10.256,-10.313,-10.3345,-10.338,-10.3143,-10.2105,-10.0954,-9.9676,-9.841,-9.7119,-9.6262,-9.6266,-9.6565,-9.6962,-9.726,-9.5823,-9.408,-9.3485,-9.2218,-8.8472,-8.7768,-8.7749,-8.7842,-8.7814,-8.6397,-8.4016,-8.1677,-7.9005,-7.6427,-7.42,-7.2841,-7.2765,-7.274,-7.2336,-7.1334,-6.8997,-6.5256,-6.0927,-5.806,-5.6894,-5.6914,-5.6444,-5.5485,-5.3201,-5.0952,-4.7361,-4.4079,-4.1894,-4.147,-4.1441,-4.0929,-4.0402,-3.9847,-3.7577,-3.557,-3.5113,-3.2219,-3.0103,-2.965,-2.92,-2.9028,-2.892,-2.8845,-2.8834,-2.9114,-2.9448,-2.9566,-2.9523,-2.9631,-2.8822,-2.6538,-2.2407,-1.9374,-1.5652,-1.5686,-1.6139,-1.5353,-1.4782,-1.4657,-1.4532,-1.4407,-1.432,-1.432,-1.4087,-1.2699,-1.2232,-1.155,-1.0211,-0.7754,-0.7125,-0.6277,-0.4251,-0.3808,-0.336,-0.3139,-0.2248,-0.09,0.1346,0.2691,0.3141,0.3591,0.4709,0.5826,0.6722,0.7642,0.9504,1.2475,1.6121,1.8566,-10.2165,-10.131,-10.1732,-10.1248,-10.0566,-10.156,-10.2238,-10.2488,-10.3095,-10.338,-10.3244,-10.207,-10.0732,-9.956,-9.841,-9.7153,-9.6298,-9.6631,-9.7028,-9.736,-9.7558,-9.6516,-9.4779,-9.4095,-9.2594,-9.089,-8.9981,-8.9496,-8.8829,-8.848,-8.7089,-8.4241,-8.2062,-7.9488,-7.69,-7.4506,-7.3117,-7.2816,-7.2791,-7.2436,-7.1216,-6.9038,-6.6207,-6.1516,-5.8934,-5.7737,-5.7578,-5.7617,-5.6525,-5.4229,-5.148,-4.8847,-4.5945,-4.3444,-4.1929,-4.1411,-4.1031,-4.068,-4.0081,-3.8472,-3.6679,-3.5113,-3.3116,-3.0992,-2.9885,-2.92,-2.8996,-2.8823,-2.8791,-2.8888,-2.9319,-2.9405,-2.9448,-2.9469,-2.9577,-2.9512,-2.8606,-2.6073,-2.2137,-1.7717,-1.753,-1.733,-1.6537,-1.5504,-1.4684,-1.4559,-1.4428,-1.4347,-1.432,-1.432,-1.3859,-1.3626,-1.3854,-1.2279,-1.0488,-1.0564,-0.994,-0.6732,-0.5381,-0.4707,-0.4491,-0.3837,-0.2258,-0.1127,0.045,0.135,0.2023,0.3372,0.4269,0.5172,0.5184,0.5194,0.9254,1.3323,1.6025,-10.2128,-10.1391,-10.1125,-10.0634,-10.0244,-10.0668,-10.1489,-10.2203,-10.2631,-10.3023,-10.2695,-10.15,-10.0248,-9.9327,-9.7586,-9.6621,-9.6796,-9.7327,-9.7823,-9.8188,-9.812,-9.7405,-9.5463,-9.4971,-9.3638,-9.2483,-9.1744,-9.0839,-8.9323,-8.906,-8.7726,-8.5754,-8.2934,-8.028,-7.8062,-7.5327,-7.3508,-7.2941,-7.3016,-7.2595,-7.1272,-6.8597,-6.5188,-6.295,-5.9767,-5.807,-5.7851,-5.7851,-5.7278,-5.5715,-5.3291,-5.0877,-4.8132,-4.5518,-4.3082,-4.1664,-4.1016,-4.068,-4.03,-3.8912,-3.6914,-3.5126,-3.3564,-3.1654,-3.0097,-2.92,-2.892,-2.8694,-2.8813,-2.8866,-2.8866,-2.9114,-2.9222,-2.9276,-2.9459,-2.9642,-2.9502,-2.8606,-2.5123,-2.0719,-1.9381,-1.8946,-1.8007,-1.6713,-1.5179,-1.4586,-1.445,-1.4379,-1.433,-1.432,-1.4325,-1.4352,-1.4363,-1.372,-1.2149,-1.1992,-1.224,-0.9454,-0.7404,-0.6729,-0.6755,-0.6565,-0.5906,-0.4775,-0.3176,-0.1587,0.0906,0.2269,0.2942,0.3609,0.4056,0.4953,0.7421,1.0332,1.3024,-10.2241,-10.1591,-10.064,-10.0111,-10.004,-10.004,-10.0766,-10.1909,-10.223,-10.2766,-10.297,-10.0954,-9.9895,-9.9248,-9.7875,-9.6797,-9.736,-9.7956,-9.8486,-9.8782,-9.8143,-9.7263,-9.6676,-9.593,-9.4623,-9.3152,-9.2535,-9.198,-9.0343,-8.9585,-8.8771,-8.6728,-8.3361,-8.1059,-7.9387,-7.615,-7.4102,-7.3393,-7.3468,-7.3193,-7.1417,-6.8005,-6.5184,-6.4643,-6.0874,-5.8802,-5.8442,-5.8242,-5.8008,-5.6802,-5.4962,-5.2501,-4.9642,-4.6985,-4.4216,-4.1932,-4.0929,-4.0651,-4.0344,-3.938,-3.7811,-3.6015,-3.4011,-3.209,-3.0511,-2.98,-2.9064,-2.8815,-2.8847,-2.9021,-2.888,-2.9064,-2.905,-2.9157,-2.9351,-2.9556,-2.9696,-2.9307,-2.8616,-2.5141,-2.2407,-2.0319,-1.9143,-1.7895,-1.6344,-1.4635,-1.4504,-1.4396,-1.4347,-1.4325,-1.4336,-1.4385,-1.4428,-1.4263,-1.3613,-1.2508,-1.248,-1.1481,-0.988,-0.9202,-0.9708,-0.9996,-0.8893,-0.7561,-0.7143,-0.5298,-0.2067,0.1141,0.2267,0.2932,0.3374,0.4267,0.6062,0.7849,1.0081,-10.2389,-10.1904,-10.0856,-10.0054,-9.9673,-10.0191,-10.0887,-10.1557,-10.2273,-10.2829,-10.3178,-10.1059,-10.0159,-9.9881,-9.8703,-9.8056,-9.8088,-9.832,-9.8784,-9.9145,-9.8052,-9.7253,-9.6387,-9.4991,-9.4535,-9.3652,-9.2823,-9.2009,-9.125,-9.0663,-8.9251,-8.7062,-8.4715,-8.2307,-7.9732,-7.6933,-7.5421,-7.4397,-7.4272,-7.3965,-7.2935,-6.9719,-6.7454,-6.5405,-6.3112,-6.0696,-5.9115,-5.8652,-5.8535,-5.7963,-5.5633,-5.3065,-5.0191,-4.7099,-4.4386,-4.2558,-4.1324,-4.0914,-4.087,-4.0284,-3.9259,-3.7478,-3.587,-3.3875,-3.2044,-3.0142,-2.9415,-2.9589,-2.9238,-2.9227,-2.9098,-2.9119,-2.9039,-2.9211,-2.9416,-2.962,-2.976,-2.976,-2.9296,-2.8543,-2.5314,-2.2342,-2.0274,-1.8781,-1.7295,-1.5811,-1.4564,-1.445,-1.4358,-1.4336,-1.432,-1.4369,-1.445,-1.429,-1.4075,-1.3211,-1.2725,-1.2615,-1.1687,-1.0788,-1.0861,-1.0935,-1.1037,-0.9938,-0.9537,-0.8361,-0.5288,-0.2052,0.0906,0.2488,0.2717,0.3158,0.3815,0.5605,0.7637,-10.2204,-10.1591,-10.0555,-9.9929,-9.9641,-9.9873,-10.0299,-10.1067,-10.2251,-10.2829,-10.2769,-10.2043,-10.0958,-9.9853,-9.9085,-9.9053,-9.9018,-9.9149,-9.9513,-9.9778,-9.8913,-9.8077,-9.7167,-9.6275,-9.5524,-9.4063,-9.3585,-9.3124,-9.2394,-9.1188,-8.9804,-8.8419,-8.5453,-8.2927,-8.0505,-7.7548,-7.5743,-7.4774,-7.431,-7.4341,-7.3248,-7.0885,-6.7892,-6.5786,-6.3226,-6.0809,-5.9118,-5.8418,-5.8223,-5.7613,-5.621,-5.4594,-5.2011,-4.9215,-4.6827,-4.4347,-4.2423,-4.1441,-4.1251,-4.109,-4.01,-3.875,-3.7342,-3.5802,-3.326,-3.0987,-2.9522,-2.9378,-2.9278,-2.9128,-2.9098,-2.901,-2.9017,-2.9243,-2.9491,-2.962,-2.9739,-2.976,-2.9512,-2.919,-2.8419,-2.5421,-2.2212,-2.0333,-1.8851,-1.7375,-1.5688,-1.4466,-1.4379,-1.433,-1.432,-1.433,-1.4423,-1.4295,-1.3834,-1.3167,-1.2715,-1.241,-1.1674,-1.1024,-1.0877,-1.0963,-1.1041,-1.1135,-1.0735,-0.9291,-0.7587,-0.62,-0.4127,-0.1144,0.2054,0.2957,0.3628,0.3866,0.5908,-10.1902,-10.0939,-10.0195,-9.9876,-9.9948,-9.9912,-10.0397,-10.1133,-10.2501,-10.2901,-10.274,-10.2544,-10.1176,-9.9612,-9.9652,-9.9918,-9.9579,-10.0076,-10.0275,-10.0341,-9.9881,-9.8869,-9.77,-9.7122,-9.611,-9.4588,-9.4003,-9.3332,-9.2688,-9.1835,-9.0894,-8.9929,-8.6248,-8.371,-8.1688,-7.8634,-7.608,-7.5101,-7.4488,-7.4368,-7.3795,-7.1553,-6.8468,-6.5613,-6.3101,-6.0782,-5.8268,-5.789,-5.7695,-5.7344,-5.7049,-5.5497,-5.2891,-5.1233,-4.855,-4.6286,-4.3835,-4.2572,-4.1915,-4.1304,-4.0573,-3.9799,-3.8482,-3.6722,-3.3604,-3.1276,-3.0069,-2.9923,-2.9467,-2.9316,-2.8978,-2.9075,-2.9093,-2.9319,-2.9502,-2.962,-2.9696,-2.9674,-2.962,-2.9299,-2.8957,-2.8363,-2.5414,-2.2494,-2.0614,-1.9149,-1.7246,-1.491,-1.4385,-1.4303,-1.4314,-1.4314,-1.4412,-1.4488,-1.4001,-1.3323,-1.2883,-1.2208,-1.1472,-1.1028,-1.0877,-1.0935,-1.0996,-1.1098,-1.1192,-1.068,-0.9192,-0.9484,-0.9069,-0.3915,0.0687,0.2755,0.3674,0.3682,0.4594,-10.1628,-10.0267,-10.0179,-10.0163,-10.0199,-10.0923,-10.1556,-10.206,-10.2905,-10.3357,-10.3161,-10.2534,-10.1437,-10.0217,-10.0318,-10.055,-10.0209,-10.0275,-10.0308,-10.0094,-9.9505,-9.8637,-9.7524,-9.6639,-9.5716,-9.4641,-9.4181,-9.3332,-9.257,-9.2541,-9.1686,-9.0295,-8.7206,-8.4903,-8.2275,-7.923,-7.6731,-7.5678,-7.4984,-7.4169,-7.3576,-7.2018,-6.9453,-6.5861,-6.4151,-6.2466,-5.8268,-5.7734,-5.7558,-5.7129,-5.7109,-5.6325,-5.3978,-5.2799,-5.0354,-4.7246,-4.566,-4.3988,-4.278,-4.1821,-4.1529,-4.0625,-3.9433,-3.7573,-3.531,-3.3274,-3.1887,-3.0906,-3.04,-2.9822,-2.9513,-2.9655,-2.9308,-2.9459,-2.9577,-2.962,-2.9642,-2.9523,-2.9469,-2.9394,-2.9021,-2.8618,-2.7649,-2.453,-2.2751,-2.151,-1.7596,-1.5272,-1.4536,-1.4249,-1.4282,-1.432,-1.4412,-1.4439,-1.4145,-1.3491,-1.2883,-1.2204,-1.1485,-1.1053,-1.0877,-1.0926,-1.0959,-1.1004,-1.1078,-1.1053,-1.1053,-1.0403,-0.8792,-0.4374,-0.069,0.2312,0.3701,0.3699,0.4614,-10.1103,-10.0215,-10.0179,-10.0505,-10.0976,-10.1266,-10.1791,-10.2404,-10.3089,-10.3301,-10.3311,-10.2707,-10.1866,-10.1316,-10.1019,-10.1019,-10.0749,-10.0478,-10.0308,-9.9955,-9.9395,-9.8437,-9.7464,-9.6603,-9.5505,-9.4784,-9.4415,-9.371,-9.2857,-9.2805,-9.1836,-9.0358,-8.8304,-8.6211,-8.3436,-7.9281,-7.6626,-7.5753,-7.5105,-7.4292,-7.3306,-7.2765,-7.0421,-6.6622,-6.4173,-6.2267,-5.9324,-5.7696,-5.7168,-5.6894,-5.6855,-5.6055,-5.506,-5.3904,-5.147,-4.8378,-4.7039,-4.4804,-4.3033,-4.2129,-4.2268,-4.2557,-4.0964,-3.9335,-3.8238,-3.6154,-3.4027,-3.2592,-3.1056,-2.9811,-2.952,-2.9585,-2.9448,-2.9588,-2.9652,-2.9663,-2.9566,-2.9426,-2.9243,-2.9114,-2.8963,-2.8561,-2.7642,-2.6304,-2.4983,-2.3621,-1.9486,-1.6071,-1.5116,-1.42,-1.4238,-1.4282,-1.4369,-1.4423,-1.414,-1.3511,-1.2677,-1.2208,-1.1507,-1.1303,-1.0886,-1.089,-1.0922,-1.0951,-1.052,-1.0071,-1.0097,-1.0602,-0.8293,-0.3674,0.0,0.3038,0.3733,0.3712,0.4395,-10.0892,-10.0215,-10.0469,-10.0903,-10.141,-10.1664,-10.2207,-10.2858,-10.3123,-10.3057,-10.2849,-10.2393,-10.204,-10.1716,-10.1519,-10.112,-10.0716,-10.0444,-10.0308,-10.0087,-9.9623,-9.8597,-9.759,-9.6758,-9.5779,-9.4874,-9.4528,-9.3854,-9.2585,-9.2745,-9.166,-9.037,-8.9352,-8.7288,-8.3414,-7.8893,-7.5552,-7.5101,-7.458,-7.421,-7.2983,-7.2347,-7.0757,-6.713,-6.457,-6.2232,-5.9758,-5.794,-5.6894,-5.664,-5.6621,-5.6601,-5.592,-5.4787,-5.2781,-5.0557,-4.8139,-4.5676,-4.3369,-4.2775,-4.3276,-4.3565,-4.3037,-4.2377,-4.1591,-3.8431,-3.5391,-3.4153,-3.1717,-2.9786,-2.9513,-2.9556,-2.9588,-2.9706,-2.9588,-2.9556,-2.9405,-2.9265,-2.9028,-2.8823,-2.8673,-2.8565,-2.8119,-2.701,-2.5243,-2.3891,-2.1108,-1.7724,-1.6138,-1.5029,-1.4189,-1.4238,-1.4303,-1.4124,-1.4151,-1.3323,-1.2711,-1.206,-1.1581,-1.1103,-1.089,-1.0886,-1.0861,-1.0857,-1.0204,-0.9107,-0.8438,-0.822,-0.5951,-0.3213,0.0231,0.3726,0.372,0.3699,0.3703,-10.0845,-10.0324,-10.1012,-10.1374,-10.1555,-10.2244,-10.3004,-10.3545,-10.325,-10.2773,-10.2194,-10.1746,-10.1506,-10.1517,-10.1519,-10.112,-10.058,-10.0308,-10.0308,-10.0159,-9.9949,-9.8918,-9.7843,-9.7007,-9.6023,-9.4874,-9.4528,-9.3788,-9.205,-9.2243,-9.1364,-8.9818,-8.8698,-8.6925,-8.2952,-7.7898,-7.5195,-7.4448,-7.3996,-7.341,-7.2851,-7.1975,-7.0154,-6.8047,-6.5244,-6.2923,-6.0677,-5.8435,-5.7202,-5.6582,-5.6582,-5.6582,-5.6368,-5.6368,-5.4515,-5.1747,-5.0099,-4.7083,-4.3263,-4.3777,-4.4382,-4.4563,-4.4231,-4.427,-4.2744,-3.9636,-3.6767,-3.6168,-3.2737,-3.0565,-2.9954,-2.9739,-2.9749,-2.9706,-2.9588,-2.9426,-2.9286,-2.9071,-2.8845,-2.8651,-2.85,-2.8382,-2.8382,-2.7723,-2.5732,-2.3919,-2.2033,-1.9783,-1.7351,-1.6045,-1.4995,-1.4227,-1.4287,-1.4156,-1.3985,-1.3142,-1.2517,-1.2105,-1.1444,-1.1199,-1.0914,-1.0873,-1.0841,-1.0564,-0.9443,-0.7906,-0.655,-0.5192,-0.2724,-0.0228,0.1375,0.3685,0.3685,0.3689,0.3692,-10.0406,-10.0288,-10.1085,-10.1736,-10.2244,-10.3004,-10.3765,-10.4247,-10.3326,-10.2469,-10.2022,-10.161,-10.15,-10.1581,-10.1387,-10.112,-10.0716,-10.0308,-10.0308,-10.0199,-9.9936,-9.895,-9.7811,-9.6876,-9.6084,-9.5076,-9.4499,-9.384,-9.2473,-9.2264,-9.1331,-8.9962,-8.712,-8.4576,-8.1903,-7.8065,-7.4975,-7.4423,-7.3946,-7.3402,-7.2776,-7.241,-7.149,-6.9663,-6.7137,-6.4347,-6.1897,-5.9655,-5.8032,-5.6796,-5.6582,-5.6582,-5.6582,-5.6582,-5.518,-5.2418,-5.0284,-4.7677,-4.534,-4.5272,-4.643,-4.6238,-4.5631,-4.5639,-4.5948,-4.2258,-4.0227,-3.8169,-3.4643,-3.2656,-3.1769,-3.0428,-2.9976,-2.9717,-2.9588,-2.9362,-2.9168,-2.892,-2.8683,-2.8522,-2.8371,-2.836,-2.836,-2.8371,-2.6816,-2.5595,-2.4158,-2.1002,-1.8352,-1.7257,-1.62,-1.485,-1.4303,-1.4188,-1.4054,-1.3226,-1.2853,-1.2456,-1.1793,-1.1332,-1.1024,-1.0922,-1.0877,-1.0861,-0.8777,-0.6722,-0.4502,-0.2034,0.0453,0.2726,0.3428,0.3673,0.3681,0.3684,0.3685,-9.9962,-10.0324,-10.1374,-10.2099,-10.2678,-10.3366,-10.3756,-10.3635,-10.2564,-10.1769,-10.1115,-10.0986,-10.1096,-10.1279,-10.1385,-10.112,-10.0716,-10.0444,-10.0308,-10.0166,-9.9063,-9.8275,-9.7373,-9.6272,-9.4941,-9.4252,-9.39,-9.3272,-9.2085,-9.1961,-9.083,-8.8655,-8.5173,-8.3315,-8.1124,-7.8075,-7.4975,-7.4473,-7.4046,-7.3603,-7.3286,-7.2726,-7.2267,-7.0641,-6.8371,-6.5756,-6.3332,-6.1092,-5.8836,-5.7415,-5.6582,-5.6582,-5.6582,-5.6348,-5.5414,-5.3594,-4.9839,-4.7989,-4.7214,-4.6639,-4.7792,-4.8205,-4.6895,-4.6785,-4.7022,-4.3379,-4.1348,-3.9266,-3.6626,-3.4655,-3.2668,-3.1105,-3.0417,-3.0384,-2.9502,-2.9276,-2.9093,-2.8845,-2.8576,-2.8414,-2.836,-2.836,-2.8382,-2.8371,-2.7929,-2.7319,-2.6704,-2.292,-1.94,-1.8323,-1.6864,-1.5087,-1.4358,-1.4252,-1.3917,-1.334,-1.2963,-1.2812,-1.2116,-1.1176,-1.1118,-1.1012,-1.0971,-1.0477,-0.7718,-0.4755,-0.1358,0.1134,0.2504,0.3193,0.3429,0.3671,0.3679,0.3681,0.3681,-9.9527,-10.0433,-10.1918,-10.2569,-10.2751,-10.3383,-10.2954,-10.168,-10.1643,-10.0655,-9.9402,-10.0148,-10.0192,-10.0413,-10.0951,-10.0786,-10.0312,-10.0175,-10.0275,-9.975,-9.8512,-9.7686,-9.6401,-9.4913,-9.3969,-9.3552,-9.3092,-9.2703,-9.1746,-9.1041,-8.9975,-8.7901,-8.4183,-8.235,-8.0266,-7.7884,-7.522,-7.4573,-7.4146,-7.3895,-7.3453,-7.3086,-7.2336,-7.1101,-6.9305,-6.6577,-6.4145,-6.1712,-5.9466,-5.782,-5.6796,-5.6582,-5.6582,-5.6582,-5.6582,-5.4636,-4.9796,-5.0093,-4.9181,-4.8651,-4.8617,-4.8977,-4.8434,-4.7944,-4.6303,-4.366,-4.1798,-3.9951,-3.7757,-3.5323,-3.334,-3.2443,-3.1556,-3.0712,-2.9607,-2.92,-2.9039,-2.8802,-2.8522,-2.8382,-2.8371,-2.8382,-2.8436,-2.8436,-2.85,-2.8283,-2.727,-2.4712,-2.1574,-1.9297,-1.7643,-1.4969,-1.422,-1.4333,-1.3994,-1.3428,-1.3034,-1.2868,-1.191,-1.1192,-1.1143,-1.111,-1.1061,-0.9872,-0.642,-0.2975,0.0456,0.2286,0.3214,0.3678,0.3681,0.3675,0.3685,0.3682,0.3681,-10.036,-10.1157,-10.2171,-10.2895,-10.3347,-10.3377,-10.3088,-10.2659,-10.1928,-10.0926,-10.0361,-9.9661,-9.9518,-9.9545,-9.9746,-9.9785,-9.9684,-9.9645,-9.9944,-9.9273,-9.8271,-9.7573,-9.6429,-9.4907,-9.3864,-9.3042,-9.2583,-9.2135,-9.1458,-9.0565,-8.865,-8.6215,-8.3653,-8.1817,-7.9698,-7.7174,-7.5761,-7.4598,-7.4171,-7.3895,-7.3569,-7.3102,-7.257,-7.1728,-7.0688,-6.8206,-6.5756,-6.3332,-6.1092,-5.9256,-5.7415,-5.6796,-5.6582,-5.6796,-5.6989,-5.5667,-5.4571,-5.5014,-5.156,-5.0644,-5.0371,-4.9231,-4.8096,-4.7256,-4.5867,-4.394,-4.1753,-4.0198,-3.9089,-3.7108,-3.5113,-3.4011,-3.2892,-3.143,-3.0321,-2.9243,-2.9071,-2.8823,-2.8543,-2.8382,-2.8371,-2.8468,-2.8522,-2.8619,-2.8694,-2.8791,-2.7862,-2.5471,-2.3137,-2.0826,-1.7971,-1.5277,-1.4542,-1.4434,-1.4088,-1.3744,-1.3334,-1.291,-1.1949,-1.1237,-1.1237,-1.1204,-1.1147,-0.926,-0.601,-0.1843,0.2526,0.3456,0.3703,0.3709,0.3711,0.3699,0.369,0.3694,0.3694,-10.0107,-10.1447,-10.2244,-10.3185,-10.3942,-10.3518,-10.2965,-10.2453,-10.1248,-10.0481,-9.971,-9.9198,-9.8852,-9.8775,-9.898,-9.8986,-9.8817,-9.885,-9.9016,-9.8939,-9.8074,-9.687,-9.5737,-9.426,-9.2806,-9.2183,-9.1925,-9.1476,-9.0872,-9.01,-8.8358,-8.7265,-8.3988,-8.1604,-7.9941,-7.7782,-7.5598,-7.4774,-7.4297,-7.3971,-7.3569,-7.3192,-7.2886,-7.2354,-7.1673,-6.9817,-6.7592,-6.5154,-6.3127,-6.0698,-5.8646,-5.782,-5.7648,-5.7667,-5.786,-5.6989,-5.666,-5.5821,-5.3091,-5.1962,-5.0908,-4.9279,-4.7372,-4.6232,-4.5285,-4.3581,-4.2076,-4.0882,-4.0213,-3.9104,-3.7343,-3.5348,-3.4011,-3.2443,-3.0868,-2.9319,-2.9093,-2.8845,-2.864,-2.8436,-2.8447,-2.8565,-2.8662,-2.878,-2.8888,-2.9006,-2.8102,-2.5952,-2.3833,-2.153,-1.8385,-1.5123,-1.4845,-1.4771,-1.4423,-1.3814,-1.3392,-1.2713,-1.198,-1.1278,-1.1306,-1.0845,-1.0579,-0.8425,-0.5595,-0.1394,0.2785,0.3487,0.3731,0.3737,0.3739,0.3734,0.3729,0.3731,0.373,-9.9346,-10.1483,-10.2316,-10.3547,-10.4593,-10.35,-10.2453,-10.1392,-10.017,-9.8958,-9.8295,-9.8464,-9.8355,-9.8105,-9.8214,-9.8221,-9.8255,-9.8254,-9.8217,-9.8051,-9.6303,-9.5249,-9.4307,-9.2376,-9.1646,-9.1374,-9.1117,-9.0968,-9.0425,-8.9803,-8.9098,-8.8928,-8.4737,-8.2187,-8.1071,-7.8272,-7.631,-7.4849,-7.4598,-7.4372,-7.3669,-7.3393,-7.3102,-7.2296,-7.1383,-7.018,-6.8183,-6.6378,-6.4774,-6.233,-6.049,-5.9885,-5.8917,-5.8536,-5.8727,-5.8727,-5.8132,-5.6815,-5.5041,-5.3724,-5.1493,-4.9429,-4.6901,-4.5649,-4.4423,-4.2851,-4.1595,-4.113,-4.0242,-3.979,-3.8252,-3.6236,-3.4457,-3.288,-3.1396,-3.0086,-2.9222,-2.8931,-2.863,-2.849,-2.8522,-2.8651,-2.8834,-2.8953,-2.9179,-2.9265,-2.8766,-2.6843,-2.4084,-2.1997,-1.8846,-1.5474,-1.4956,-1.4659,-1.428,-1.365,-1.2976,-1.251,-1.1801,-1.1595,-1.1416,-1.0713,-0.9522,-0.7578,-0.5417,-0.1411,0.188,0.3056,0.376,0.3759,0.3763,0.3768,0.3767,0.376,0.3757,-10.0324,-10.1519,-10.2859,-10.4018,-10.4536,-10.2761,-10.1822,-10.1283,-9.9313,-9.8337,-9.807,-9.8082,-9.7808,-9.7436,-9.7475,-9.7454,-9.7592,-9.789,-9.771,-9.7134,-9.552,-9.4238,-9.3465,-9.1668,-9.0924,-9.0758,-9.0698,-9.0638,-9.0472,-8.9803,-8.9297,-8.8928,-8.5656,-8.3653,-8.1817,-7.9015,-7.7138,-7.517,-7.4649,-7.4197,-7.3293,-7.2991,-7.2626,-7.2336,-7.1766,-7.155,-6.9962,-6.8528,-6.6554,-6.4145,-6.2103,-6.0511,-5.9128,-5.8897,-5.9128,-5.9548,-5.9108,-5.8052,-5.6523,-5.4965,-5.2958,-5.056,-4.7993,-4.5856,-4.4031,-4.2091,-4.0912,-4.0693,-4.0475,-4.0037,-3.9146,-3.6901,-3.489,-3.3304,-3.17,-3.041,-2.9329,-2.8974,-2.863,-2.8608,-2.8619,-2.878,-2.8974,-2.9189,-2.9416,-2.9469,-2.9405,-2.7733,-2.4326,-2.1791,-1.9092,-1.6157,-1.5116,-1.4782,-1.4159,-1.3508,-1.2837,-1.2399,-1.1937,-1.1728,-1.1523,-1.1044,-1.0319,-0.7887,-0.5236,-0.1663,0.1423,0.3083,0.3791,0.3783,0.3772,0.3772,0.3772,0.3767,0.3768,-10.036,-10.1519,-10.2678,-10.3344,-10.3292,-10.2103,-10.1139,-10.0431,-9.9094,-9.8307,-9.7913,-9.763,-9.738,-9.6873,-9.6778,-9.6954,-9.7095,-9.7492,-9.6977,-9.6201,-9.534,-9.3991,-9.2556,-9.1281,-9.0774,-9.0638,-9.0638,-9.0638,-9.0472,-8.9971,-8.9466,-8.8928,-8.6567,-8.4197,-8.2187,-7.9914,-7.782,-7.5226,-7.4724,-7.3971,-7.3092,-7.2916,-7.2765,-7.2526,-7.2286,-7.2097,-7.155,-7.0131,-6.8551,-6.6156,-6.3964,-6.1341,-5.9947,-5.9548,-5.9548,-5.9779,-5.9779,-5.9338,-5.782,-5.6193,-5.4408,-5.1512,-4.8842,-4.6339,-4.3889,-4.2202,-4.0693,-4.0475,-4.0475,-4.0256,-3.9366,-3.7356,-3.5793,-3.4209,-3.17,-3.0027,-2.9276,-2.891,-2.8705,-2.8651,-2.8759,-2.8996,-2.9189,-2.9426,-2.9609,-2.9609,-2.9545,-2.7476,-2.4278,-2.1788,-1.9066,-1.6603,-1.5309,-1.4461,-1.3833,-1.3163,-1.2713,-1.227,-1.182,-1.1833,-1.1604,-1.1612,-1.0881,-0.8424,-0.5757,-0.2395,0.0239,0.1906,0.3571,0.3801,0.3786,0.3772,0.3536,0.3064,0.2593,-10.007,-10.141,-10.228,-10.2414,-10.1996,-10.1576,-10.0809,-9.9814,-9.9193,-9.8578,-9.798,-9.7388,-9.7134,-9.6879,-9.6525,-9.6796,-9.7227,-9.7823,-9.7075,-9.569,-9.5054,-9.3498,-9.2238,-9.0967,-9.0714,-9.0638,-9.0638,-9.0638,-9.0638,-9.0139,-8.9606,-8.8899,-8.7091,-8.4737,-8.2345,-8.0292,-7.8423,-7.5912,-7.4849,-7.4247,-7.3644,-7.3092,-7.2841,-7.2476,-7.2426,-7.2211,-7.1931,-7.1575,-7.0373,-6.7986,-6.4998,-6.2189,-6.0574,-5.9779,-5.9779,-5.9988,-5.9988,-5.9338,-5.8243,-5.7375,-5.4916,-5.21,-4.9308,-4.6772,-4.4305,-4.2403,-4.113,-4.049,-4.049,-4.0256,-3.9146,-3.8018,-3.6458,-3.4445,-3.1924,-2.962,-2.9265,-2.8953,-2.8866,-2.8791,-2.8953,-2.92,-2.9383,-2.962,-2.9717,-2.9717,-2.8564,-2.6263,-2.398,-2.2185,-1.9914,-1.7006,-1.4781,-1.4145,-1.3496,-1.3053,-1.2598,-1.2133,-1.1678,-1.1678,-1.1678,-1.1674,-1.0927,-0.9203,-0.6517,-0.4083,-0.1914,-0.0238,0.1191,0.2617,0.1657,0.0942,0.1178,0.0707,0.0707,-10.0541,-10.1483,-10.2244,-10.2378,-10.1961,-10.1576,-10.0809,-9.9595,-9.8682,-9.798,-9.7866,-9.7925,-9.7904,-9.7938,-9.7517,-9.7525,-9.7956,-9.8387,-9.6658,-9.4991,-9.502,-9.3343,-9.1648,-9.0789,-9.0608,-9.0579,-9.0519,-9.0608,-9.0459,-9.0186,-8.9803,-8.9268,-8.8758,-8.601,-8.2529,-8.083,-7.9646,-7.701,-7.4925,-7.4297,-7.3996,-7.3443,-7.2841,-7.2715,-7.2715,-7.2526,-7.2551,-7.2551,-7.1143,-6.8966,-6.5779,-6.2784,-6.099,-6.0198,-5.9988,-5.9988,-5.9988,-5.9779,-5.8917,-5.8183,-5.5745,-5.3458,-5.042,-4.7353,-4.5001,-4.262,-4.155,-4.049,-4.049,-4.0504,-3.9614,-3.8472,-3.6901,-3.4457,-3.1959,-3.0274,-2.9362,-2.9254,-2.9179,-2.9146,-2.9179,-2.9329,-2.9426,-2.9663,-2.9879,-2.9868,-2.9836,-2.731,-2.3735,-2.2146,-2.0765,-1.7401,-1.445,-1.3558,-1.3127,-1.2943,-1.2487,-1.2012,-1.1759,-1.1731,-1.1719,-1.1715,-1.0962,-0.9931,-0.8436,-0.6471,-0.4536,-0.2383,-0.1899,-0.1185,-0.2123,-0.2587,-0.212,-0.1654,-0.1658]}]]